Darstellungsparameter: Aktuell verwendete Einstellungen:
Skalierung der Graphiken ... ?
xyx+y,   Skalierungsfaktor:      Skalierung: Modus: x, Faktor: 1
Darstellungszeitraum ... ?
Vom - - bis: - -   Zeitraum: 28.07.2018 - 27.01.2019
Min/Max/Avg-Anzeige ... ?
Zeige MMA aktuell
Zeige MMA Monat
Zeige MMA alles
Zeige --A aktuell
Zeige --A Monat
Zeige --A alles
Keine MMA-Anzeige
MMA:
Minimum Maximum Average (ber die Originaldaten)
MMA-Basis: 28.07.2018 - 27.01.2019
Quicknavigation für Darstellung... ?
Tage:      1T, 2T, 3T, 5T -1T -2T -3T -5T +1T +2T +3T +5T
Wochen: 1W, 2W, 3W -1W -2W -3W +1W +2W +3W
Monate: 1M, 3M, 6M -1M -3M -6M +1M +3M +6M
Jahre:    1J, 3J, 5J, 10J -1J -3J -5J -10J +1J +3J +5J +10J
Nutze für die Darstellung ... ?
Originaldaten oder Mittelwerte auf ...
Stundenbasis Tagesbasis Wochenbasis
Monatsbasis Jahresbasis      Datenbasis: Original-Daten
Darstellen als:
Statistik (Auto) Statistik J:M      Darstellung:
Zur Graphik,    zurück zur Übersicht aller Sensoren.
 
Tabellarische Datenbersicht: ?
 
Sensor: Nr:Datum:Temp:Feuchte:Taupunkt:
Aussen-T/F 1 28-07-2018 00:00:00 23.9 C 58 % 15.14 C
2 28-07-2018 00:05:00 23.7 C 59 % 15.21 C
3 28-07-2018 00:10:00 23.5 C 59 % 15.03 C
4 28-07-2018 00:15:00 23.3 C 59 % 14.84 C
5 28-07-2018 00:20:00 23.1 C 59 % 14.65 C
6 28-07-2018 00:25:00 23.1 C 60 % 14.91 C
7 28-07-2018 00:30:00 22.9 C 59 % 14.47 C
8 28-07-2018 00:35:00 22.8 C 61 % 14.89 C
9 28-07-2018 00:40:00 22.7 C 61 % 14.79 C
10 28-07-2018 00:45:00 22.5 C 63 % 15.11 C
11 28-07-2018 00:50:00 22.3 C 63 % 14.92 C
12 28-07-2018 00:55:00 22.2 C 63 % 14.82 C
13 28-07-2018 01:00:00 22.1 C 63 % 14.73 C
14 28-07-2018 01:05:00 21.9 C 64 % 14.78 C
15 28-07-2018 01:10:00 21.8 C 64 % 14.69 C
16 28-07-2018 01:15:00 21.8 C 64 % 14.69 C
17 28-07-2018 01:20:00 21.7 C 65 % 14.84 C
18 28-07-2018 01:25:00 21.6 C 66 % 14.98 C
19 28-07-2018 01:30:00 21.5 C 66 % 14.88 C
20 28-07-2018 01:35:00 21.4 C 66 % 14.79 C
21 28-07-2018 01:40:00 21.3 C 67 % 14.93 C
22 28-07-2018 01:45:00 21.3 C 68 % 15.16 C
23 28-07-2018 01:50:00 21.3 C 69 % 15.38 C
24 28-07-2018 01:55:00 21.3 C 70 % 15.61 C
25 28-07-2018 02:00:00 21.5 C 69 % 15.57 C
Sensor: Nr:Datum:Temp:Feuchte:Taupunkt:
Aussen-T/F 26 28-07-2018 02:05:00 21.6 C 69 % 15.67 C
27 28-07-2018 02:10:00 21.6 C 69 % 15.67 C
28 28-07-2018 02:15:00 21.5 C 69 % 15.57 C
29 28-07-2018 02:20:00 21.3 C 70 % 15.61 C
30 28-07-2018 02:25:00 21.2 C 70 % 15.51 C
31 28-07-2018 02:30:00 20.9 C 70 % 15.23 C
32 28-07-2018 02:35:00 20.8 C 71 % 15.35 C
33 28-07-2018 02:40:00 20.7 C 71 % 15.25 C
34 28-07-2018 02:45:00 20.4 C 71 % 14.97 C
35 28-07-2018 02:50:00 20.4 C 72 % 15.18 C
36 28-07-2018 02:55:00 20.3 C 72 % 15.09 C
37 28-07-2018 03:00:00 20.2 C 72 % 14.99 C
38 28-07-2018 03:05:00 20 C 73 % 15.01 C
39 28-07-2018 03:10:00 19.8 C 73 % 14.82 C
40 28-07-2018 03:15:00 19.7 C 74 % 14.94 C
41 28-07-2018 03:20:00 19.6 C 73 % 14.63 C
42 28-07-2018 03:25:00 19.6 C 74 % 14.84 C
43 28-07-2018 03:30:00 19.4 C 74 % 14.65 C
44 28-07-2018 03:35:00 19.4 C 74 % 14.65 C
45 28-07-2018 03:40:00 19.4 C 74 % 14.65 C
46 28-07-2018 03:45:00 19.6 C 74 % 14.84 C
47 28-07-2018 03:50:00 19.6 C 73 % 14.63 C
48 28-07-2018 03:55:00 19.5 C 73 % 14.53 C
49 28-07-2018 04:00:00 19.3 C 74 % 14.55 C
50 28-07-2018 04:05:00 19.2 C 74 % 14.46 C
Sensor: Nr:Datum:Temp:Feuchte:Taupunkt:
Aussen-T/F 51 28-07-2018 04:10:00 19 C 75 % 14.47 C
52 28-07-2018 04:15:00 18.8 C 76 % 14.48 C
53 28-07-2018 04:20:00 18.8 C 77 % 14.68 C
54 28-07-2018 04:25:00 18.7 C 77 % 14.59 C
55 28-07-2018 04:30:00 18.7 C 77 % 14.59 C
56 28-07-2018 04:35:00 18.7 C 77 % 14.59 C
57 28-07-2018 04:40:00 18.6 C 77 % 14.49 C
58 28-07-2018 04:45:00 18.4 C 77 % 14.3 C
59 28-07-2018 04:50:00 18.4 C 79 % 14.69 C
60 28-07-2018 04:55:00 18.6 C 78 % 14.69 C
61 28-07-2018 05:00:00 18.7 C 77 % 14.59 C
62 28-07-2018 05:05:00 18.9 C 77 % 14.78 C
63 28-07-2018 05:10:00 19 C 77 % 14.88 C
64 28-07-2018 05:15:00 19.1 C 76 % 14.77 C
65 28-07-2018 05:20:00 19.2 C 75 % 14.66 C
66 28-07-2018 05:25:00 19.3 C 75 % 14.76 C
67 28-07-2018 05:30:00 19.3 C 75 % 14.76 C
68 28-07-2018 05:35:00 19.2 C 75 % 14.66 C
69 28-07-2018 05:40:00 19 C 75 % 14.47 C
70 28-07-2018 05:45:00 18.8 C 76 % 14.48 C
71 28-07-2018 05:50:00 18.7 C 76 % 14.39 C
72 28-07-2018 05:55:00 18.6 C 77 % 14.49 C
73 28-07-2018 06:00:00 18.4 C 77 % 14.3 C
74 28-07-2018 06:05:00 18.3 C 78 % 14.4 C
75 28-07-2018 06:10:00 18.2 C 78 % 14.3 C
Sensor: Nr:Datum:Temp:Feuchte:Taupunkt:
Aussen-T/F 76 28-07-2018 06:15:00 18.2 C 78 % 14.3 C
77 28-07-2018 06:20:00 18.2 C 78 % 14.3 C
78 28-07-2018 06:25:00 18.3 C 78 % 14.4 C
79 28-07-2018 06:30:00 18.3 C 78 % 14.4 C
80 28-07-2018 06:35:00 18.4 C 79 % 14.69 C
81 28-07-2018 06:40:00 18.4 C 80 % 14.89 C
82 28-07-2018 06:45:00 18.6 C 79 % 14.89 C
83 28-07-2018 06:50:00 18.7 C 80 % 15.18 C
84 28-07-2018 06:55:00 18.8 C 80 % 15.28 C
85 28-07-2018 07:00:00 18.9 C 79 % 15.18 C
86 28-07-2018 07:05:00 19.1 C 79 % 15.37 C
87 28-07-2018 07:10:00 19.3 C 78 % 15.37 C
88 28-07-2018 07:15:00 19.5 C 77 % 15.36 C
89 28-07-2018 07:20:00 19.7 C 77 % 15.56 C
90 28-07-2018 07:25:00 19.8 C 78 % 15.85 C
91 28-07-2018 07:30:00 19.9 C 78 % 15.95 C
92 28-07-2018 07:35:00 20.1 C 77 % 15.94 C
93 28-07-2018 07:40:00 20.2 C 77 % 16.04 C
94 28-07-2018 07:45:00 20.3 C 77 % 16.14 C
95 28-07-2018 07:50:00 20.4 C 76 % 16.03 C
96 28-07-2018 07:55:00 20.6 C 81 % 17.22 C
97 28-07-2018 08:00:00 20.4 C 81 % 17.03 C
98 28-07-2018 08:05:00 20.2 C 82 % 17.03 C
99 28-07-2018 08:10:00 20 C 84 % 17.21 C
100 28-07-2018 08:15:00 19.9 C 84 % 17.12 C
Sensor: Nr:Datum:Temp:Feuchte:Taupunkt:
Aussen-T/F 101 28-07-2018 08:20:00 19.8 C 85 % 17.21 C
102 28-07-2018 08:25:00 19.7 C 85 % 17.11 C
103 28-07-2018 08:30:00 19.7 C 83 % 16.73 C
104 28-07-2018 08:35:00 19.7 C 83 % 16.73 C
105 28-07-2018 08:40:00 19.7 C 82 % 16.54 C
106 28-07-2018 08:45:00 19.8 C 82 % 16.64 C
107 28-07-2018 08:50:00 19.8 C 84 % 17.02 C
108 28-07-2018 08:55:00 19.8 C 83 % 16.83 C
109 28-07-2018 09:00:00 19.8 C 84 % 17.02 C
110 28-07-2018 09:05:00 19.8 C 84 % 17.02 C
111 28-07-2018 09:10:00 19.8 C 84 % 17.02 C
112 28-07-2018 09:15:00 19.7 C 84 % 16.92 C
113 28-07-2018 09:20:00 19.7 C 84 % 16.92 C
114 28-07-2018 09:25:00 19.7 C 85 % 17.11 C
115 28-07-2018 09:30:00 19.8 C 86 % 17.39 C
116 28-07-2018 09:35:00 19.8 C 87 % 17.57 C
117 28-07-2018 09:40:00 19.9 C 87 % 17.67 C
118 28-07-2018 09:45:00 19.9 C 88 % 17.85 C
119 28-07-2018 09:50:00 20.1 C 89 % 18.23 C
120 28-07-2018 09:55:00 20.2 C 90 % 18.51 C
121 28-07-2018 10:00:00 20.2 C 88 % 18.15 C
122 28-07-2018 10:05:00 20.3 C 88 % 18.25 C
123 28-07-2018 10:10:00 20.5 C 89 % 18.62 C
124 28-07-2018 10:15:00 20.6 C 87 % 18.36 C
125 28-07-2018 10:20:00 20.8 C 86 % 18.37 C
Sensor: Nr:Datum:Temp:Feuchte:Taupunkt:
Aussen-T/F 126 28-07-2018 10:25:00 20.9 C 85 % 18.28 C
127 28-07-2018 10:30:00 21 C 85 % 18.38 C
128 28-07-2018 10:35:00 21.2 C 86 % 18.76 C
129 28-07-2018 10:40:00 21.4 C 86 % 18.96 C
130 28-07-2018 10:45:00 21.5 C 84 % 18.68 C
131 28-07-2018 10:50:00 21.8 C 85 % 19.16 C
132 28-07-2018 10:55:00 22.1 C 81 % 18.69 C
133 28-07-2018 11:00:00 22.4 C 78 % 18.37 C
134 28-07-2018 11:05:00 22.8 C 76 % 18.35 C
135 28-07-2018 11:10:00 23.1 C 75 % 18.43 C
136 28-07-2018 11:15:00 23.3 C 70 % 17.52 C
137 28-07-2018 11:20:00 23.6 C 69 % 17.58 C
138 28-07-2018 11:25:00 23.7 C 68 % 17.44 C
139 28-07-2018 11:30:00 23.9 C 73 % 18.76 C
140 28-07-2018 11:35:00 24.1 C 74 % 19.17 C
141 28-07-2018 11:40:00 24.2 C 70 % 18.38 C
142 28-07-2018 11:45:00 24.3 C 68 % 18.01 C
143 28-07-2018 11:50:00 24.3 C 68 % 18.01 C
144 28-07-2018 11:55:00 24.4 C 68 % 18.11 C
145 28-07-2018 12:00:00 24.6 C 66 % 17.83 C
146 28-07-2018 12:05:00 24.8 C 68 % 18.49 C
147 28-07-2018 12:10:00 25.1 C 66 % 18.3 C
148 28-07-2018 12:15:00 25.3 C 66 % 18.49 C
149 28-07-2018 12:20:00 25.4 C 62 % 17.59 C
150 28-07-2018 12:25:00 25.6 C 62 % 17.78 C
Sensor: Nr:Datum:Temp:Feuchte:Taupunkt:
Aussen-T/F 151 28-07-2018 12:30:00 25.8 C 60 % 17.45 C
152 28-07-2018 12:35:00 26.1 C 61 % 17.99 C
153 28-07-2018 12:40:00 26.3 C 60 % 17.91 C
154 28-07-2018 12:45:00 26.6 C 59 % 17.93 C
155 28-07-2018 12:50:00 26.8 C 57 % 17.57 C
156 28-07-2018 12:55:00 27 C 55 % 17.19 C
157 28-07-2018 13:00:00 27.2 C 54 % 17.08 C
158 28-07-2018 13:05:00 27.3 C 55 % 17.47 C
159 28-07-2018 13:10:00 27.3 C 55 % 17.47 C
160 28-07-2018 13:15:00 27.4 C 55 % 17.56 C
161 28-07-2018 13:20:00 27.7 C 54 % 17.55 C
162 28-07-2018 13:25:00 27.9 C 54 % 17.73 C
163 28-07-2018 13:30:00 28.2 C 52 % 17.41 C
164 28-07-2018 13:35:00 28.2 C 52 % 17.41 C
165 28-07-2018 13:40:00 28.1 C 53 % 17.62 C
166 28-07-2018 13:45:00 28 C 53 % 17.53 C
167 28-07-2018 13:50:00 27.8 C 54 % 17.64 C
168 28-07-2018 13:55:00 27.8 C 54 % 17.64 C
169 28-07-2018 14:00:00 27.8 C 56 % 18.22 C
170 28-07-2018 14:05:00 28.2 C 57 % 18.87 C
171 28-07-2018 14:10:00 28.3 C 58 % 19.24 C
172 28-07-2018 14:15:00 28.2 C 58 % 19.15 C
173 28-07-2018 14:20:00 28.2 C 59 % 19.42 C
174 28-07-2018 14:25:00 28.3 C 58 % 19.24 C
175 28-07-2018 14:30:00 28.4 C 57 % 19.06 C
Sensor: Nr:Datum:Temp:Feuchte:Taupunkt:
Aussen-T/F 176 28-07-2018 14:35:00 28.4 C 56 % 18.77 C
177 28-07-2018 14:40:00 28.4 C 55 % 18.49 C
178 28-07-2018 14:45:00 27.9 C 58 % 18.87 C
179 28-07-2018 14:50:00 27.3 C 61 % 19.12 C
180 28-07-2018 14:55:00 26.8 C 60 % 18.38 C
181 28-07-2018 15:00:00 26.4 C 62 % 18.53 C
182 28-07-2018 15:05:00 26.3 C 62 % 18.44 C
183 28-07-2018 15:10:00 26.2 C 62 % 18.34 C
184 28-07-2018 15:15:00 26.1 C 62 % 18.25 C
185 28-07-2018 15:20:00 26.1 C 62 % 18.25 C
186 28-07-2018 15:25:00 26 C 62 % 18.15 C
187 28-07-2018 15:30:00 25.8 C 65 % 18.72 C
188 28-07-2018 15:35:00 25.5 C 75 % 20.74 C
189 28-07-2018 15:40:00 24.3 C 77 % 20.01 C
190 28-07-2018 15:45:00 23.1 C 79 % 19.26 C
191 28-07-2018 15:50:00 22.4 C 84 % 19.56 C
192 28-07-2018 15:55:00 22.2 C 87 % 19.93 C
193 28-07-2018 16:00:00 22.3 C 90 % 20.58 C
194 28-07-2018 16:05:00 22.7 C 92 % 21.33 C
195 28-07-2018 16:10:00 23.1 C 92 % 21.73 C
196 28-07-2018 16:15:00 23.2 C 91 % 21.65 C
197 28-07-2018 16:20:00 23.2 C 90 % 21.47 C
198 28-07-2018 16:25:00 23.1 C 89 % 21.19 C
199 28-07-2018 16:30:00 23 C 89 % 21.09 C
200 28-07-2018 16:35:00 22.9 C 89 % 20.99 C
Sensor: Nr:Datum:Temp:Feuchte:Taupunkt:
Aussen-T/F 201 28-07-2018 16:40:00 23.1 C 91 % 21.55 C
202 28-07-2018 16:45:00 23.2 C 91 % 21.65 C
203 28-07-2018 16:50:00 23.3 C 91 % 21.75 C
204 28-07-2018 16:55:00 23.3 C 91 % 21.75 C
205 28-07-2018 17:00:00 23.4 C 91 % 21.85 C
206 28-07-2018 17:05:00 23.5 C 91 % 21.94 C
207 28-07-2018 17:10:00 23.5 C 91 % 21.94 C
208 28-07-2018 17:15:00 23.6 C 91 % 22.04 C
209 28-07-2018 17:20:00 23.5 C 90 % 21.76 C
210 28-07-2018 17:25:00 23.4 C 90 % 21.66 C
211 28-07-2018 17:30:00 23.3 C 90 % 21.57 C
212 28-07-2018 17:35:00 23.2 C 90 % 21.47 C
213 28-07-2018 17:40:00 23.3 C 91 % 21.75 C
214 28-07-2018 17:45:00 23.5 C 92 % 22.12 C
215 28-07-2018 17:50:00 23.5 C 90 % 21.76 C
216 28-07-2018 17:55:00 23.3 C 89 % 21.38 C
217 28-07-2018 18:00:00 23 C 88 % 20.9 C
218 28-07-2018 18:05:00 22.8 C 89 % 20.89 C
219 28-07-2018 18:10:00 22.7 C 90 % 20.97 C
220 28-07-2018 18:15:00 22.6 C 90 % 20.87 C
221 28-07-2018 18:20:00 22.4 C 90 % 20.68 C
222 28-07-2018 18:25:00 22.6 C 91 % 21.05 C
223 28-07-2018 18:30:00 22.8 C 92 % 21.43 C
224 28-07-2018 18:35:00 23.1 C 92 % 21.73 C
225 28-07-2018 18:40:00 23.2 C 92 % 21.83 C
Sensor: Nr:Datum:Temp:Feuchte:Taupunkt:
Aussen-T/F 226 28-07-2018 18:45:00 23.3 C 91 % 21.75 C
227 28-07-2018 18:50:00 23.4 C 89 % 21.48 C
228 28-07-2018 18:55:00 23.8 C 86 % 21.31 C
229 28-07-2018 19:00:00 23.9 C 85 % 21.22 C
230 28-07-2018 19:05:00 23.6 C 81 % 20.15 C
231 28-07-2018 19:10:00 23.3 C 82 % 20.05 C
232 28-07-2018 19:15:00 23 C 81 % 19.56 C
233 28-07-2018 19:20:00 22.7 C 82 % 19.47 C
234 28-07-2018 19:25:00 22.6 C 83 % 19.56 C
235 28-07-2018 19:30:00 22.3 C 83 % 19.27 C
236 28-07-2018 19:35:00 22.3 C 83 % 19.27 C
237 28-07-2018 19:40:00 22.2 C 84 % 19.37 C
238 28-07-2018 19:45:00 22.2 C 86 % 19.75 C
239 28-07-2018 19:50:00 22.2 C 87 % 19.93 C
240 28-07-2018 19:55:00 22.2 C 87 % 19.93 C
241 28-07-2018 20:00:00 22.1 C 85 % 19.46 C
242 28-07-2018 20:05:00 22 C 86 % 19.55 C
243 28-07-2018 20:10:00 21.9 C 85 % 19.26 C
244 28-07-2018 20:15:00 21.8 C 85 % 19.16 C
245 28-07-2018 20:20:00 21.7 C 85 % 19.07 C
246 28-07-2018 20:25:00 21.7 C 85 % 19.07 C
247 28-07-2018 20:30:00 21.8 C 86 % 19.35 C
248 28-07-2018 20:35:00 21.8 C 86 % 19.35 C
249 28-07-2018 20:40:00 21.9 C 85 % 19.26 C
250 28-07-2018 20:45:00 21.9 C 84 % 19.07 C
Sensor: Nr:Datum:Temp:Feuchte:Taupunkt:
Aussen-T/F 251 28-07-2018 20:50:00 21.9 C 83 % 18.88 C
252 28-07-2018 20:55:00 21.9 C 84 % 19.07 C
253 28-07-2018 21:00:00 21.9 C 84 % 19.07 C
254 28-07-2018 21:05:00 21.7 C 81 % 18.3 C
255 28-07-2018 21:10:00 21.7 C 81 % 18.3 C
256 28-07-2018 21:15:00 21.6 C 82 % 18.39 C
257 28-07-2018 21:20:00 21.4 C 80 % 17.81 C
258 28-07-2018 21:25:00 21.3 C 81 % 17.91 C
259 28-07-2018 21:30:00 21.2 C 81 % 17.81 C
260 28-07-2018 21:35:00 21 C 81 % 17.61 C
261 28-07-2018 21:40:00 20.8 C 79 % 17.02 C
262 28-07-2018 21:45:00 20.7 C 79 % 16.93 C
263 28-07-2018 21:50:00 20.6 C 80 % 17.03 C
264 28-07-2018 21:55:00 20.5 C 81 % 17.13 C
265 28-07-2018 22:00:00 20.4 C 80 % 16.83 C
266 28-07-2018 22:05:00 20.3 C 79 % 16.54 C
267 28-07-2018 22:10:00 20.3 C 80 % 16.74 C
268 28-07-2018 22:15:00 20.3 C 82 % 17.13 C
269 28-07-2018 22:20:00 20.2 C 82 % 17.03 C
270 28-07-2018 22:25:00 20.1 C 81 % 16.74 C
271 28-07-2018 22:30:00 19.9 C 82 % 16.74 C
272 28-07-2018 22:35:00 19.9 C 83 % 16.93 C
273 28-07-2018 22:40:00 19.8 C 84 % 17.02 C
274 28-07-2018 22:45:00 19.8 C 83 % 16.83 C
275 28-07-2018 22:50:00 19.8 C 82 % 16.64 C
Sensor: Nr:Datum:Temp:Feuchte:Taupunkt:
Aussen-T/F 276 28-07-2018 22:55:00 19.8 C 83 % 16.83 C
277 28-07-2018 23:00:00 19.7 C 82 % 16.54 C
278 28-07-2018 23:05:00 19.7 C 83 % 16.73 C
279 28-07-2018 23:10:00 19.7 C 83 % 16.73 C
280 28-07-2018 23:15:00 19.9 C 81 % 16.54 C
281 28-07-2018 23:20:00 20.2 C 83 % 17.22 C
282 28-07-2018 23:25:00 20.2 C 81 % 16.84 C
283 28-07-2018 23:30:00 20.2 C 82 % 17.03 C
284 28-07-2018 23:35:00 20.2 C 84 % 17.41 C
285 28-07-2018 23:40:00 20.1 C 83 % 17.12 C
286 28-07-2018 23:45:00 20.1 C 83 % 17.12 C
287 28-07-2018 23:50:00 20 C 84 % 17.21 C
288 28-07-2018 23:55:00 19.9 C 84 % 17.12 C
289 29-07-2018 00:00:00 19.8 C 84 % 17.02 C
290 29-07-2018 00:05:00 19.8 C 85 % 17.21 C
291 29-07-2018 00:10:00 19.7 C 85 % 17.11 C
292 29-07-2018 00:15:00 19.6 C 84 % 16.82 C
293 29-07-2018 00:20:00 19.4 C 85 % 16.81 C
294 29-07-2018 00:25:00 19.3 C 85 % 16.72 C
295 29-07-2018 00:30:00 19.3 C 85 % 16.72 C
296 29-07-2018 00:35:00 19.2 C 86 % 16.8 C
297 29-07-2018 00:40:00 19.2 C 87 % 16.98 C
298 29-07-2018 00:45:00 19.2 C 87 % 16.98 C
299 29-07-2018 00:50:00 19.1 C 87 % 16.89 C
300 29-07-2018 00:55:00 19.1 C 87 % 16.89 C
Sensor: Nr:Datum:Temp:Feuchte:Taupunkt:
Aussen-T/F 301 29-07-2018 01:00:00 19 C 87 % 16.79 C
302 29-07-2018 01:05:00 18.9 C 88 % 16.87 C
303 29-07-2018 01:10:00 18.8 C 88 % 16.77 C
304 29-07-2018 01:15:00 18.7 C 88 % 16.67 C
305 29-07-2018 01:20:00 18.7 C 88 % 16.67 C
306 29-07-2018 01:25:00 18.5 C 88 % 16.48 C
307 29-07-2018 01:30:00 18.4 C 88 % 16.38 C
308 29-07-2018 01:35:00 18.3 C 88 % 16.28 C
309 29-07-2018 01:40:00 18.2 C 88 % 16.18 C
310 29-07-2018 01:45:00 18.1 C 88 % 16.08 C
311 29-07-2018 01:50:00 18 C 88 % 15.98 C
312 29-07-2018 01:55:00 17.9 C 88 % 15.88 C
313 29-07-2018 02:00:00 17.9 C 88 % 15.88 C
314 29-07-2018 02:05:00 17.9 C 87 % 15.71 C
315 29-07-2018 02:10:00 17.9 C 88 % 15.88 C
316 29-07-2018 02:15:00 17.9 C 88 % 15.88 C
317 29-07-2018 02:20:00 17.8 C 87 % 15.61 C
318 29-07-2018 02:25:00 17.8 C 87 % 15.61 C
319 29-07-2018 02:30:00 17.7 C 88 % 15.69 C
320 29-07-2018 02:35:00 17.6 C 87 % 15.41 C
321 29-07-2018 02:40:00 17.5 C 87 % 15.31 C
322 29-07-2018 02:45:00 17.5 C 88 % 15.49 C
323 29-07-2018 02:50:00 17.4 C 88 % 15.39 C
324 29-07-2018 02:55:00 17.4 C 88 % 15.39 C
325 29-07-2018 03:00:00 17.3 C 88 % 15.29 C
Sensor: Nr:Datum:Temp:Feuchte:Taupunkt:
Aussen-T/F 326 29-07-2018 03:05:00 17.2 C 88 % 15.2 C
327 29-07-2018 03:10:00 17.2 C 89 % 15.37 C
328 29-07-2018 03:15:00 17.2 C 89 % 15.37 C
329 29-07-2018 03:20:00 17.1 C 88 % 15.1 C
330 29-07-2018 03:25:00 17 C 89 % 15.17 C
331 29-07-2018 03:30:00 17 C 89 % 15.17 C
332 29-07-2018 03:35:00 16.9 C 89 % 15.08 C
333 29-07-2018 03:40:00 16.9 C 89 % 15.08 C
334 29-07-2018 03:45:00 16.8 C 89 % 14.98 C
335 29-07-2018 03:50:00 16.7 C 88 % 14.7 C
336 29-07-2018 03:55:00 16.6 C 89 % 14.78 C
337 29-07-2018 04:00:00 16.5 C 88 % 14.51 C
338 29-07-2018 04:05:00 16.4 C 89 % 14.58 C
339 29-07-2018 04:10:00 16.4 C 89 % 14.58 C
340 29-07-2018 04:15:00 16.4 C 89 % 14.58 C
341 29-07-2018 04:20:00 16.4 C 89 % 14.58 C
342 29-07-2018 04:25:00 16.3 C 88 % 14.31 C
343 29-07-2018 04:30:00 16.3 C 89 % 14.48 C
344 29-07-2018 04:35:00 16.4 C 89 % 14.58 C
345 29-07-2018 04:40:00 16.4 C 89 % 14.58 C
346 29-07-2018 04:45:00 16.4 C 89 % 14.58 C
347 29-07-2018 04:50:00 16.4 C 89 % 14.58 C
348 29-07-2018 04:55:00 16.4 C 89 % 14.58 C
349 29-07-2018 05:00:00 16.5 C 89 % 14.68 C
350 29-07-2018 05:05:00 16.6 C 89 % 14.78 C
Sensor: Nr:Datum:Temp:Feuchte:Taupunkt:
Aussen-T/F 351 29-07-2018 05:10:00 16.6 C 89 % 14.78 C
352 29-07-2018 05:15:00 16.6 C 89 % 14.78 C
353 29-07-2018 05:20:00 16.7 C 90 % 15.05 C
354 29-07-2018 05:25:00 16.7 C 89 % 14.88 C
355 29-07-2018 05:30:00 16.7 C 89 % 14.88 C
356 29-07-2018 05:35:00 16.7 C 89 % 14.88 C
357 29-07-2018 05:40:00 16.7 C 90 % 15.05 C
358 29-07-2018 05:45:00 16.7 C 89 % 14.88 C
359 29-07-2018 05:50:00 16.7 C 90 % 15.05 C
360 29-07-2018 05:55:00 16.7 C 90 % 15.05 C
361 29-07-2018 06:00:00 16.7 C 90 % 15.05 C
362 29-07-2018 06:05:00 16.6 C 89 % 14.78 C
363 29-07-2018 06:10:00 16.6 C 90 % 14.95 C
364 29-07-2018 06:15:00 16.6 C 90 % 14.95 C
365 29-07-2018 06:20:00 16.6 C 90 % 14.95 C
366 29-07-2018 06:25:00 16.6 C 90 % 14.95 C
367 29-07-2018 06:30:00 16.7 C 90 % 15.05 C
368 29-07-2018 06:35:00 16.7 C 90 % 15.05 C
369 29-07-2018 06:40:00 16.8 C 90 % 15.15 C
370 29-07-2018 06:45:00 16.8 C 89 % 14.98 C
371 29-07-2018 06:50:00 16.9 C 89 % 15.08 C
372 29-07-2018 06:55:00 16.9 C 89 % 15.08 C
373 29-07-2018 07:00:00 17 C 90 % 15.35 C
374 29-07-2018 07:05:00 17.1 C 90 % 15.45 C
375 29-07-2018 07:10:00 17.1 C 90 % 15.45 C
Sensor: Nr:Datum:Temp:Feuchte:Taupunkt:
Aussen-T/F 376 29-07-2018 07:15:00 17.2 C 90 % 15.55 C
377 29-07-2018 07:20:00 17.2 C 90 % 15.55 C
378 29-07-2018 07:25:00 17.3 C 90 % 15.64 C
379 29-07-2018 07:30:00 17.3 C 90 % 15.64 C
380 29-07-2018 07:35:00 17.4 C 90 % 15.74 C
381 29-07-2018 07:40:00 17.4 C 90 % 15.74 C
382 29-07-2018 07:45:00 17.5 C 90 % 15.84 C
383 29-07-2018 07:50:00 17.6 C 90 % 15.94 C
384 29-07-2018 07:55:00 17.7 C 89 % 15.86 C
385 29-07-2018 08:00:00 17.7 C 89 % 15.86 C
386 29-07-2018 08:05:00 17.8 C 89 % 15.96 C
387 29-07-2018 08:10:00 17.9 C 89 % 16.06 C
388 29-07-2018 08:15:00 18 C 89 % 16.16 C
389 29-07-2018 08:20:00 18 C 89 % 16.16 C
390 29-07-2018 08:25:00 18 C 88 % 15.98 C
391 29-07-2018 08:30:00 17.9 C 88 % 15.88 C
392 29-07-2018 08:35:00 18 C 88 % 15.98 C
393 29-07-2018 08:40:00 18 C 88 % 15.98 C
394 29-07-2018 08:45:00 18.1 C 88 % 16.08 C
395 29-07-2018 08:50:00 18.3 C 88 % 16.28 C
396 29-07-2018 08:55:00 18.4 C 89 % 16.55 C
397 29-07-2018 09:00:00 18.7 C 88 % 16.67 C
398 29-07-2018 09:05:00 18.9 C 86 % 16.51 C
399 29-07-2018 09:10:00 19.2 C 86 % 16.8 C
400 29-07-2018 09:15:00 19.6 C 85 % 17.01 C
Sensor: Nr:Datum:Temp:Feuchte:Taupunkt:
Aussen-T/F 401 29-07-2018 09:20:00 19.8 C 85 % 17.21 C
402 29-07-2018 09:25:00 20.1 C 83 % 17.12 C
403 29-07-2018 09:30:00 20.4 C 82 % 17.22 C
404 29-07-2018 09:35:00 20.7 C 80 % 17.13 C
405 29-07-2018 09:40:00 21 C 81 % 17.61 C
406 29-07-2018 09:45:00 21.3 C 80 % 17.71 C
407 29-07-2018 09:50:00 21.6 C 78 % 17.6 C
408 29-07-2018 09:55:00 21.8 C 76 % 17.38 C
409 29-07-2018 10:00:00 22.1 C 72 % 16.82 C
410 29-07-2018 10:05:00 22.3 C 72 % 17.01 C
411 29-07-2018 10:10:00 22.6 C 67 % 16.16 C
412 29-07-2018 10:15:00 22.9 C 74 % 18.02 C
413 29-07-2018 10:20:00 22.9 C 69 % 16.91 C
414 29-07-2018 10:25:00 23.1 C 66 % 16.4 C
415 29-07-2018 10:30:00 23.4 C 70 % 17.62 C
416 29-07-2018 10:35:00 23.6 C 64 % 16.39 C
417 29-07-2018 10:40:00 23.8 C 61 % 15.83 C
418 29-07-2018 10:45:00 24.1 C 65 % 17.11 C
419 29-07-2018 10:50:00 24.3 C 63 % 16.81 C
420 29-07-2018 10:55:00 24.4 C 60 % 16.13 C
421 29-07-2018 11:00:00 24.5 C 60 % 16.23 C
422 29-07-2018 11:05:00 24.5 C 59 % 15.96 C
423 29-07-2018 11:10:00 24.6 C 59 % 16.06 C
424 29-07-2018 11:15:00 24.7 C 59 % 16.15 C
425 29-07-2018 11:20:00 24.8 C 61 % 16.77 C
Sensor: Nr:Datum:Temp:Feuchte:Taupunkt:
Aussen-T/F 426 29-07-2018 11:25:00 25 C 56 % 15.61 C
427 29-07-2018 11:30:00 25.2 C 57 % 16.08 C
428 29-07-2018 11:35:00 25.4 C 56 % 15.99 C
429 29-07-2018 11:40:00 25.7 C 57 % 16.54 C
430 29-07-2018 11:45:00 25.8 C 55 % 16.07 C
431 29-07-2018 11:50:00 26 C 57 % 16.82 C
432 29-07-2018 11:55:00 26.3 C 54 % 16.25 C
433 29-07-2018 12:00:00 26.5 C 56 % 17.01 C
434 29-07-2018 12:05:00 26.7 C 54 % 16.62 C
435 29-07-2018 12:10:00 26.9 C 52 % 16.21 C
436 29-07-2018 12:15:00 27.1 C 53 % 16.7 C
437 29-07-2018 12:20:00 27.2 C 49 % 15.56 C
438 29-07-2018 12:25:00 27.2 C 50 % 15.87 C
439 29-07-2018 12:30:00 27.2 C 50 % 15.87 C
440 29-07-2018 12:35:00 27.2 C 49 % 15.56 C
441 29-07-2018 12:40:00 27.3 C 49 % 15.65 C
442 29-07-2018 12:45:00 27.3 C 48 % 15.33 C
443 29-07-2018 12:50:00 27.2 C 47 % 14.91 C
444 29-07-2018 12:55:00 27.2 C 49 % 15.56 C
445 29-07-2018 13:00:00 27.3 C 47 % 15 C
446 29-07-2018 13:05:00 27.4 C 49 % 15.74 C
447 29-07-2018 13:10:00 27.5 C 45 % 14.51 C
448 29-07-2018 13:15:00 27.6 C 46 % 14.94 C
449 29-07-2018 13:20:00 27.6 C 46 % 14.94 C
450 29-07-2018 13:25:00 27.8 C 48 % 15.78 C
Sensor: Nr:Datum:Temp:Feuchte:Taupunkt:
Aussen-T/F 451 29-07-2018 13:30:00 27.8 C 46 % 15.12 C
452 29-07-2018 13:35:00 28 C 49 % 16.29 C
453 29-07-2018 13:40:00 28.1 C 47 % 15.73 C
454 29-07-2018 13:45:00 28.1 C 47 % 15.73 C
455 29-07-2018 13:50:00 28.1 C 46 % 15.39 C
456 29-07-2018 13:55:00 28.1 C 47 % 15.73 C
457 29-07-2018 14:00:00 28.3 C 47 % 15.91 C
458 29-07-2018 14:05:00 28.5 C 48 % 16.42 C
459 29-07-2018 14:10:00 28.6 C 46 % 15.85 C
460 29-07-2018 14:15:00 28.6 C 47 % 16.18 C
461 29-07-2018 14:20:00 28.7 C 47 % 16.27 C
462 29-07-2018 14:25:00 28.7 C 47 % 16.27 C
463 29-07-2018 14:30:00 28.6 C 49 % 16.84 C
464 29-07-2018 14:35:00 28.7 C 47 % 16.27 C
465 29-07-2018 14:40:00 28.7 C 46 % 15.94 C
466 29-07-2018 14:45:00 28.8 C 46 % 16.03 C
467 29-07-2018 14:50:00 28.7 C 45 % 15.59 C
468 29-07-2018 14:55:00 28.8 C 47 % 16.36 C
469 29-07-2018 15:00:00 28.9 C 46 % 16.12 C
470 29-07-2018 15:05:00 29.2 C 44 % 15.69 C
471 29-07-2018 15:10:00 29.4 C 43 % 15.51 C
472 29-07-2018 15:15:00 29.5 C 42 % 15.24 C
473 29-07-2018 15:20:00 29.5 C 44 % 15.96 C
474 29-07-2018 15:25:00 29.6 C 44 % 16.05 C
475 29-07-2018 15:30:00 29.8 C 42 % 15.51 C
Sensor: Nr:Datum:Temp:Feuchte:Taupunkt:
Aussen-T/F 476 29-07-2018 15:35:00 30 C 42 % 15.69 C
477 29-07-2018 15:40:00 30.2 C 41 % 15.49 C
478 29-07-2018 15:45:00 30.3 C 41 % 15.58 C
479 29-07-2018 15:50:00 30.4 C 39 % 14.89 C
480 29-07-2018 15:55:00 30.8 C 40 % 15.64 C
481 29-07-2018 16:00:00 30.9 C 38 % 14.93 C
482 29-07-2018 16:05:00 30.8 C 41 % 16.02 C
483 29-07-2018 16:10:00 30.7 C 38 % 14.75 C
484 29-07-2018 16:15:00 30.8 C 39 % 15.24 C
485 29-07-2018 16:20:00 31 C 37 % 14.6 C
486 29-07-2018 16:25:00 31.1 C 38 % 15.1 C
487 29-07-2018 16:30:00 31 C 36 % 14.18 C
488 29-07-2018 16:35:00 31.2 C 37 % 14.78 C
489 29-07-2018 16:40:00 31.4 C 37 % 14.96 C
490 29-07-2018 16:45:00 31.6 C 36 % 14.71 C
491 29-07-2018 16:50:00 31.6 C 36 % 14.71 C
492 29-07-2018 16:55:00 31.6 C 39 % 15.95 C
493 29-07-2018 17:00:00 31.7 C 36 % 14.79 C
494 29-07-2018 17:05:00 31.8 C 38 % 15.72 C
495 29-07-2018 17:10:00 32.2 C 35 % 14.8 C
496 29-07-2018 17:15:00 32.1 C 34 % 14.26 C
497 29-07-2018 17:20:00 31.4 C 36 % 14.53 C
498 29-07-2018 17:25:00 31.1 C 36 % 14.27 C
499 29-07-2018 17:30:00 30.9 C 39 % 15.33 C
500 29-07-2018 17:35:00 31.1 C 38 % 15.1 C
Sensor: Nr:Datum:Temp:Feuchte:Taupunkt:
Aussen-T/F 501 29-07-2018 17:40:00 31.8 C 36 % 14.88 C
502 29-07-2018 17:45:00 32.4 C 35 % 14.97 C
503 29-07-2018 17:50:00 32.6 C 35 % 15.15 C
504 29-07-2018 17:55:00 32.4 C 35 % 14.97 C
505 29-07-2018 18:00:00 32.3 C 36 % 15.32 C
506 29-07-2018 18:05:00 32.3 C 37 % 15.75 C
507 29-07-2018 18:10:00 32.4 C 35 % 14.97 C
508 29-07-2018 18:15:00 32.6 C 35 % 15.15 C
509 29-07-2018 18:20:00 32.7 C 36 % 15.67 C
510 29-07-2018 18:25:00 32.7 C 34 % 14.78 C
511 29-07-2018 18:30:00 32.7 C 35 % 15.23 C
512 29-07-2018 18:35:00 32.8 C 35 % 15.32 C
513 29-07-2018 18:40:00 32.9 C 35 % 15.41 C
514 29-07-2018 18:45:00 32.8 C 36 % 15.76 C
515 29-07-2018 18:50:00 32.7 C 36 % 15.67 C
516 29-07-2018 18:55:00 32.7 C 35 % 15.23 C
517 29-07-2018 19:00:00 32.6 C 37 % 16.01 C
518 29-07-2018 19:05:00 32.5 C 37 % 15.92 C
519 29-07-2018 19:10:00 32.2 C 37 % 15.66 C
520 29-07-2018 19:15:00 31.8 C 40 % 16.53 C
521 29-07-2018 19:20:00 31.4 C 38 % 15.37 C
522 29-07-2018 19:25:00 31.2 C 39 % 15.6 C
523 29-07-2018 19:30:00 31.1 C 39 % 15.51 C
524 29-07-2018 19:35:00 31 C 40 % 15.82 C
525 29-07-2018 19:40:00 31.1 C 39 % 15.51 C
Sensor: Nr:Datum:Temp:Feuchte:Taupunkt:
Aussen-T/F 526 29-07-2018 19:45:00 31.1 C 41 % 16.29 C
527 29-07-2018 19:50:00 31.2 C 42 % 16.76 C
528 29-07-2018 19:55:00 31.3 C 43 % 17.22 C
529 29-07-2018 20:00:00 31.2 C 42 % 16.76 C
530 29-07-2018 20:05:00 31.1 C 46 % 18.11 C
531 29-07-2018 20:10:00 30.8 C 46 % 17.84 C
532 29-07-2018 20:15:00 30.5 C 47 % 17.91 C
533 29-07-2018 20:20:00 30.1 C 49 % 18.21 C
534 29-07-2018 20:25:00 29.7 C 49 % 17.84 C
535 29-07-2018 20:30:00 29.3 C 51 % 18.11 C
536 29-07-2018 20:35:00 28.9 C 51 % 17.74 C
537 29-07-2018 20:40:00 28.5 C 53 % 17.99 C
538 29-07-2018 20:45:00 28.1 C 52 % 17.32 C
539 29-07-2018 20:50:00 27.7 C 54 % 17.55 C
540 29-07-2018 20:55:00 27.3 C 52 % 16.58 C
541 29-07-2018 21:00:00 26.8 C 53 % 16.42 C
542 29-07-2018 21:05:00 26.4 C 54 % 16.34 C
543 29-07-2018 21:10:00 26.1 C 57 % 16.92 C
544 29-07-2018 21:15:00 25.7 C 57 % 16.54 C
545 29-07-2018 21:20:00 25.4 C 58 % 16.54 C
546 29-07-2018 21:25:00 25.1 C 59 % 16.52 C
547 29-07-2018 21:30:00 24.8 C 60 % 16.51 C
548 29-07-2018 21:35:00 24.4 C 62 % 16.65 C
549 29-07-2018 21:40:00 24.2 C 62 % 16.46 C
550 29-07-2018 21:45:00 23.9 C 63 % 16.43 C
Sensor: Nr:Datum:Temp:Feuchte:Taupunkt:
Aussen-T/F 551 29-07-2018 21:50:00 23.7 C 63 % 16.24 C
552 29-07-2018 21:55:00 23.4 C 64 % 16.2 C
553 29-07-2018 22:00:00 23.2 C 65 % 16.26 C
554 29-07-2018 22:05:00 23 C 66 % 16.31 C
555 29-07-2018 22:10:00 22.8 C 68 % 16.59 C
556 29-07-2018 22:15:00 22.7 C 68 % 16.49 C
557 29-07-2018 22:20:00 22.4 C 67 % 15.97 C
558 29-07-2018 22:25:00 22.3 C 68 % 16.11 C
559 29-07-2018 22:30:00 22.2 C 67 % 15.78 C
560 29-07-2018 22:35:00 22 C 67 % 15.59 C
561 29-07-2018 22:40:00 21.8 C 68 % 15.63 C
562 29-07-2018 22:45:00 21.7 C 68 % 15.54 C
563 29-07-2018 22:50:00 21.6 C 68 % 15.44 C
564 29-07-2018 22:55:00 21.5 C 68 % 15.35 C
565 29-07-2018 23:00:00 21.3 C 69 % 15.38 C
566 29-07-2018 23:05:00 21.2 C 70 % 15.51 C
567 29-07-2018 23:10:00 21.1 C 70 % 15.42 C
568 29-07-2018 23:15:00 21 C 69 % 15.1 C
569 29-07-2018 23:20:00 20.9 C 70 % 15.23 C
570 29-07-2018 23:25:00 20.8 C 71 % 15.35 C
571 29-07-2018 23:30:00 20.7 C 72 % 15.47 C
572 29-07-2018 23:35:00 20.5 C 72 % 15.28 C
573 29-07-2018 23:40:00 20.3 C 73 % 15.3 C
574 29-07-2018 23:45:00 20.1 C 72 % 14.9 C
575 29-07-2018 23:50:00 20 C 73 % 15.01 C
Sensor: Nr:Datum:Temp:Feuchte:Taupunkt:
Aussen-T/F 576 29-07-2018 23:55:00 19.8 C 72 % 14.61 C
577 30-07-2018 00:00:00 19.8 C 73 % 14.82 C
578 30-07-2018 00:05:00 19.7 C 75 % 15.15 C
579 30-07-2018 00:10:00 19.6 C 75 % 15.05 C
580 30-07-2018 00:15:00 19.5 C 75 % 14.95 C
581 30-07-2018 00:20:00 19.4 C 75 % 14.86 C
582 30-07-2018 00:25:00 19.3 C 75 % 14.76 C
583 30-07-2018 00:30:00 19.2 C 75 % 14.66 C
584 30-07-2018 00:35:00 19.2 C 73 % 14.25 C
585 30-07-2018 00:40:00 19.2 C 73 % 14.25 C
586 30-07-2018 00:45:00 19.2 C 74 % 14.46 C
587 30-07-2018 00:50:00 19.2 C 75 % 14.66 C
588 30-07-2018 00:55:00 19.2 C 75 % 14.66 C
589 30-07-2018 01:00:00 19.2 C 75 % 14.66 C
590 30-07-2018 01:05:00 19.2 C 76 % 14.87 C
591 30-07-2018 01:10:00 19.2 C 77 % 15.07 C
592 30-07-2018 01:15:00 19.1 C 74 % 14.36 C
593 30-07-2018 01:20:00 19.2 C 77 % 15.07 C
594 30-07-2018 01:25:00 19.2 C 75 % 14.66 C
595 30-07-2018 01:30:00 19.1 C 76 % 14.77 C
596 30-07-2018 01:35:00 19 C 76 % 14.68 C
597 30-07-2018 01:40:00 18.9 C 76 % 14.58 C
598 30-07-2018 01:45:00 18.8 C 74 % 14.07 C
599 30-07-2018 01:50:00 18.7 C 76 % 14.39 C
600 30-07-2018 01:55:00 18.7 C 77 % 14.59 C
Sensor: Nr:Datum:Temp:Feuchte:Taupunkt:
Aussen-T/F 601 30-07-2018 02:00:00 18.5 C 77 % 14.39 C
602 30-07-2018 02:05:00 18.4 C 78 % 14.5 C
603 30-07-2018 02:10:00 18.3 C 78 % 14.4 C
604 30-07-2018 02:15:00 18.3 C 78 % 14.4 C
605 30-07-2018 02:20:00 18.3 C 79 % 14.6 C
606 30-07-2018 02:25:00 18.2 C 79 % 14.5 C
607 30-07-2018 02:30:00 18.2 C 78 % 14.3 C
608 30-07-2018 02:35:00 18.1 C 79 % 14.4 C
609 30-07-2018 02:40:00 18.1 C 79 % 14.4 C
610 30-07-2018 02:45:00 18 C 80 % 14.5 C
611 30-07-2018 02:50:00 17.9 C 80 % 14.4 C
612 30-07-2018 02:55:00 17.9 C 81 % 14.59 C
613 30-07-2018 03:00:00 17.8 C 81 % 14.5 C
614 30-07-2018 03:05:00 17.8 C 81 % 14.5 C
615 30-07-2018 03:10:00 17.8 C 81 % 14.5 C
616 30-07-2018 03:15:00 17.8 C 81 % 14.5 C
617 30-07-2018 03:20:00 17.8 C 81 % 14.5 C
618 30-07-2018 03:25:00 17.8 C 81 % 14.5 C
619 30-07-2018 03:30:00 17.7 C 81 % 14.4 C
620 30-07-2018 03:35:00 17.7 C 81 % 14.4 C
621 30-07-2018 03:40:00 17.6 C 81 % 14.3 C
622 30-07-2018 03:45:00 17.5 C 81 % 14.2 C
623 30-07-2018 03:50:00 17.4 C 82 % 14.3 C
624 30-07-2018 03:55:00 17.3 C 82 % 14.2 C
625 30-07-2018 04:00:00 17.2 C 82 % 14.1 C
Sensor: Nr:Datum:Temp:Feuchte:Taupunkt:
Aussen-T/F 626 30-07-2018 04:05:00 17.3 C 82 % 14.2 C
627 30-07-2018 04:10:00 17.3 C 82 % 14.2 C
628 30-07-2018 04:15:00 17.4 C 82 % 14.3 C
629 30-07-2018 04:20:00 17.4 C 82 % 14.3 C
630 30-07-2018 04:25:00 17.3 C 82 % 14.2 C
631 30-07-2018 04:30:00 17.2 C 82 % 14.1 C
632 30-07-2018 04:35:00 17.1 C 83 % 14.19 C
633 30-07-2018 04:40:00 17.1 C 83 % 14.19 C
634 30-07-2018 04:45:00 16.9 C 83 % 14 C
635 30-07-2018 04:50:00 16.9 C 83 % 14 C
636 30-07-2018 04:55:00 16.8 C 83 % 13.9 C
637 30-07-2018 05:00:00 16.7 C 82 % 13.61 C
638 30-07-2018 05:05:00 16.6 C 83 % 13.7 C
639 30-07-2018 05:10:00 16.6 C 83 % 13.7 C
640 30-07-2018 05:15:00 16.4 C 83 % 13.51 C
641 30-07-2018 05:20:00 16.4 C 84 % 13.69 C
642 30-07-2018 05:25:00 16.3 C 84 % 13.59 C
643 30-07-2018 05:30:00 16.3 C 84 % 13.59 C
644 30-07-2018 05:35:00 16.2 C 85 % 13.68 C
645 30-07-2018 05:40:00 16.2 C 85 % 13.68 C
646 30-07-2018 05:45:00 16.2 C 85 % 13.68 C
647 30-07-2018 05:50:00 16.1 C 85 % 13.58 C
648 30-07-2018 05:55:00 16 C 86 % 13.66 C
649 30-07-2018 06:00:00 16 C 86 % 13.66 C
650 30-07-2018 06:05:00 16.1 C 86 % 13.76 C
Sensor: Nr:Datum:Temp:Feuchte:Taupunkt:
Aussen-T/F 651 30-07-2018 06:10:00 16.1 C 86 % 13.76 C
652 30-07-2018 06:15:00 16.1 C 86 % 13.76 C
653 30-07-2018 06:20:00 16.1 C 86 % 13.76 C
654 30-07-2018 06:25:00 16.1 C 86 % 13.76 C
655 30-07-2018 06:30:00 16.1 C 86 % 13.76 C
656 30-07-2018 06:35:00 16.2 C 87 % 14.03 C
657 30-07-2018 06:40:00 16.3 C 87 % 14.13 C
658 30-07-2018 06:45:00 16.4 C 87 % 14.23 C
659 30-07-2018 06:50:00 16.5 C 87 % 14.33 C
660 30-07-2018 06:55:00 16.7 C 87 % 14.53 C
661 30-07-2018 07:00:00 16.8 C 86 % 14.45 C
662 30-07-2018 07:05:00 16.9 C 86 % 14.54 C
663 30-07-2018 07:10:00 17.1 C 84 % 14.38 C
664 30-07-2018 07:15:00 17.2 C 84 % 14.47 C
665 30-07-2018 07:20:00 17.3 C 84 % 14.57 C
666 30-07-2018 07:25:00 17.6 C 85 % 15.05 C
667 30-07-2018 07:30:00 17.7 C 85 % 15.15 C
668 30-07-2018 07:35:00 17.8 C 83 % 14.88 C
669 30-07-2018 07:40:00 17.9 C 84 % 15.16 C
670 30-07-2018 07:45:00 18.1 C 84 % 15.35 C
671 30-07-2018 07:50:00 18.1 C 83 % 15.17 C
672 30-07-2018 07:55:00 18.2 C 85 % 15.64 C
673 30-07-2018 08:00:00 18.2 C 84 % 15.45 C
674 30-07-2018 08:05:00 18.2 C 84 % 15.45 C
675 30-07-2018 08:10:00 18.2 C 84 % 15.45 C
Sensor: Nr:Datum:Temp:Feuchte:Taupunkt:
Aussen-T/F 676 30-07-2018 08:15:00 18.2 C 84 % 15.45 C
677 30-07-2018 08:20:00 18.2 C 83 % 15.27 C
678 30-07-2018 08:25:00 18.3 C 83 % 15.36 C
679 30-07-2018 08:30:00 18.3 C 83 % 15.36 C
680 30-07-2018 08:35:00 18.4 C 84 % 15.65 C
681 30-07-2018 08:40:00 18.5 C 84 % 15.75 C
682 30-07-2018 08:45:00 18.7 C 84 % 15.94 C
683 30-07-2018 08:50:00 18.8 C 84 % 16.04 C
684 30-07-2018 08:55:00 19 C 84 % 16.24 C
685 30-07-2018 09:00:00 19.1 C 81 % 15.76 C
686 30-07-2018 09:05:00 19.4 C 83 % 16.44 C
687 30-07-2018 09:10:00 19.7 C 82 % 16.54 C
688 30-07-2018 09:15:00 19.9 C 80 % 16.35 C
689 30-07-2018 09:20:00 20.2 C 78 % 16.24 C
690 30-07-2018 09:25:00 20.5 C 80 % 16.93 C
691 30-07-2018 09:30:00 20.7 C 78 % 16.73 C
692 30-07-2018 09:35:00 20.9 C 78 % 16.92 C
693 30-07-2018 09:40:00 21.1 C 74 % 16.29 C
694 30-07-2018 09:45:00 21.3 C 76 % 16.9 C
695 30-07-2018 09:50:00 21.4 C 72 % 16.14 C
696 30-07-2018 09:55:00 21.7 C 75 % 17.07 C
697 30-07-2018 10:00:00 21.8 C 70 % 16.09 C
698 30-07-2018 10:05:00 22 C 73 % 16.94 C
699 30-07-2018 10:10:00 22.2 C 74 % 17.34 C
700 30-07-2018 10:15:00 22.2 C 70 % 16.47 C
Sensor: Nr:Datum:Temp:Feuchte:Taupunkt:
Aussen-T/F 701 30-07-2018 10:20:00 22.3 C 72 % 17.01 C
702 30-07-2018 10:25:00 22.4 C 68 % 16.2 C
703 30-07-2018 10:30:00 22.9 C 69 % 16.91 C
704 30-07-2018 10:35:00 23.3 C 65 % 16.35 C
705 30-07-2018 10:40:00 23.8 C 68 % 17.54 C
706 30-07-2018 10:45:00 24.2 C 62 % 16.46 C
707 30-07-2018 10:50:00 24.7 C 63 % 17.18 C
708 30-07-2018 10:55:00 24.9 C 59 % 16.34 C
709 30-07-2018 11:00:00 25.2 C 60 % 16.88 C
710 30-07-2018 11:05:00 25.3 C 58 % 16.44 C
711 30-07-2018 11:10:00 25.5 C 63 % 17.94 C
712 30-07-2018 11:15:00 25.7 C 63 % 18.13 C
713 30-07-2018 11:20:00 25.7 C 58 % 16.82 C
714 30-07-2018 11:25:00 25.9 C 55 % 16.17 C
715 30-07-2018 11:30:00 26.3 C 57 % 17.1 C
716 30-07-2018 11:35:00 26.4 C 58 % 17.47 C
717 30-07-2018 11:40:00 26.7 C 53 % 16.33 C
718 30-07-2018 11:45:00 27.1 C 53 % 16.7 C
719 30-07-2018 11:50:00 27.4 C 51 % 16.37 C
720 30-07-2018 11:55:00 27.9 C 49 % 16.2 C
721 30-07-2018 12:00:00 28.1 C 49 % 16.38 C
722 30-07-2018 12:05:00 28.3 C 50 % 16.88 C
723 30-07-2018 12:10:00 28.5 C 49 % 16.75 C
724 30-07-2018 12:15:00 28.6 C 47 % 16.18 C
725 30-07-2018 12:20:00 28.7 C 48 % 16.6 C
Sensor: Nr:Datum:Temp:Feuchte:Taupunkt:
Aussen-T/F 726 30-07-2018 12:25:00 28.8 C 48 % 16.69 C
727 30-07-2018 12:30:00 28.8 C 48 % 16.69 C
728 30-07-2018 12:35:00 28.9 C 46 % 16.12 C
729 30-07-2018 12:40:00 29.1 C 51 % 17.93 C
730 30-07-2018 12:45:00 29.1 C 47 % 16.64 C
731 30-07-2018 12:50:00 29.2 C 48 % 17.06 C
732 30-07-2018 12:55:00 29.2 C 48 % 17.06 C
733 30-07-2018 13:00:00 29.3 C 48 % 17.15 C
734 30-07-2018 13:05:00 29.4 C 47 % 16.91 C
735 30-07-2018 13:10:00 29.5 C 46 % 16.66 C
736 30-07-2018 13:15:00 29.4 C 50 % 17.89 C
737 30-07-2018 13:20:00 29.4 C 50 % 17.89 C
738 30-07-2018 13:25:00 29.4 C 52 % 18.51 C
739 30-07-2018 13:30:00 29.3 C 51 % 18.11 C
740 30-07-2018 13:35:00 29.3 C 47 % 16.82 C
741 30-07-2018 13:40:00 29.4 C 49 % 17.57 C
742 30-07-2018 13:45:00 29.6 C 47 % 17.09 C
743 30-07-2018 13:50:00 29.7 C 46 % 16.84 C
744 30-07-2018 13:55:00 29.8 C 48 % 17.61 C
745 30-07-2018 14:00:00 29.9 C 47 % 17.36 C
746 30-07-2018 14:05:00 30 C 45 % 16.77 C
747 30-07-2018 14:10:00 30.1 C 45 % 16.86 C
748 30-07-2018 14:15:00 30.2 C 52 % 19.25 C
749 30-07-2018 14:20:00 30.2 C 48 % 17.97 C
750 30-07-2018 14:25:00 30.3 C 45 % 17.04 C
Sensor: Nr:Datum:Temp:Feuchte:Taupunkt:
Aussen-T/F 751 30-07-2018 14:30:00 30.4 C 43 % 16.41 C
752 30-07-2018 14:35:00 30.6 C 45 % 17.31 C
753 30-07-2018 14:40:00 30.6 C 52 % 19.62 C
754 30-07-2018 14:45:00 30.6 C 48 % 18.33 C
755 30-07-2018 14:50:00 30.6 C 46 % 17.66 C
756 30-07-2018 14:55:00 30.6 C 54 % 20.23 C
757 30-07-2018 15:00:00 30.5 C 54 % 20.13 C
758 30-07-2018 15:05:00 30.3 C 55 % 20.25 C
759 30-07-2018 15:10:00 30.2 C 47 % 17.64 C
760 30-07-2018 15:15:00 30.3 C 48 % 18.06 C
761 30-07-2018 15:20:00 30.4 C 47 % 17.82 C
762 30-07-2018 15:25:00 30.7 C 43 % 16.68 C
763 30-07-2018 15:30:00 31 C 44 % 17.31 C
764 30-07-2018 15:35:00 31.4 C 42 % 16.94 C
765 30-07-2018 15:40:00 31.7 C 41 % 16.83 C
766 30-07-2018 15:45:00 31.9 C 41 % 17.01 C
767 30-07-2018 15:50:00 31.9 C 41 % 17.01 C
768 30-07-2018 15:55:00 31.9 C 41 % 17.01 C
769 30-07-2018 16:00:00 31.8 C 43 % 17.67 C
770 30-07-2018 16:05:00 31.8 C 45 % 18.39 C
771 30-07-2018 16:10:00 31.9 C 42 % 17.39 C
772 30-07-2018 16:15:00 32 C 42 % 17.48 C
773 30-07-2018 16:20:00 32 C 41 % 17.09 C
774 30-07-2018 16:25:00 32 C 44 % 18.21 C
775 30-07-2018 16:30:00 32.1 C 45 % 18.66 C
Sensor: Nr:Datum:Temp:Feuchte:Taupunkt:
Aussen-T/F 776 30-07-2018 16:35:00 32.2 C 48 % 19.79 C
777 30-07-2018 16:40:00 32.2 C 52 % 21.09 C
778 30-07-2018 16:45:00 32.2 C 51 % 20.77 C
779 30-07-2018 16:50:00 32.2 C 48 % 19.79 C
780 30-07-2018 16:55:00 32.2 C 46 % 19.11 C
781 30-07-2018 17:00:00 32.2 C 43 % 18.03 C
782 30-07-2018 17:05:00 32.2 C 45 % 18.75 C
783 30-07-2018 17:10:00 32.1 C 49 % 20.03 C
784 30-07-2018 17:15:00 31.9 C 52 % 20.81 C
785 30-07-2018 17:20:00 31.9 C 45 % 18.48 C
786 30-07-2018 17:25:00 32.6 C 40 % 17.24 C
787 30-07-2018 17:30:00 33.1 C 40 % 17.68 C
788 30-07-2018 17:35:00 33.4 C 38 % 17.14 C
789 30-07-2018 17:40:00 33.2 C 39 % 17.37 C
790 30-07-2018 17:45:00 33.1 C 44 % 19.2 C
791 30-07-2018 17:50:00 33.2 C 38 % 16.96 C
792 30-07-2018 17:55:00 33.6 C 38 % 17.31 C
793 30-07-2018 18:00:00 34.1 C 37 % 17.33 C
794 30-07-2018 18:05:00 34.4 C 36 % 17.16 C
795 30-07-2018 18:10:00 34.7 C 36 % 17.43 C
796 30-07-2018 18:15:00 34.8 C 35 % 17.07 C
797 30-07-2018 18:20:00 34.5 C 35 % 16.81 C
798 30-07-2018 18:25:00 34.2 C 39 % 18.26 C
799 30-07-2018 18:30:00 33.9 C 43 % 19.55 C
800 30-07-2018 18:35:00 33.6 C 45 % 20.02 C
Sensor: Nr:Datum:Temp:Feuchte:Taupunkt:
Aussen-T/F 801 30-07-2018 18:40:00 33.1 C 50 % 21.27 C
802 30-07-2018 18:45:00 32.4 C 49 % 20.31 C
803 30-07-2018 18:50:00 31.9 C 49 % 19.85 C
804 30-07-2018 18:55:00 31.6 C 50 % 19.9 C
805 30-07-2018 19:00:00 31.4 C 51 % 20.04 C
806 30-07-2018 19:05:00 31.2 C 52 % 20.17 C
807 30-07-2018 19:10:00 31.1 C 51 % 19.76 C
808 30-07-2018 19:15:00 31.1 C 53 % 20.39 C
809 30-07-2018 19:20:00 31.2 C 52 % 20.17 C
810 30-07-2018 19:25:00 31.3 C 46 % 18.29 C
811 30-07-2018 19:30:00 31.6 C 46 % 18.56 C
812 30-07-2018 19:35:00 31.8 C 48 % 19.43 C
813 30-07-2018 19:40:00 32 C 44 % 18.21 C
814 30-07-2018 19:45:00 32.2 C 40 % 16.88 C
815 30-07-2018 19:50:00 32.2 C 41 % 17.27 C
816 30-07-2018 19:55:00 32.2 C 46 % 19.11 C
817 30-07-2018 20:00:00 32.1 C 43 % 17.94 C
818 30-07-2018 20:05:00 31.9 C 47 % 19.18 C
819 30-07-2018 20:10:00 31.6 C 46 % 18.56 C
820 30-07-2018 20:15:00 31.4 C 47 % 18.73 C
821 30-07-2018 20:20:00 31.3 C 46 % 18.29 C
822 30-07-2018 20:25:00 31.1 C 47 % 18.45 C
823 30-07-2018 20:30:00 30.8 C 48 % 18.52 C
824 30-07-2018 20:35:00 30.5 C 48 % 18.24 C
825 30-07-2018 20:40:00 30.2 C 48 % 17.97 C
Sensor: Nr:Datum:Temp:Feuchte:Taupunkt:
Aussen-T/F 826 30-07-2018 20:45:00 29.8 C 50 % 18.25 C
827 30-07-2018 20:50:00 29.4 C 50 % 17.89 C
828 30-07-2018 20:55:00 29.1 C 53 % 18.54 C
829 30-07-2018 21:00:00 28.6 C 53 % 18.08 C
830 30-07-2018 21:05:00 28.2 C 55 % 18.3 C
831 30-07-2018 21:10:00 27.7 C 56 % 18.12 C
832 30-07-2018 21:15:00 27.2 C 58 % 18.22 C
833 30-07-2018 21:20:00 26.8 C 60 % 18.38 C
834 30-07-2018 21:25:00 26.4 C 60 % 18.01 C
835 30-07-2018 21:30:00 26.1 C 61 % 17.99 C
836 30-07-2018 21:35:00 25.9 C 61 % 17.8 C
837 30-07-2018 21:40:00 25.7 C 62 % 17.87 C
838 30-07-2018 21:45:00 25.5 C 63 % 17.94 C
839 30-07-2018 21:50:00 25.3 C 64 % 18 C
840 30-07-2018 21:55:00 25.2 C 64 % 17.9 C
841 30-07-2018 22:00:00 25 C 65 % 17.96 C
842 30-07-2018 22:05:00 24.8 C 66 % 18.01 C
843 30-07-2018 22:10:00 24.6 C 66 % 17.83 C
844 30-07-2018 22:15:00 24.3 C 66 % 17.54 C
845 30-07-2018 22:20:00 24.1 C 67 % 17.59 C
846 30-07-2018 22:25:00 23.9 C 68 % 17.63 C
847 30-07-2018 22:30:00 23.8 C 67 % 17.3 C
848 30-07-2018 22:35:00 23.7 C 67 % 17.21 C
849 30-07-2018 22:40:00 23.7 C 69 % 17.67 C
850 30-07-2018 22:45:00 23.5 C 69 % 17.48 C
Sensor: Nr:Datum:Temp:Feuchte:Taupunkt:
Aussen-T/F 851 30-07-2018 22:50:00 23.4 C 68 % 17.16 C
852 30-07-2018 22:55:00 23.3 C 68 % 17.06 C
853 30-07-2018 23:00:00 23.2 C 70 % 17.42 C
854 30-07-2018 23:05:00 23.1 C 70 % 17.33 C
855 30-07-2018 23:10:00 22.9 C 69 % 16.91 C
856 30-07-2018 23:15:00 22.8 C 72 % 17.49 C
857 30-07-2018 23:20:00 22.6 C 71 % 17.07 C
858 30-07-2018 23:25:00 22.4 C 72 % 17.1 C
859 30-07-2018 23:30:00 22.3 C 73 % 17.23 C
860 30-07-2018 23:35:00 22.2 C 72 % 16.91 C
861 30-07-2018 23:40:00 22.2 C 71 % 16.69 C
862 30-07-2018 23:45:00 22.2 C 71 % 16.69 C
863 30-07-2018 23:50:00 22.3 C 71 % 16.79 C
864 30-07-2018 23:55:00 22.4 C 72 % 17.1 C
865 31-07-2018 00:00:00 22.3 C 71 % 16.79 C
866 31-07-2018 00:05:00 22.3 C 71 % 16.79 C
867 31-07-2018 00:10:00 22.4 C 72 % 17.1 C
868 31-07-2018 00:15:00 22.3 C 71 % 16.79 C
869 31-07-2018 00:20:00 22.2 C 72 % 16.91 C
870 31-07-2018 00:25:00 21.9 C 73 % 16.84 C
871 31-07-2018 00:30:00 21.7 C 73 % 16.65 C
872 31-07-2018 00:35:00 21.6 C 73 % 16.55 C
873 31-07-2018 00:40:00 21.5 C 75 % 16.88 C
874 31-07-2018 00:45:00 21.4 C 75 % 16.79 C
875 31-07-2018 00:50:00 21.3 C 76 % 16.9 C
Sensor: Nr:Datum:Temp:Feuchte:Taupunkt:
Aussen-T/F 876 31-07-2018 00:55:00 21.2 C 75 % 16.59 C
877 31-07-2018 01:00:00 21.1 C 75 % 16.5 C
878 31-07-2018 01:05:00 21 C 76 % 16.61 C
879 31-07-2018 01:10:00 20.9 C 76 % 16.51 C
880 31-07-2018 01:15:00 20.8 C 76 % 16.41 C
881 31-07-2018 01:20:00 20.7 C 77 % 16.52 C
882 31-07-2018 01:25:00 20.6 C 76 % 16.22 C
883 31-07-2018 01:30:00 20.5 C 77 % 16.33 C
884 31-07-2018 01:35:00 20.4 C 77 % 16.23 C
885 31-07-2018 01:40:00 20.5 C 77 % 16.33 C
886 31-07-2018 01:45:00 20.5 C 77 % 16.33 C
887 31-07-2018 01:50:00 20.6 C 77 % 16.43 C
888 31-07-2018 01:55:00 20.5 C 77 % 16.33 C
889 31-07-2018 02:00:00 20.4 C 77 % 16.23 C
890 31-07-2018 02:05:00 20.4 C 78 % 16.44 C
891 31-07-2018 02:10:00 20.3 C 78 % 16.34 C
892 31-07-2018 02:15:00 20.2 C 79 % 16.44 C
893 31-07-2018 02:20:00 20.1 C 79 % 16.34 C
894 31-07-2018 02:25:00 20 C 79 % 16.25 C
895 31-07-2018 02:30:00 19.9 C 79 % 16.15 C
896 31-07-2018 02:35:00 19.8 C 80 % 16.25 C
897 31-07-2018 02:40:00 19.7 C 80 % 16.15 C
898 31-07-2018 02:45:00 19.6 C 80 % 16.06 C
899 31-07-2018 02:50:00 19.6 C 81 % 16.25 C
900 31-07-2018 02:55:00 19.7 C 81 % 16.35 C
Sensor: Nr:Datum:Temp:Feuchte:Taupunkt:
Aussen-T/F 901 31-07-2018 03:00:00 19.8 C 81 % 16.45 C
902 31-07-2018 03:05:00 19.7 C 80 % 16.15 C
903 31-07-2018 03:10:00 19.6 C 80 % 16.06 C
904 31-07-2018 03:15:00 19.5 C 81 % 16.15 C
905 31-07-2018 03:20:00 19.4 C 81 % 16.06 C
906 31-07-2018 03:25:00 19.3 C 81 % 15.96 C
907 31-07-2018 03:30:00 19.1 C 81 % 15.76 C
908 31-07-2018 03:35:00 19.1 C 82 % 15.96 C
909 31-07-2018 03:40:00 18.9 C 82 % 15.76 C
910 31-07-2018 03:45:00 18.9 C 82 % 15.76 C
911 31-07-2018 03:50:00 18.8 C 83 % 15.85 C
912 31-07-2018 03:55:00 18.8 C 83 % 15.85 C
913 31-07-2018 04:00:00 18.8 C 83 % 15.85 C
914 31-07-2018 04:05:00 18.8 C 83 % 15.85 C
915 31-07-2018 04:10:00 18.7 C 83 % 15.75 C
916 31-07-2018 04:15:00 18.6 C 83 % 15.66 C
917 31-07-2018 04:20:00 18.5 C 84 % 15.75 C
918 31-07-2018 04:25:00 18.4 C 84 % 15.65 C
919 31-07-2018 04:30:00 18.3 C 84 % 15.55 C
920 31-07-2018 04:35:00 18.3 C 84 % 15.55 C
921 31-07-2018 04:40:00 18.2 C 85 % 15.64 C
922 31-07-2018 04:45:00 18.1 C 85 % 15.54 C
923 31-07-2018 04:50:00 18.1 C 85 % 15.54 C
924 31-07-2018 04:55:00 17.9 C 85 % 15.34 C
925 31-07-2018 05:00:00 17.9 C 86 % 15.53 C
Sensor: Nr:Datum:Temp:Feuchte:Taupunkt:
Aussen-T/F 926 31-07-2018 05:05:00 17.9 C 85 % 15.34 C
927 31-07-2018 05:10:00 17.8 C 86 % 15.43 C
928 31-07-2018 05:15:00 17.8 C 86 % 15.43 C
929 31-07-2018 05:20:00 17.8 C 86 % 15.43 C
930 31-07-2018 05:25:00 17.7 C 86 % 15.33 C
931 31-07-2018 05:30:00 17.7 C 86 % 15.33 C
932 31-07-2018 05:35:00 17.7 C 86 % 15.33 C
933 31-07-2018 05:40:00 17.7 C 86 % 15.33 C
934 31-07-2018 05:45:00 17.7 C 86 % 15.33 C
935 31-07-2018 05:50:00 17.7 C 86 % 15.33 C
936 31-07-2018 05:55:00 17.6 C 86 % 15.23 C
937 31-07-2018 06:00:00 17.6 C 87 % 15.41 C
938 31-07-2018 06:05:00 17.5 C 87 % 15.31 C
939 31-07-2018 06:10:00 17.5 C 87 % 15.31 C
940 31-07-2018 06:15:00 17.5 C 87 % 15.31 C
941 31-07-2018 06:20:00 17.5 C 87 % 15.31 C
942 31-07-2018 06:25:00 17.4 C 87 % 15.21 C
943 31-07-2018 06:30:00 17.4 C 87 % 15.21 C
944 31-07-2018 06:35:00 17.4 C 87 % 15.21 C
945 31-07-2018 06:40:00 17.4 C 88 % 15.39 C
946 31-07-2018 06:45:00 17.4 C 88 % 15.39 C
947 31-07-2018 06:50:00 17.5 C 88 % 15.49 C
948 31-07-2018 06:55:00 17.6 C 88 % 15.59 C
949 31-07-2018 07:00:00 17.6 C 89 % 15.77 C
950 31-07-2018 07:05:00 17.7 C 89 % 15.86 C
Sensor: Nr:Datum:Temp:Feuchte:Taupunkt:
Aussen-T/F 951 31-07-2018 07:10:00 17.7 C 89 % 15.86 C
952 31-07-2018 07:15:00 17.8 C 89 % 15.96 C
953 31-07-2018 07:20:00 17.9 C 89 % 16.06 C
954 31-07-2018 07:25:00 17.9 C 89 % 16.06 C
955 31-07-2018 07:30:00 18 C 89 % 16.16 C
956 31-07-2018 07:35:00 18.1 C 89 % 16.26 C
957 31-07-2018 07:40:00 18.1 C 89 % 16.26 C
958 31-07-2018 07:45:00 18.1 C 88 % 16.08 C
959 31-07-2018 07:50:00 18.2 C 88 % 16.18 C
960 31-07-2018 07:55:00 18.2 C 88 % 16.18 C
961 31-07-2018 08:00:00 18.3 C 88 % 16.28 C
962 31-07-2018 08:05:00 18.3 C 88 % 16.28 C
963 31-07-2018 08:10:00 18.4 C 87 % 16.2 C
964 31-07-2018 08:15:00 18.4 C 87 % 16.2 C
965 31-07-2018 08:20:00 18.6 C 87 % 16.39 C
966 31-07-2018 08:25:00 18.6 C 87 % 16.39 C
967 31-07-2018 08:30:00 18.7 C 87 % 16.49 C
968 31-07-2018 08:35:00 18.8 C 87 % 16.59 C
969 31-07-2018 08:40:00 19.1 C 87 % 16.89 C
970 31-07-2018 08:45:00 19.3 C 87 % 17.08 C
971 31-07-2018 08:50:00 19.5 C 87 % 17.28 C
972 31-07-2018 08:55:00 19.8 C 86 % 17.39 C
973 31-07-2018 09:00:00 20.1 C 86 % 17.68 C
974 31-07-2018 09:05:00 20.3 C 84 % 17.51 C
975 31-07-2018 09:10:00 20.8 C 81 % 17.42 C
Sensor: Nr:Datum:Temp:Feuchte:Taupunkt:
Aussen-T/F 976 31-07-2018 09:15:00 21.2 C 82 % 18 C
977 31-07-2018 09:20:00 21.6 C 80 % 18 C
978 31-07-2018 09:25:00 22 C 77 % 17.78 C
979 31-07-2018 09:30:00 22.3 C 74 % 17.44 C
980 31-07-2018 09:35:00 22.6 C 76 % 18.15 C
981 31-07-2018 09:40:00 22.9 C 76 % 18.44 C
982 31-07-2018 09:45:00 23.1 C 76 % 18.64 C
983 31-07-2018 09:50:00 23 C 76 % 18.54 C
984 31-07-2018 09:55:00 22.8 C 75 % 18.14 C
985 31-07-2018 10:00:00 22.7 C 75 % 18.04 C
986 31-07-2018 10:05:00 22.6 C 74 % 17.73 C
987 31-07-2018 10:10:00 22.7 C 77 % 18.46 C
988 31-07-2018 10:15:00 22.7 C 74 % 17.83 C
989 31-07-2018 10:20:00 22.8 C 73 % 17.71 C
990 31-07-2018 10:25:00 23 C 72 % 17.68 C
991 31-07-2018 10:30:00 23.3 C 72 % 17.97 C
992 31-07-2018 10:35:00 23.6 C 69 % 17.58 C
993 31-07-2018 10:40:00 24.1 C 70 % 18.29 C
994 31-07-2018 10:45:00 24.4 C 67 % 17.87 C
995 31-07-2018 10:50:00 24.8 C 65 % 17.77 C
996 31-07-2018 10:55:00 25.1 C 63 % 17.56 C
997 31-07-2018 11:00:00 25.3 C 61 % 17.24 C
998 31-07-2018 11:05:00 25.6 C 65 % 18.53 C
999 31-07-2018 11:10:00 25.6 C 62 % 17.78 C
1000 31-07-2018 11:15:00 25.9 C 62 % 18.06 C
Sensor: Nr:Datum:Temp:Feuchte:Taupunkt:
Aussen-T/F 1001 31-07-2018 11:20:00 26.2 C 58 % 17.28 C
1002 31-07-2018 11:25:00 26.6 C 57 % 17.38 C
1003 31-07-2018 11:30:00 26.9 C 58 % 17.94 C
1004 31-07-2018 11:35:00 27.2 C 56 % 17.66 C
1005 31-07-2018 11:40:00 27.4 C 55 % 17.56 C
1006 31-07-2018 11:45:00 27.6 C 56 % 18.03 C
1007 31-07-2018 11:50:00 27.6 C 54 % 17.45 C
1008 31-07-2018 11:55:00 27.9 C 53 % 17.43 C
1009 31-07-2018 12:00:00 28.2 C 50 % 16.79 C
1010 31-07-2018 12:05:00 28.6 C 48 % 16.51 C
1011 31-07-2018 12:10:00 29.1 C 49 % 17.29 C
1012 31-07-2018 12:15:00 29.4 C 47 % 16.91 C
1013 31-07-2018 12:20:00 29.7 C 45 % 16.5 C
1014 31-07-2018 12:25:00 29.8 C 47 % 17.27 C
1015 31-07-2018 12:30:00 30 C 44 % 16.41 C
1016 31-07-2018 12:35:00 30.2 C 46 % 17.3 C
1017 31-07-2018 12:40:00 30.3 C 45 % 17.04 C
1018 31-07-2018 12:45:00 30.5 C 45 % 17.22 C
1019 31-07-2018 12:50:00 30.6 C 45 % 17.31 C
1020 31-07-2018 12:55:00 30.7 C 44 % 17.04 C
1021 31-07-2018 13:00:00 30.7 C 44 % 17.04 C
1022 31-07-2018 13:05:00 30.8 C 45 % 17.49 C
1023 31-07-2018 13:10:00 30.9 C 43 % 16.86 C
1024 31-07-2018 13:15:00 31 C 43 % 16.95 C
1025 31-07-2018 13:20:00 31.1 C 46 % 18.11 C
Sensor: Nr:Datum:Temp:Feuchte:Taupunkt:
Aussen-T/F 1026 31-07-2018 13:25:00 31.2 C 44 % 17.49 C
1027 31-07-2018 13:30:00 31.3 C 44 % 17.58 C
1028 31-07-2018 13:35:00 31.4 C 44 % 17.67 C
1029 31-07-2018 13:40:00 31.6 C 43 % 17.49 C
1030 31-07-2018 13:45:00 31.6 C 43 % 17.49 C
1031 31-07-2018 13:50:00 31.4 C 43 % 17.31 C
1032 31-07-2018 13:55:00 31.4 C 45 % 18.03 C
1033 31-07-2018 14:00:00 31.3 C 44 % 17.58 C
1034 31-07-2018 14:05:00 31.2 C 44 % 17.49 C
1035 31-07-2018 14:10:00 31.3 C 45 % 17.94 C
1036 31-07-2018 14:15:00 31.3 C 43 % 17.22 C
1037 31-07-2018 14:20:00 31.4 C 43 % 17.31 C
1038 31-07-2018 14:25:00 31.6 C 42 % 17.12 C
1039 31-07-2018 14:30:00 31.7 C 43 % 17.58 C
1040 31-07-2018 14:35:00 31.8 C 41 % 16.92 C
1041 31-07-2018 14:40:00 32 C 41 % 17.09 C
1042 31-07-2018 14:45:00 32.3 C 41 % 17.36 C
1043 31-07-2018 14:50:00 32.6 C 39 % 16.84 C
1044 31-07-2018 14:55:00 32.8 C 38 % 16.61 C
1045 31-07-2018 15:00:00 32.6 C 39 % 16.84 C
1046 31-07-2018 15:05:00 32.2 C 40 % 16.88 C
1047 31-07-2018 15:10:00 32.1 C 41 % 17.18 C
1048 31-07-2018 15:15:00 32.2 C 40 % 16.88 C
1049 31-07-2018 15:20:00 32.3 C 39 % 16.57 C
1050 31-07-2018 15:25:00 32.4 C 39 % 16.66 C
Sensor: Nr:Datum:Temp:Feuchte:Taupunkt:
Aussen-T/F 1051 31-07-2018 15:30:00 32.3 C 41 % 17.36 C
1052 31-07-2018 15:35:00 32.8 C 40 % 17.42 C
1053 31-07-2018 15:40:00 33.6 C 37 % 16.89 C
1054 31-07-2018 15:45:00 34.3 C 36 % 17.08 C
1055 31-07-2018 15:50:00 34.9 C 34 % 16.7 C
1056 31-07-2018 15:55:00 35.3 C 33 % 16.58 C
1057 31-07-2018 16:00:00 35.1 C 31 % 15.43 C
1058 31-07-2018 16:05:00 34.6 C 33 % 15.97 C
1059 31-07-2018 16:10:00 34.6 C 34 % 16.44 C
1060 31-07-2018 16:15:00 35 C 32 % 15.83 C
1061 31-07-2018 16:20:00 35.3 C 30 % 15.09 C
1062 31-07-2018 16:25:00 35.4 C 31 % 15.68 C
1063 31-07-2018 16:30:00 35.5 C 31 % 15.77 C
1064 31-07-2018 16:35:00 35.6 C 31 % 15.86 C
1065 31-07-2018 16:40:00 34.9 C 32 % 15.75 C
1066 31-07-2018 16:45:00 34.6 C 33 % 15.97 C
1067 31-07-2018 16:50:00 34.6 C 35 % 16.89 C
1068 31-07-2018 16:55:00 34.9 C 33 % 16.23 C
1069 31-07-2018 17:00:00 35.5 C 31 % 15.77 C
1070 31-07-2018 17:05:00 35.8 C 31 % 16.03 C
1071 31-07-2018 17:10:00 36.1 C 31 % 16.29 C
1072 31-07-2018 17:15:00 36.2 C 29 % 15.33 C
1073 31-07-2018 17:20:00 36.1 C 30 % 15.77 C
1074 31-07-2018 17:25:00 35.9 C 31 % 16.11 C
1075 31-07-2018 17:30:00 35.9 C 31 % 16.11 C
Sensor: Nr:Datum:Temp:Feuchte:Taupunkt:
Aussen-T/F 1076 31-07-2018 17:35:00 35.7 C 31 % 15.94 C
1077 31-07-2018 17:40:00 35.2 C 34 % 16.96 C
1078 31-07-2018 17:45:00 35.1 C 31 % 15.43 C
1079 31-07-2018 17:50:00 35.1 C 32 % 15.92 C
1080 31-07-2018 17:55:00 35.3 C 32 % 16.09 C
1081 31-07-2018 18:00:00 35.4 C 32 % 16.18 C
1082 31-07-2018 18:05:00 35.4 C 31 % 15.68 C
1083 31-07-2018 18:10:00 35.6 C 31 % 15.86 C
1084 31-07-2018 18:15:00 35.7 C 31 % 15.94 C
1085 31-07-2018 18:20:00 35.7 C 31 % 15.94 C
1086 31-07-2018 18:25:00 35.5 C 31 % 15.77 C
1087 31-07-2018 18:30:00 35.3 C 31 % 15.6 C
1088 31-07-2018 18:35:00 34.9 C 35 % 17.16 C
1089 31-07-2018 18:40:00 34.3 C 36 % 17.08 C
1090 31-07-2018 18:45:00 33.8 C 38 % 17.49 C
1091 31-07-2018 18:50:00 33.2 C 40 % 17.77 C
1092 31-07-2018 18:55:00 32.7 C 41 % 17.72 C
1093 31-07-2018 19:00:00 32.3 C 42 % 17.74 C
1094 31-07-2018 19:05:00 32.2 C 43 % 18.03 C
1095 31-07-2018 19:10:00 32.3 C 42 % 17.74 C
1096 31-07-2018 19:15:00 32.3 C 42 % 17.74 C
1097 31-07-2018 19:20:00 32.1 C 42 % 17.57 C
1098 31-07-2018 19:25:00 31.8 C 44 % 18.03 C
1099 31-07-2018 19:30:00 31.4 C 43 % 17.31 C
1100 31-07-2018 19:35:00 31.2 C 44 % 17.49 C
Sensor: Nr:Datum:Temp:Feuchte:Taupunkt:
Aussen-T/F 1101 31-07-2018 19:40:00 30.9 C 44 % 17.22 C
1102 31-07-2018 19:45:00 30.7 C 45 % 17.4 C
1103 31-07-2018 19:50:00 30.6 C 45 % 17.31 C
1104 31-07-2018 19:55:00 30.4 C 46 % 17.48 C
1105 31-07-2018 20:00:00 30.3 C 46 % 17.39 C
1106 31-07-2018 20:05:00 30.2 C 47 % 17.64 C
1107 31-07-2018 20:10:00 30.1 C 47 % 17.54 C
1108 31-07-2018 20:15:00 30 C 47 % 17.45 C
1109 31-07-2018 20:20:00 29.8 C 47 % 17.27 C
1110 31-07-2018 20:25:00 29.7 C 47 % 17.18 C
1111 31-07-2018 20:30:00 29.5 C 48 % 17.33 C
1112 31-07-2018 20:35:00 29.3 C 48 % 17.15 C
1113 31-07-2018 20:40:00 29.1 C 50 % 17.61 C
1114 31-07-2018 20:45:00 28.8 C 51 % 17.65 C
1115 31-07-2018 20:50:00 28.5 C 49 % 16.75 C
1116 31-07-2018 20:55:00 28.3 C 50 % 16.88 C
1117 31-07-2018 21:00:00 28.3 C 53 % 17.8 C
1118 31-07-2018 21:05:00 28 C 54 % 17.82 C
1119 31-07-2018 21:10:00 27.6 C 53 % 17.16 C
1120 31-07-2018 21:15:00 27.3 C 52 % 16.58 C
1121 31-07-2018 21:20:00 27.3 C 53 % 16.88 C
1122 31-07-2018 21:25:00 27.1 C 52 % 16.4 C
1123 31-07-2018 21:30:00 26.9 C 54 % 16.81 C
1124 31-07-2018 21:35:00 26.7 C 54 % 16.62 C
1125 31-07-2018 21:40:00 26.4 C 55 % 16.63 C
Sensor: Nr:Datum:Temp:Feuchte:Taupunkt:
Aussen-T/F 1126 31-07-2018 21:45:00 26.2 C 57 % 17.01 C
1127 31-07-2018 21:50:00 25.9 C 56 % 16.45 C
1128 31-07-2018 21:55:00 25.7 C 57 % 16.54 C
1129 31-07-2018 22:00:00 25.4 C 58 % 16.54 C
1130 31-07-2018 22:05:00 25.2 C 58 % 16.35 C
1131 31-07-2018 22:10:00 25 C 59 % 16.43 C
1132 31-07-2018 22:15:00 24.8 C 58 % 15.98 C
1133 31-07-2018 22:20:00 24.7 C 59 % 16.15 C
1134 31-07-2018 22:25:00 24.5 C 59 % 15.96 C
1135 31-07-2018 22:30:00 24.3 C 60 % 16.04 C
1136 31-07-2018 22:35:00 24.2 C 60 % 15.95 C
1137 31-07-2018 22:40:00 24.1 C 61 % 16.11 C
1138 31-07-2018 22:45:00 24 C 61 % 16.02 C
1139 31-07-2018 22:50:00 23.9 C 61 % 15.92 C
1140 31-07-2018 22:55:00 23.8 C 63 % 16.33 C
1141 31-07-2018 23:00:00 23.8 C 62 % 16.08 C
1142 31-07-2018 23:05:00 23.8 C 63 % 16.33 C
1143 31-07-2018 23:10:00 23.7 C 62 % 15.99 C
1144 31-07-2018 23:15:00 23.7 C 62 % 15.99 C
1145 31-07-2018 23:20:00 23.6 C 63 % 16.14 C
1146 31-07-2018 23:25:00 23.5 C 63 % 16.05 C
1147 31-07-2018 23:30:00 23.4 C 63 % 15.96 C
1148 31-07-2018 23:35:00 23.3 C 64 % 16.11 C
1149 31-07-2018 23:40:00 23.2 C 64 % 16.01 C
1150 31-07-2018 23:45:00 23.1 C 63 % 15.67 C
Sensor: Nr:Datum:Temp:Feuchte:Taupunkt:
Aussen-T/F 1151 31-07-2018 23:50:00 23 C 64 % 15.82 C
1152 31-07-2018 23:55:00 22.9 C 65 % 15.97 C
1153 01-08-2018 00:00:00 22.8 C 65 % 15.88 C
1154 01-08-2018 00:05:00 22.7 C 64 % 15.54 C
1155 01-08-2018 00:10:00 22.6 C 65 % 15.69 C
1156 01-08-2018 00:15:00 22.5 C 66 % 15.83 C
1157 01-08-2018 00:20:00 22.4 C 66 % 15.74 C
1158 01-08-2018 00:25:00 22.3 C 66 % 15.64 C
1159 01-08-2018 00:30:00 22.3 C 66 % 15.64 C
1160 01-08-2018 00:35:00 22.2 C 66 % 15.55 C
1161 01-08-2018 00:40:00 22.2 C 67 % 15.78 C
1162 01-08-2018 00:45:00 22.2 C 67 % 15.78 C
1163 01-08-2018 00:50:00 22.1 C 67 % 15.69 C
1164 01-08-2018 00:55:00 22 C 66 % 15.36 C
1165 01-08-2018 01:00:00 21.9 C 66 % 15.26 C
1166 01-08-2018 01:05:00 21.9 C 68 % 15.73 C
1167 01-08-2018 01:10:00 21.8 C 67 % 15.4 C
1168 01-08-2018 01:15:00 21.7 C 68 % 15.54 C
1169 01-08-2018 01:20:00 21.6 C 68 % 15.44 C
1170 01-08-2018 01:25:00 21.5 C 68 % 15.35 C
1171 01-08-2018 01:30:00 21.4 C 69 % 15.48 C
1172 01-08-2018 01:35:00 21.3 C 69 % 15.38 C
1173 01-08-2018 01:40:00 21.2 C 69 % 15.29 C
1174 01-08-2018 01:45:00 21.1 C 70 % 15.42 C
1175 01-08-2018 01:50:00 20.9 C 70 % 15.23 C
Sensor: Nr:Datum:Temp:Feuchte:Taupunkt:
Aussen-T/F 1176 01-08-2018 01:55:00 20.8 C 71 % 15.35 C
1177 01-08-2018 02:00:00 20.7 C 71 % 15.25 C
1178 01-08-2018 02:05:00 20.7 C 72 % 15.47 C
1179 01-08-2018 02:10:00 20.6 C 72 % 15.38 C
1180 01-08-2018 02:15:00 20.5 C 73 % 15.5 C
1181 01-08-2018 02:20:00 20.4 C 73 % 15.4 C
1182 01-08-2018 02:25:00 20.4 C 73 % 15.4 C
1183 01-08-2018 02:30:00 20.3 C 73 % 15.3 C
1184 01-08-2018 02:35:00 20.3 C 73 % 15.3 C
1185 01-08-2018 02:40:00 20.3 C 73 % 15.3 C
1186 01-08-2018 02:45:00 20.3 C 74 % 15.51 C
1187 01-08-2018 02:50:00 20.3 C 74 % 15.51 C
1188 01-08-2018 02:55:00 20.2 C 75 % 15.63 C
1189 01-08-2018 03:00:00 20.2 C 75 % 15.63 C
1190 01-08-2018 03:05:00 20.2 C 75 % 15.63 C
1191 01-08-2018 03:10:00 20.3 C 75 % 15.72 C
1192 01-08-2018 03:15:00 20.4 C 74 % 15.61 C
1193 01-08-2018 03:20:00 20.5 C 75 % 15.92 C
1194 01-08-2018 03:25:00 20.5 C 74 % 15.71 C
1195 01-08-2018 03:30:00 20.4 C 74 % 15.61 C
1196 01-08-2018 03:35:00 20.4 C 74 % 15.61 C
1197 01-08-2018 03:40:00 20.3 C 74 % 15.51 C
1198 01-08-2018 03:45:00 20.4 C 75 % 15.82 C
1199 01-08-2018 03:50:00 20.5 C 75 % 15.92 C
1200 01-08-2018 03:55:00 20.6 C 75 % 16.01 C
Sensor: Nr:Datum:Temp:Feuchte:Taupunkt:
Aussen-T/F 1201 01-08-2018 04:00:00 20.6 C 74 % 15.8 C
1202 01-08-2018 04:05:00 20.6 C 74 % 15.8 C
1203 01-08-2018 04:10:00 20.7 C 74 % 15.9 C
1204 01-08-2018 04:15:00 20.7 C 75 % 16.11 C
1205 01-08-2018 04:20:00 20.8 C 75 % 16.21 C
1206 01-08-2018 04:25:00 20.8 C 74 % 16 C
1207 01-08-2018 04:30:00 20.7 C 75 % 16.11 C
1208 01-08-2018 04:35:00 20.7 C 75 % 16.11 C
1209 01-08-2018 04:40:00 20.7 C 75 % 16.11 C
1210 01-08-2018 04:45:00 20.6 C 76 % 16.22 C
1211 01-08-2018 04:50:00 20.6 C 75 % 16.01 C
1212 01-08-2018 04:55:00 20.6 C 75 % 16.01 C
1213 01-08-2018 05:00:00 20.6 C 75 % 16.01 C
1214 01-08-2018 05:05:00 20.7 C 77 % 16.52 C
1215 01-08-2018 05:10:00 20.7 C 84 % 17.9 C
1216 01-08-2018 05:15:00 20.4 C 85 % 17.79 C
1217 01-08-2018 05:20:00 20.1 C 86 % 17.68 C
1218 01-08-2018 05:25:00 19.8 C 88 % 17.75 C
1219 01-08-2018 05:30:00 19.6 C 88 % 17.56 C
1220 01-08-2018 05:35:00 19.3 C 89 % 17.44 C
1221 01-08-2018 05:40:00 19.1 C 89 % 17.24 C
1222 01-08-2018 05:45:00 18.9 C 90 % 17.22 C
1223 01-08-2018 05:50:00 18.8 C 90 % 17.12 C
1224 01-08-2018 05:55:00 18.6 C 90 % 16.93 C
1225 01-08-2018 06:00:00 18.6 C 91 % 17.1 C
Sensor: Nr:Datum:Temp:Feuchte:Taupunkt:
Aussen-T/F 1226 01-08-2018 06:05:00 18.4 C 91 % 16.9 C
1227 01-08-2018 06:10:00 18.3 C 91 % 16.81 C
1228 01-08-2018 06:15:00 18.2 C 91 % 16.71 C
1229 01-08-2018 06:20:00 18.1 C 92 % 16.78 C
1230 01-08-2018 06:25:00 17.9 C 92 % 16.58 C
1231 01-08-2018 06:30:00 17.9 C 92 % 16.58 C
1232 01-08-2018 06:35:00 17.8 C 92 % 16.48 C
1233 01-08-2018 06:40:00 17.8 C 92 % 16.48 C
1234 01-08-2018 06:45:00 17.7 C 93 % 16.55 C
1235 01-08-2018 06:50:00 17.7 C 93 % 16.55 C
1236 01-08-2018 06:55:00 17.6 C 93 % 16.45 C
1237 01-08-2018 07:00:00 17.6 C 93 % 16.45 C
1238 01-08-2018 07:05:00 17.6 C 93 % 16.45 C
1239 01-08-2018 07:10:00 17.6 C 93 % 16.45 C
1240 01-08-2018 07:15:00 17.5 C 93 % 16.36 C
1241 01-08-2018 07:20:00 17.5 C 93 % 16.36 C
1242 01-08-2018 07:25:00 17.5 C 94 % 16.52 C
1243 01-08-2018 07:30:00 17.5 C 94 % 16.52 C
1244 01-08-2018 07:35:00 17.6 C 94 % 16.62 C
1245 01-08-2018 07:40:00 17.6 C 94 % 16.62 C
1246 01-08-2018 07:45:00 17.6 C 94 % 16.62 C
1247 01-08-2018 07:50:00 17.6 C 94 % 16.62 C
1248 01-08-2018 07:55:00 17.6 C 94 % 16.62 C
1249 01-08-2018 08:00:00 17.7 C 94 % 16.72 C
1250 01-08-2018 08:05:00 17.7 C 94 % 16.72 C
Sensor: Nr:Datum:Temp:Feuchte:Taupunkt:
Aussen-T/F 1251 01-08-2018 08:10:00 17.8 C 94 % 16.82 C
1252 01-08-2018 08:15:00 17.9 C 95 % 17.09 C
1253 01-08-2018 08:20:00 18.1 C 95 % 17.29 C
1254 01-08-2018 08:25:00 18.2 C 95 % 17.39 C
1255 01-08-2018 08:30:00 18.2 C 95 % 17.39 C
1256 01-08-2018 08:35:00 18.4 C 95 % 17.58 C
1257 01-08-2018 08:40:00 18.6 C 95 % 17.78 C
1258 01-08-2018 08:45:00 18.8 C 95 % 17.98 C
1259 01-08-2018 08:50:00 19.1 C 96 % 18.45 C
1260 01-08-2018 08:55:00 19.3 C 95 % 18.48 C
1261 01-08-2018 09:00:00 19.2 C 95 % 18.38 C
1262 01-08-2018 09:05:00 19.3 C 95 % 18.48 C
1263 01-08-2018 09:10:00 19.4 C 95 % 18.58 C
1264 01-08-2018 09:15:00 19.6 C 95 % 18.78 C
1265 01-08-2018 09:20:00 19.6 C 95 % 18.78 C
1266 01-08-2018 09:25:00 19.6 C 95 % 18.78 C
1267 01-08-2018 09:30:00 19.6 C 95 % 18.78 C
1268 01-08-2018 09:35:00 19.6 C 94 % 18.61 C
1269 01-08-2018 09:40:00 19.6 C 94 % 18.61 C
1270 01-08-2018 09:45:00 19.6 C 94 % 18.61 C
1271 01-08-2018 09:50:00 19.6 C 94 % 18.61 C
1272 01-08-2018 09:55:00 19.7 C 95 % 18.88 C
1273 01-08-2018 10:00:00 19.8 C 95 % 18.98 C
1274 01-08-2018 10:05:00 20.1 C 95 % 19.27 C
1275 01-08-2018 10:10:00 20.2 C 95 % 19.37 C
Sensor: Nr:Datum:Temp:Feuchte:Taupunkt:
Aussen-T/F 1276 01-08-2018 10:15:00 20.4 C 95 % 19.57 C
1277 01-08-2018 10:20:00 20.6 C 95 % 19.77 C
1278 01-08-2018 10:25:00 20.8 C 95 % 19.97 C
1279 01-08-2018 10:30:00 21 C 95 % 20.17 C
1280 01-08-2018 10:35:00 21.3 C 95 % 20.47 C
1281 01-08-2018 10:40:00 21.6 C 95 % 20.76 C
1282 01-08-2018 10:45:00 21.7 C 93 % 20.52 C
1283 01-08-2018 10:50:00 21.9 C 93 % 20.72 C
1284 01-08-2018 10:55:00 22 C 92 % 20.64 C
1285 01-08-2018 11:00:00 22.3 C 88 % 20.21 C
1286 01-08-2018 11:05:00 22.7 C 89 % 20.79 C
1287 01-08-2018 11:10:00 22.8 C 88 % 20.71 C
1288 01-08-2018 11:15:00 23.1 C 85 % 20.44 C
1289 01-08-2018 11:20:00 23.2 C 86 % 20.73 C
1290 01-08-2018 11:25:00 23.4 C 88 % 21.3 C
1291 01-08-2018 11:30:00 23.6 C 87 % 21.31 C
1292 01-08-2018 11:35:00 23.6 C 86 % 21.12 C
1293 01-08-2018 11:40:00 23.6 C 86 % 21.12 C
1294 01-08-2018 11:45:00 23.5 C 85 % 20.83 C
1295 01-08-2018 11:50:00 23.4 C 85 % 20.73 C
1296 01-08-2018 11:55:00 23.3 C 85 % 20.63 C
1297 01-08-2018 12:00:00 23.1 C 86 % 20.63 C
1298 01-08-2018 12:05:00 22.8 C 86 % 20.33 C
1299 01-08-2018 12:10:00 22.6 C 86 % 20.14 C
1300 01-08-2018 12:15:00 22.3 C 87 % 20.03 C
Sensor: Nr:Datum:Temp:Feuchte:Taupunkt:
Aussen-T/F 1301 01-08-2018 12:20:00 22.1 C 88 % 20.02 C
1302 01-08-2018 12:25:00 21.9 C 88 % 19.82 C
1303 01-08-2018 12:30:00 21.8 C 89 % 19.9 C
1304 01-08-2018 12:35:00 21.7 C 90 % 19.99 C
1305 01-08-2018 12:40:00 21.7 C 91 % 20.17 C
1306 01-08-2018 12:45:00 21.6 C 91 % 20.07 C
1307 01-08-2018 12:50:00 21.6 C 91 % 20.07 C
1308 01-08-2018 12:55:00 21.6 C 91 % 20.07 C
1309 01-08-2018 13:00:00 21.5 C 92 % 20.14 C
1310 01-08-2018 13:05:00 21.5 C 92 % 20.14 C
1311 01-08-2018 13:10:00 21.4 C 91 % 19.87 C
1312 01-08-2018 13:15:00 21.3 C 92 % 19.95 C
1313 01-08-2018 13:20:00 21.2 C 92 % 19.85 C
1314 01-08-2018 13:25:00 21.2 C 92 % 19.85 C
1315 01-08-2018 13:30:00 21.3 C 93 % 20.12 C
1316 01-08-2018 13:35:00 21.3 C 93 % 20.12 C
1317 01-08-2018 13:40:00 21.4 C 93 % 20.22 C
1318 01-08-2018 13:45:00 21.3 C 93 % 20.12 C
1319 01-08-2018 13:50:00 21.3 C 93 % 20.12 C
1320 01-08-2018 13:55:00 21.2 C 93 % 20.02 C
1321 01-08-2018 14:00:00 21.2 C 93 % 20.02 C
1322 01-08-2018 14:05:00 21.2 C 93 % 20.02 C
1323 01-08-2018 14:10:00 21.1 C 93 % 19.92 C
1324 01-08-2018 14:15:00 21 C 93 % 19.82 C
1325 01-08-2018 14:20:00 21.1 C 93 % 19.92 C
Sensor: Nr:Datum:Temp:Feuchte:Taupunkt:
Aussen-T/F 1326 01-08-2018 14:25:00 21.2 C 94 % 20.19 C
1327 01-08-2018 14:30:00 21.4 C 94 % 20.39 C
1328 01-08-2018 14:35:00 21.6 C 94 % 20.59 C
1329 01-08-2018 14:40:00 21.7 C 94 % 20.69 C
1330 01-08-2018 14:45:00 21.5 C 93 % 20.32 C
1331 01-08-2018 14:50:00 21.5 C 94 % 20.49 C
1332 01-08-2018 14:55:00 21.4 C 93 % 20.22 C
1333 01-08-2018 15:00:00 21.3 C 93 % 20.12 C
1334 01-08-2018 15:05:00 21.2 C 93 % 20.02 C
1335 01-08-2018 15:10:00 21 C 92 % 19.65 C
1336 01-08-2018 15:15:00 20.8 C 93 % 19.63 C
1337 01-08-2018 15:20:00 20.6 C 92 % 19.25 C
1338 01-08-2018 15:25:00 20.4 C 92 % 19.06 C
1339 01-08-2018 15:30:00 20.4 C 93 % 19.23 C
1340 01-08-2018 15:35:00 20.4 C 93 % 19.23 C
1341 01-08-2018 15:40:00 20.4 C 93 % 19.23 C
1342 01-08-2018 15:45:00 20.4 C 94 % 19.4 C
1343 01-08-2018 15:50:00 20.4 C 94 % 19.4 C
1344 01-08-2018 15:55:00 20.5 C 94 % 19.5 C
1345 01-08-2018 16:00:00 20.6 C 94 % 19.6 C
1346 01-08-2018 16:05:00 20.6 C 94 % 19.6 C
1347 01-08-2018 16:10:00 20.7 C 94 % 19.7 C
1348 01-08-2018 16:15:00 20.7 C 94 % 19.7 C
1349 01-08-2018 16:20:00 20.7 C 94 % 19.7 C
1350 01-08-2018 16:25:00 20.8 C 94 % 19.8 C
Sensor: Nr:Datum:Temp:Feuchte:Taupunkt:
Aussen-T/F 1351 01-08-2018 16:30:00 20.8 C 94 % 19.8 C
1352 01-08-2018 16:35:00 20.9 C 94 % 19.9 C
1353 01-08-2018 16:40:00 20.9 C 94 % 19.9 C
1354 01-08-2018 16:45:00 21 C 94 % 20 C
1355 01-08-2018 16:50:00 21.1 C 94 % 20.1 C
1356 01-08-2018 16:55:00 21.2 C 94 % 20.19 C
1357 01-08-2018 17:00:00 21.2 C 95 % 20.37 C
1358 01-08-2018 17:05:00 21.2 C 94 % 20.19 C
1359 01-08-2018 17:10:00 21.2 C 94 % 20.19 C
1360 01-08-2018 17:15:00 21.2 C 94 % 20.19 C
1361 01-08-2018 17:20:00 21.1 C 94 % 20.1 C
1362 01-08-2018 17:25:00 20.9 C 94 % 19.9 C
1363 01-08-2018 17:30:00 20.8 C 94 % 19.8 C
1364 01-08-2018 17:35:00 20.8 C 94 % 19.8 C
1365 01-08-2018 17:40:00 20.8 C 94 % 19.8 C
1366 01-08-2018 17:45:00 20.9 C 95 % 20.07 C
1367 01-08-2018 17:50:00 21.1 C 95 % 20.27 C
1368 01-08-2018 17:55:00 21.3 C 95 % 20.47 C
1369 01-08-2018 18:00:00 21.5 C 95 % 20.66 C
1370 01-08-2018 18:05:00 21.9 C 95 % 21.06 C
1371 01-08-2018 18:10:00 22.3 C 93 % 21.11 C
1372 01-08-2018 18:15:00 22.6 C 91 % 21.05 C
1373 01-08-2018 18:20:00 22.7 C 89 % 20.79 C
1374 01-08-2018 18:25:00 22.9 C 88 % 20.81 C
1375 01-08-2018 18:30:00 23.1 C 88 % 21 C
Sensor: Nr:Datum:Temp:Feuchte:Taupunkt:
Aussen-T/F 1376 01-08-2018 18:35:00 23.4 C 90 % 21.66 C
1377 01-08-2018 18:40:00 23.4 C 89 % 21.48 C
1378 01-08-2018 18:45:00 23.6 C 89 % 21.68 C
1379 01-08-2018 18:50:00 23.6 C 89 % 21.68 C
1380 01-08-2018 18:55:00 23.6 C 89 % 21.68 C
1381 01-08-2018 19:00:00 23.5 C 89 % 21.58 C
1382 01-08-2018 19:05:00 23.4 C 89 % 21.48 C
1383 01-08-2018 19:10:00 23.4 C 89 % 21.48 C
1384 01-08-2018 19:15:00 23.3 C 89 % 21.38 C
1385 01-08-2018 19:20:00 23.3 C 89 % 21.38 C
1386 01-08-2018 19:25:00 23.2 C 89 % 21.28 C
1387 01-08-2018 19:30:00 23.3 C 89 % 21.38 C
1388 01-08-2018 19:35:00 23.2 C 89 % 21.28 C
1389 01-08-2018 19:40:00 23.1 C 88 % 21 C
1390 01-08-2018 19:45:00 22.9 C 88 % 20.81 C
1391 01-08-2018 19:50:00 22.7 C 88 % 20.61 C
1392 01-08-2018 19:55:00 22.7 C 90 % 20.97 C
1393 01-08-2018 20:00:00 22.7 C 90 % 20.97 C
1394 01-08-2018 20:05:00 22.7 C 90 % 20.97 C
1395 01-08-2018 20:10:00 22.7 C 90 % 20.97 C
1396 01-08-2018 20:15:00 22.7 C 90 % 20.97 C
1397 01-08-2018 20:20:00 22.7 C 90 % 20.97 C
1398 01-08-2018 20:25:00 22.7 C 90 % 20.97 C
1399 01-08-2018 20:30:00 22.6 C 89 % 20.69 C
1400 01-08-2018 20:35:00 22.6 C 89 % 20.69 C
Sensor: Nr:Datum:Temp:Feuchte:Taupunkt:
Aussen-T/F 1401 01-08-2018 20:40:00 22.4 C 89 % 20.5 C
1402 01-08-2018 20:45:00 22.3 C 89 % 20.4 C
1403 01-08-2018 20:50:00 22.1 C 89 % 20.2 C
1404 01-08-2018 20:55:00 21.9 C 89 % 20 C
1405 01-08-2018 21:00:00 21.7 C 89 % 19.81 C
1406 01-08-2018 21:05:00 21.6 C 89 % 19.71 C
1407 01-08-2018 21:10:00 21.3 C 90 % 19.59 C
1408 01-08-2018 21:15:00 21.1 C 90 % 19.39 C
1409 01-08-2018 21:20:00 21 C 90 % 19.3 C
1410 01-08-2018 21:25:00 20.8 C 90 % 19.1 C
1411 01-08-2018 21:30:00 20.7 C 91 % 19.18 C
1412 01-08-2018 21:35:00 20.6 C 91 % 19.08 C
1413 01-08-2018 21:40:00 20.5 C 91 % 18.98 C
1414 01-08-2018 21:45:00 20.4 C 92 % 19.06 C
1415 01-08-2018 21:50:00 20.3 C 92 % 18.96 C
1416 01-08-2018 21:55:00 20.2 C 92 % 18.86 C
1417 01-08-2018 22:00:00 20.2 C 92 % 18.86 C
1418 01-08-2018 22:05:00 20.1 C 92 % 18.76 C
1419 01-08-2018 22:10:00 20.1 C 92 % 18.76 C
1420 01-08-2018 22:15:00 20 C 93 % 18.83 C
1421 01-08-2018 22:20:00 19.9 C 92 % 18.56 C
1422 01-08-2018 22:25:00 19.8 C 92 % 18.46 C
1423 01-08-2018 22:30:00 19.7 C 93 % 18.54 C
1424 01-08-2018 22:35:00 19.6 C 93 % 18.44 C
1425 01-08-2018 22:40:00 19.5 C 92 % 18.17 C
Sensor: Nr:Datum:Temp:Feuchte:Taupunkt:
Aussen-T/F 1426 01-08-2018 22:45:00 19.4 C 93 % 18.24 C
1427 01-08-2018 22:50:00 19.3 C 93 % 18.14 C
1428 01-08-2018 22:55:00 19.3 C 93 % 18.14 C
1429 01-08-2018 23:00:00 19.2 C 93 % 18.04 C
1430 01-08-2018 23:05:00 19.2 C 93 % 18.04 C
1431 01-08-2018 23:10:00 19.1 C 93 % 17.94 C
1432 01-08-2018 23:15:00 19.1 C 93 % 17.94 C
1433 01-08-2018 23:20:00 18.9 C 93 % 17.74 C
1434 01-08-2018 23:25:00 18.9 C 93 % 17.74 C
1435 01-08-2018 23:30:00 18.8 C 94 % 17.81 C
1436 01-08-2018 23:35:00 18.8 C 94 % 17.81 C
1437 01-08-2018 23:40:00 18.7 C 94 % 17.71 C
1438 01-08-2018 23:45:00 18.7 C 94 % 17.71 C
1439 01-08-2018 23:50:00 18.6 C 94 % 17.62 C
1440 01-08-2018 23:55:00 18.5 C 94 % 17.52 C
1441 02-08-2018 00:00:00 18.4 C 94 % 17.42 C
1442 02-08-2018 00:05:00 18.3 C 94 % 17.32 C
1443 02-08-2018 00:10:00 18.3 C 94 % 17.32 C
1444 02-08-2018 00:15:00 18.3 C 94 % 17.32 C
1445 02-08-2018 00:20:00 18.2 C 94 % 17.22 C
1446 02-08-2018 00:25:00 18.2 C 94 % 17.22 C
1447 02-08-2018 00:30:00 18.2 C 95 % 17.39 C
1448 02-08-2018 00:35:00 18.1 C 94 % 17.12 C
1449 02-08-2018 00:40:00 18.1 C 94 % 17.12 C
1450 02-08-2018 00:45:00 18 C 94 % 17.02 C
Sensor: Nr:Datum:Temp:Feuchte:Taupunkt:
Aussen-T/F 1451 02-08-2018 00:50:00 18 C 94 % 17.02 C
1452 02-08-2018 00:55:00 17.9 C 95 % 17.09 C
1453 02-08-2018 01:00:00 17.9 C 95 % 17.09 C
1454 02-08-2018 01:05:00 17.9 C 95 % 17.09 C
1455 02-08-2018 01:10:00 17.8 C 95 % 16.99 C
1456 02-08-2018 01:15:00 17.8 C 95 % 16.99 C
1457 02-08-2018 01:20:00 17.7 C 94 % 16.72 C
1458 02-08-2018 01:25:00 17.7 C 95 % 16.89 C
1459 02-08-2018 01:30:00 17.7 C 95 % 16.89 C
1460 02-08-2018 01:35:00 17.7 C 95 % 16.89 C
1461 02-08-2018 01:40:00 17.7 C 95 % 16.89 C
1462 02-08-2018 01:45:00 17.6 C 95 % 16.79 C
1463 02-08-2018 01:50:00 17.6 C 95 % 16.79 C
1464 02-08-2018 01:55:00 17.7 C 95 % 16.89 C
1465 02-08-2018 02:00:00 17.8 C 95 % 16.99 C
1466 02-08-2018 02:05:00 17.9 C 96 % 17.25 C
1467 02-08-2018 02:10:00 18.1 C 96 % 17.45 C
1468 02-08-2018 02:15:00 18.2 C 96 % 17.55 C
1469 02-08-2018 02:20:00 18.2 C 96 % 17.55 C
1470 02-08-2018 02:25:00 18.2 C 95 % 17.39 C
1471 02-08-2018 02:30:00 18.2 C 95 % 17.39 C
1472 02-08-2018 02:35:00 18.1 C 95 % 17.29 C
1473 02-08-2018 02:40:00 17.9 C 95 % 17.09 C
1474 02-08-2018 02:45:00 17.8 C 95 % 16.99 C
1475 02-08-2018 02:50:00 17.8 C 95 % 16.99 C
Sensor: Nr:Datum:Temp:Feuchte:Taupunkt:
Aussen-T/F 1476 02-08-2018 02:55:00 18 C 96 % 17.35 C
1477 02-08-2018 03:00:00 18 C 96 % 17.35 C
1478 02-08-2018 03:05:00 17.9 C 96 % 17.25 C
1479 02-08-2018 03:10:00 17.8 C 95 % 16.99 C
1480 02-08-2018 03:15:00 17.8 C 95 % 16.99 C
1481 02-08-2018 03:20:00 17.9 C 95 % 17.09 C
1482 02-08-2018 03:25:00 18 C 96 % 17.35 C
1483 02-08-2018 03:30:00 18.1 C 96 % 17.45 C
1484 02-08-2018 03:35:00 18.2 C 96 % 17.55 C
1485 02-08-2018 03:40:00 18.2 C 96 % 17.55 C
1486 02-08-2018 03:45:00 18.2 C 96 % 17.55 C
1487 02-08-2018 03:50:00 18.2 C 96 % 17.55 C
1488 02-08-2018 03:55:00 18.2 C 96 % 17.55 C
1489 02-08-2018 04:00:00 18.1 C 96 % 17.45 C
1490 02-08-2018 04:05:00 18.1 C 96 % 17.45 C
1491 02-08-2018 04:10:00 18.1 C 96 % 17.45 C
1492 02-08-2018 04:15:00 18.1 C 96 % 17.45 C
1493 02-08-2018 04:20:00 18.1 C 96 % 17.45 C
1494 02-08-2018 04:25:00 18 C 96 % 17.35 C
1495 02-08-2018 04:30:00 17.9 C 96 % 17.25 C
1496 02-08-2018 04:35:00 17.9 C 96 % 17.25 C
1497 02-08-2018 04:40:00 17.9 C 96 % 17.25 C
1498 02-08-2018 04:45:00 17.9 C 96 % 17.25 C
1499 02-08-2018 04:50:00 17.9 C 96 % 17.25 C
1500 02-08-2018 04:55:00 17.9 C 96 % 17.25 C
Sensor: Nr:Datum:Temp:Feuchte:Taupunkt:
Aussen-T/F 1501 02-08-2018 05:00:00 17.9 C 96 % 17.25 C
1502 02-08-2018 05:05:00 17.9 C 96 % 17.25 C
1503 02-08-2018 05:10:00 17.9 C 96 % 17.25 C
1504 02-08-2018 05:15:00 17.8 C 96 % 17.15 C
1505 02-08-2018 05:20:00 17.7 C 96 % 17.05 C
1506 02-08-2018 05:25:00 17.7 C 96 % 17.05 C
1507 02-08-2018 05:30:00 17.6 C 96 % 16.95 C
1508 02-08-2018 05:35:00 17.5 C 95 % 16.69 C
1509 02-08-2018 05:40:00 17.4 C 96 % 16.76 C
1510 02-08-2018 05:45:00 17.4 C 96 % 16.76 C
1511 02-08-2018 05:50:00 17.4 C 96 % 16.76 C
1512 02-08-2018 05:55:00 17.4 C 96 % 16.76 C
1513 02-08-2018 06:00:00 17.5 C 96 % 16.85 C
1514 02-08-2018 06:05:00 17.5 C 96 % 16.85 C
1515 02-08-2018 06:10:00 17.5 C 96 % 16.85 C
1516 02-08-2018 06:15:00 17.5 C 96 % 16.85 C
1517 02-08-2018 06:20:00 17.5 C 96 % 16.85 C
1518 02-08-2018 06:25:00 17.5 C 96 % 16.85 C
1519 02-08-2018 06:30:00 17.5 C 96 % 16.85 C
1520 02-08-2018 06:35:00 17.4 C 96 % 16.76 C
1521 02-08-2018 06:40:00 17.4 C 96 % 16.76 C
1522 02-08-2018 06:45:00 17.4 C 95 % 16.59 C
1523 02-08-2018 06:50:00 17.4 C 95 % 16.59 C
1524 02-08-2018 06:55:00 17.4 C 95 % 16.59 C
1525 02-08-2018 07:00:00 17.5 C 95 % 16.69 C
Sensor: Nr:Datum:Temp:Feuchte:Taupunkt:
Aussen-T/F 1526 02-08-2018 07:05:00 17.5 C 95 % 16.69 C
1527 02-08-2018 07:10:00 17.6 C 95 % 16.79 C
1528 02-08-2018 07:15:00 17.6 C 95 % 16.79 C
1529 02-08-2018 07:20:00 17.6 C 95 % 16.79 C
1530 02-08-2018 07:25:00 17.6 C 95 % 16.79 C
1531 02-08-2018 07:30:00 17.6 C 95 % 16.79 C
1532 02-08-2018 07:35:00 17.6 C 95 % 16.79 C
1533 02-08-2018 07:40:00 17.6 C 95 % 16.79 C
1534 02-08-2018 07:45:00 17.6 C 95 % 16.79 C
1535 02-08-2018 07:50:00 17.6 C 95 % 16.79 C
1536 02-08-2018 07:55:00 17.7 C 95 % 16.89 C
1537 02-08-2018 08:00:00 17.7 C 95 % 16.89 C
1538 02-08-2018 08:05:00 17.7 C 95 % 16.89 C
1539 02-08-2018 08:10:00 17.7 C 95 % 16.89 C
1540 02-08-2018 08:15:00 17.7 C 95 % 16.89 C
1541 02-08-2018 08:20:00 17.8 C 95 % 16.99 C
1542 02-08-2018 08:25:00 17.8 C 95 % 16.99 C
1543 02-08-2018 08:30:00 17.8 C 95 % 16.99 C
1544 02-08-2018 08:35:00 17.8 C 95 % 16.99 C
1545 02-08-2018 08:40:00 17.8 C 95 % 16.99 C
1546 02-08-2018 08:45:00 17.9 C 95 % 17.09 C
1547 02-08-2018 08:50:00 18 C 95 % 17.19 C
1548 02-08-2018 08:55:00 18 C 95 % 17.19 C
1549 02-08-2018 09:00:00 18 C 95 % 17.19 C
1550 02-08-2018 09:05:00 18.1 C 95 % 17.29 C
Sensor: Nr:Datum:Temp:Feuchte:Taupunkt:
Aussen-T/F 1551 02-08-2018 09:10:00 18.1 C 95 % 17.29 C
1552 02-08-2018 09:15:00 18.3 C 95 % 17.48 C
1553 02-08-2018 09:20:00 18.3 C 95 % 17.48 C
1554 02-08-2018 09:25:00 18.4 C 95 % 17.58 C
1555 02-08-2018 09:30:00 18.5 C 95 % 17.68 C
1556 02-08-2018 09:35:00 18.6 C 95 % 17.78 C
1557 02-08-2018 09:40:00 18.7 C 95 % 17.88 C
1558 02-08-2018 09:45:00 18.9 C 95 % 18.08 C
1559 02-08-2018 09:50:00 18.9 C 95 % 18.08 C
1560 02-08-2018 09:55:00 18.8 C 95 % 17.98 C
1561 02-08-2018 10:00:00 18.8 C 94 % 17.81 C
1562 02-08-2018 10:05:00 18.8 C 94 % 17.81 C
1563 02-08-2018 10:10:00 18.8 C 94 % 17.81 C
1564 02-08-2018 10:15:00 18.9 C 95 % 18.08 C
1565 02-08-2018 10:20:00 19.1 C 94 % 18.11 C
1566 02-08-2018 10:25:00 19.2 C 94 % 18.21 C
1567 02-08-2018 10:30:00 19.3 C 94 % 18.31 C
1568 02-08-2018 10:35:00 19.4 C 94 % 18.41 C
1569 02-08-2018 10:40:00 19.6 C 93 % 18.44 C
1570 02-08-2018 10:45:00 19.7 C 93 % 18.54 C
1571 02-08-2018 10:50:00 19.8 C 92 % 18.46 C
1572 02-08-2018 10:55:00 20.1 C 92 % 18.76 C
1573 02-08-2018 11:00:00 20.3 C 91 % 18.78 C
1574 02-08-2018 11:05:00 20.6 C 90 % 18.9 C
1575 02-08-2018 11:10:00 20.7 C 90 % 19 C
Sensor: Nr:Datum:Temp:Feuchte:Taupunkt:
Aussen-T/F 1576 02-08-2018 11:15:00 20.9 C 90 % 19.2 C
1577 02-08-2018 11:20:00 21.1 C 90 % 19.39 C
1578 02-08-2018 11:25:00 21.2 C 89 % 19.31 C
1579 02-08-2018 11:30:00 21.4 C 89 % 19.51 C
1580 02-08-2018 11:35:00 21.6 C 89 % 19.71 C
1581 02-08-2018 11:40:00 21.8 C 87 % 19.54 C
1582 02-08-2018 11:45:00 22.1 C 87 % 19.83 C
1583 02-08-2018 11:50:00 22.2 C 87 % 19.93 C
1584 02-08-2018 11:55:00 22.3 C 84 % 19.46 C
1585 02-08-2018 12:00:00 22.5 C 85 % 19.85 C
1586 02-08-2018 12:05:00 22.7 C 85 % 20.05 C
1587 02-08-2018 12:10:00 22.9 C 86 % 20.43 C
1588 02-08-2018 12:15:00 23 C 81 % 19.56 C
1589 02-08-2018 12:20:00 23.3 C 79 % 19.45 C
1590 02-08-2018 12:25:00 23.7 C 81 % 20.24 C
1591 02-08-2018 12:30:00 24 C 78 % 19.92 C
1592 02-08-2018 12:35:00 24.4 C 73 % 19.24 C
1593 02-08-2018 12:40:00 24.8 C 71 % 19.18 C
1594 02-08-2018 12:45:00 25.2 C 70 % 19.34 C
1595 02-08-2018 12:50:00 25.5 C 69 % 19.39 C
1596 02-08-2018 12:55:00 25.8 C 70 % 19.91 C
1597 02-08-2018 13:00:00 25.9 C 72 % 20.46 C
1598 02-08-2018 13:05:00 26.1 C 69 % 19.96 C
1599 02-08-2018 13:10:00 26.2 C 68 % 19.82 C
1600 02-08-2018 13:15:00 26.3 C 68 % 19.92 C
Sensor: Nr:Datum:Temp:Feuchte:Taupunkt:
Aussen-T/F 1601 02-08-2018 13:20:00 26.7 C 67 % 20.06 C
1602 02-08-2018 13:25:00 26.8 C 66 % 19.91 C
1603 02-08-2018 13:30:00 26.9 C 66 % 20.01 C
1604 02-08-2018 13:35:00 27.1 C 64 % 19.7 C
1605 02-08-2018 13:40:00 27.2 C 65 % 20.04 C
1606 02-08-2018 13:45:00 27.4 C 64 % 19.98 C
1607 02-08-2018 13:50:00 27.6 C 62 % 19.66 C
1608 02-08-2018 13:55:00 27.7 C 63 % 20.01 C
1609 02-08-2018 14:00:00 27.9 C 63 % 20.2 C
1610 02-08-2018 14:05:00 28.1 C 62 % 20.13 C
1611 02-08-2018 14:10:00 28.3 C 61 % 20.06 C
1612 02-08-2018 14:15:00 28.3 C 61 % 20.06 C
1613 02-08-2018 14:20:00 28.4 C 60 % 19.88 C
1614 02-08-2018 14:25:00 28.5 C 61 % 20.24 C
1615 02-08-2018 14:30:00 28.6 C 59 % 19.8 C
1616 02-08-2018 14:35:00 28.7 C 61 % 20.43 C
1617 02-08-2018 14:40:00 28.9 C 59 % 20.08 C
1618 02-08-2018 14:45:00 29.1 C 57 % 19.71 C
1619 02-08-2018 14:50:00 29.2 C 58 % 20.08 C
1620 02-08-2018 14:55:00 29.5 C 57 % 20.08 C
1621 02-08-2018 15:00:00 29.7 C 57 % 20.27 C
1622 02-08-2018 15:05:00 29.7 C 57 % 20.27 C
1623 02-08-2018 15:10:00 29.8 C 57 % 20.36 C
1624 02-08-2018 15:15:00 29.9 C 55 % 19.88 C
1625 02-08-2018 15:20:00 30.1 C 55 % 20.06 C
Sensor: Nr:Datum:Temp:Feuchte:Taupunkt:
Aussen-T/F 1626 02-08-2018 15:25:00 30.4 C 52 % 19.43 C
1627 02-08-2018 15:30:00 30.7 C 51 % 19.4 C
1628 02-08-2018 15:35:00 31.1 C 51 % 19.76 C
1629 02-08-2018 15:40:00 31.4 C 49 % 19.39 C
1630 02-08-2018 15:45:00 31.8 C 49 % 19.76 C
1631 02-08-2018 15:50:00 32.1 C 46 % 19.02 C
1632 02-08-2018 15:55:00 32.2 C 45 % 18.75 C
1633 02-08-2018 16:00:00 32.3 C 47 % 19.54 C
1634 02-08-2018 16:05:00 32.5 C 46 % 19.38 C
1635 02-08-2018 16:10:00 32.7 C 44 % 18.84 C
1636 02-08-2018 16:15:00 32.8 C 40 % 17.42 C
1637 02-08-2018 16:20:00 33.1 C 42 % 18.46 C
1638 02-08-2018 16:25:00 33.3 C 40 % 17.86 C
1639 02-08-2018 16:30:00 33.3 C 40 % 17.86 C
1640 02-08-2018 16:35:00 33.3 C 42 % 18.64 C
1641 02-08-2018 16:40:00 33.4 C 40 % 17.95 C
1642 02-08-2018 16:45:00 33.6 C 40 % 18.13 C
1643 02-08-2018 16:50:00 33.6 C 39 % 17.73 C
1644 02-08-2018 16:55:00 33.8 C 40 % 18.31 C
1645 02-08-2018 17:00:00 34.1 C 40 % 18.57 C
1646 02-08-2018 17:05:00 34.3 C 38 % 17.93 C
1647 02-08-2018 17:10:00 34.4 C 39 % 18.43 C
1648 02-08-2018 17:15:00 34.3 C 40 % 18.75 C
1649 02-08-2018 17:20:00 34.2 C 39 % 18.26 C
1650 02-08-2018 17:25:00 34.1 C 39 % 18.17 C
Sensor: Nr:Datum:Temp:Feuchte:Taupunkt:
Aussen-T/F 1651 02-08-2018 17:30:00 33.9 C 40 % 18.4 C
1652 02-08-2018 17:35:00 34 C 37 % 17.25 C
1653 02-08-2018 17:40:00 34.1 C 38 % 17.76 C
1654 02-08-2018 17:45:00 34.3 C 38 % 17.93 C
1655 02-08-2018 17:50:00 34.3 C 39 % 18.35 C
1656 02-08-2018 17:55:00 34.5 C 37 % 17.69 C
1657 02-08-2018 18:00:00 34.6 C 37 % 17.77 C
1658 02-08-2018 18:05:00 34.5 C 36 % 17.25 C
1659 02-08-2018 18:10:00 34.3 C 36 % 17.08 C
1660 02-08-2018 18:15:00 34.2 C 37 % 17.42 C
1661 02-08-2018 18:20:00 34.2 C 36 % 16.99 C
1662 02-08-2018 18:25:00 34.3 C 37 % 17.51 C
1663 02-08-2018 18:30:00 34.4 C 36 % 17.16 C
1664 02-08-2018 18:35:00 34.4 C 37 % 17.6 C
1665 02-08-2018 18:40:00 34.3 C 37 % 17.51 C
1666 02-08-2018 18:45:00 34.3 C 37 % 17.51 C
1667 02-08-2018 18:50:00 34.2 C 35 % 16.54 C
1668 02-08-2018 18:55:00 34.1 C 36 % 16.9 C
1669 02-08-2018 19:00:00 34.2 C 35 % 16.54 C
1670 02-08-2018 19:05:00 34.2 C 36 % 16.99 C
1671 02-08-2018 19:10:00 34.2 C 36 % 16.99 C
1672 02-08-2018 19:15:00 34 C 37 % 17.25 C
1673 02-08-2018 19:20:00 33.7 C 37 % 16.98 C
1674 02-08-2018 19:25:00 33.4 C 36 % 16.29 C
1675 02-08-2018 19:30:00 33.2 C 36 % 16.11 C
Sensor: Nr:Datum:Temp:Feuchte:Taupunkt:
Aussen-T/F 1676 02-08-2018 19:35:00 32.9 C 36 % 15.85 C
1677 02-08-2018 19:40:00 32.8 C 38 % 16.61 C
1678 02-08-2018 19:45:00 32.7 C 36 % 15.67 C
1679 02-08-2018 19:50:00 32.6 C 37 % 16.01 C
1680 02-08-2018 19:55:00 32.4 C 38 % 16.25 C
1681 02-08-2018 20:00:00 32.3 C 40 % 16.97 C
1682 02-08-2018 20:05:00 32.1 C 38 % 15.99 C
1683 02-08-2018 20:10:00 32 C 39 % 16.31 C
1684 02-08-2018 20:15:00 31.9 C 44 % 18.12 C
1685 02-08-2018 20:20:00 31.7 C 44 % 17.94 C
1686 02-08-2018 20:25:00 31.3 C 45 % 17.94 C
1687 02-08-2018 20:30:00 30.9 C 43 % 16.86 C
1688 02-08-2018 20:35:00 30.4 C 49 % 18.48 C
1689 02-08-2018 20:40:00 29.9 C 50 % 18.35 C
1690 02-08-2018 20:45:00 29.4 C 53 % 18.82 C
1691 02-08-2018 20:50:00 28.8 C 56 % 19.14 C
1692 02-08-2018 20:55:00 28.2 C 58 % 19.15 C
1693 02-08-2018 21:00:00 27.7 C 58 % 18.68 C
1694 02-08-2018 21:05:00 27.2 C 58 % 18.22 C
1695 02-08-2018 21:10:00 26.8 C 58 % 17.84 C
1696 02-08-2018 21:15:00 26.5 C 60 % 18.1 C
1697 02-08-2018 21:20:00 26.2 C 60 % 17.82 C
1698 02-08-2018 21:25:00 25.9 C 61 % 17.8 C
1699 02-08-2018 21:30:00 25.7 C 62 % 17.87 C
1700 02-08-2018 21:35:00 25.6 C 61 % 17.52 C
Sensor: Nr:Datum:Temp:Feuchte:Taupunkt:
Aussen-T/F 1701 02-08-2018 21:40:00 25.4 C 62 % 17.59 C
1702 02-08-2018 21:45:00 25.3 C 61 % 17.24 C
1703 02-08-2018 21:50:00 25.2 C 61 % 17.14 C
1704 02-08-2018 21:55:00 25.1 C 62 % 17.31 C
1705 02-08-2018 22:00:00 24.9 C 63 % 17.37 C
1706 02-08-2018 22:05:00 24.8 C 63 % 17.28 C
1707 02-08-2018 22:10:00 24.6 C 63 % 17.09 C
1708 02-08-2018 22:15:00 24.5 C 63 % 16.99 C
1709 02-08-2018 22:20:00 24.4 C 63 % 16.9 C
1710 02-08-2018 22:25:00 24.3 C 66 % 17.54 C
1711 02-08-2018 22:30:00 24.1 C 64 % 16.86 C
1712 02-08-2018 22:35:00 24 C 65 % 17.01 C
1713 02-08-2018 22:40:00 23.9 C 66 % 17.16 C
1714 02-08-2018 22:45:00 23.9 C 67 % 17.4 C
1715 02-08-2018 22:50:00 23.8 C 67 % 17.3 C
1716 02-08-2018 22:55:00 23.8 C 67 % 17.3 C
1717 02-08-2018 23:00:00 23.8 C 67 % 17.3 C
1718 02-08-2018 23:05:00 23.8 C 65 % 16.83 C
1719 02-08-2018 23:10:00 23.9 C 65 % 16.92 C
1720 02-08-2018 23:15:00 23.9 C 66 % 17.16 C
1721 02-08-2018 23:20:00 23.9 C 66 % 17.16 C
1722 02-08-2018 23:25:00 23.9 C 65 % 16.92 C
1723 02-08-2018 23:30:00 23.8 C 66 % 17.07 C
1724 02-08-2018 23:35:00 23.8 C 67 % 17.3 C
1725 02-08-2018 23:40:00 23.7 C 67 % 17.21 C
Sensor: Nr:Datum:Temp:Feuchte:Taupunkt:
Aussen-T/F 1726 02-08-2018 23:45:00 23.6 C 66 % 16.88 C
1727 02-08-2018 23:50:00 23.4 C 65 % 16.45 C
1728 02-08-2018 23:55:00 23.4 C 67 % 16.92 C
1729 03-08-2018 00:00:00 23.3 C 68 % 17.06 C
1730 03-08-2018 00:05:00 23.2 C 68 % 16.97 C
1731 03-08-2018 00:10:00 23.1 C 68 % 16.87 C
1732 03-08-2018 00:15:00 23.1 C 69 % 17.1 C
1733 03-08-2018 00:20:00 22.9 C 69 % 16.91 C
1734 03-08-2018 00:25:00 22.8 C 68 % 16.59 C
1735 03-08-2018 00:30:00 22.8 C 70 % 17.04 C
1736 03-08-2018 00:35:00 22.7 C 70 % 16.95 C
1737 03-08-2018 00:40:00 22.6 C 69 % 16.62 C
1738 03-08-2018 00:45:00 22.6 C 70 % 16.85 C
1739 03-08-2018 00:50:00 22.4 C 71 % 16.88 C
1740 03-08-2018 00:55:00 22.4 C 71 % 16.88 C
1741 03-08-2018 01:00:00 22.3 C 71 % 16.79 C
1742 03-08-2018 01:05:00 22.3 C 72 % 17.01 C
1743 03-08-2018 01:10:00 22.3 C 71 % 16.79 C
1744 03-08-2018 01:15:00 22.2 C 72 % 16.91 C
1745 03-08-2018 01:20:00 22.2 C 71 % 16.69 C
1746 03-08-2018 01:25:00 22.1 C 73 % 17.03 C
1747 03-08-2018 01:30:00 22 C 73 % 16.94 C
1748 03-08-2018 01:35:00 21.9 C 73 % 16.84 C
1749 03-08-2018 01:40:00 21.8 C 73 % 16.75 C
1750 03-08-2018 01:45:00 21.7 C 74 % 16.86 C
Sensor: Nr:Datum:Temp:Feuchte:Taupunkt:
Aussen-T/F 1751 03-08-2018 01:50:00 21.6 C 74 % 16.77 C
1752 03-08-2018 01:55:00 21.5 C 75 % 16.88 C
1753 03-08-2018 02:00:00 21.4 C 75 % 16.79 C
1754 03-08-2018 02:05:00 21.3 C 76 % 16.9 C
1755 03-08-2018 02:10:00 21.2 C 76 % 16.8 C
1756 03-08-2018 02:15:00 21.2 C 76 % 16.8 C
1757 03-08-2018 02:20:00 21.1 C 76 % 16.7 C
1758 03-08-2018 02:25:00 20.9 C 76 % 16.51 C
1759 03-08-2018 02:30:00 20.9 C 76 % 16.51 C
1760 03-08-2018 02:35:00 20.8 C 76 % 16.41 C
1761 03-08-2018 02:40:00 20.8 C 76 % 16.41 C
1762 03-08-2018 02:45:00 20.8 C 77 % 16.62 C
1763 03-08-2018 02:50:00 20.8 C 76 % 16.41 C
1764 03-08-2018 02:55:00 20.7 C 77 % 16.52 C
1765 03-08-2018 03:00:00 20.7 C 78 % 16.73 C
1766 03-08-2018 03:05:00 20.5 C 78 % 16.53 C
1767 03-08-2018 03:10:00 20.4 C 78 % 16.44 C
1768 03-08-2018 03:15:00 20.3 C 79 % 16.54 C
1769 03-08-2018 03:20:00 20.2 C 78 % 16.24 C
1770 03-08-2018 03:25:00 20.1 C 79 % 16.34 C
1771 03-08-2018 03:30:00 20 C 79 % 16.25 C
1772 03-08-2018 03:35:00 19.9 C 79 % 16.15 C
1773 03-08-2018 03:40:00 19.9 C 80 % 16.35 C
1774 03-08-2018 03:45:00 19.8 C 80 % 16.25 C
1775 03-08-2018 03:50:00 19.8 C 80 % 16.25 C
Sensor: Nr:Datum:Temp:Feuchte:Taupunkt:
Aussen-T/F 1776 03-08-2018 03:55:00 19.7 C 80 % 16.15 C
1777 03-08-2018 04:00:00 19.7 C 80 % 16.15 C
1778 03-08-2018 04:05:00 19.6 C 81 % 16.25 C
1779 03-08-2018 04:10:00 19.5 C 81 % 16.15 C
1780 03-08-2018 04:15:00 19.4 C 81 % 16.06 C
1781 03-08-2018 04:20:00 19.4 C 81 % 16.06 C
1782 03-08-2018 04:25:00 19.4 C 81 % 16.06 C
1783 03-08-2018 04:30:00 19.3 C 81 % 15.96 C
1784 03-08-2018 04:35:00 19.3 C 82 % 16.15 C
1785 03-08-2018 04:40:00 19.3 C 81 % 15.96 C
1786 03-08-2018 04:45:00 19.3 C 81 % 15.96 C
1787 03-08-2018 04:50:00 19.3 C 81 % 15.96 C
1788 03-08-2018 04:55:00 19.3 C 81 % 15.96 C
1789 03-08-2018 05:00:00 19.2 C 81 % 15.86 C
1790 03-08-2018 05:05:00 19.2 C 82 % 16.05 C
1791 03-08-2018 05:10:00 19.1 C 82 % 15.96 C
1792 03-08-2018 05:15:00 18.9 C 82 % 15.76 C
1793 03-08-2018 05:20:00 18.9 C 82 % 15.76 C
1794 03-08-2018 05:25:00 18.9 C 83 % 15.95 C
1795 03-08-2018 05:30:00 18.8 C 83 % 15.85 C
1796 03-08-2018 05:35:00 18.8 C 83 % 15.85 C
1797 03-08-2018 05:40:00 18.7 C 83 % 15.75 C
1798 03-08-2018 05:45:00 18.7 C 84 % 15.94 C
1799 03-08-2018 05:50:00 18.6 C 83 % 15.66 C
1800 03-08-2018 05:55:00 18.6 C 83 % 15.66 C
Sensor: Nr:Datum:Temp:Feuchte:Taupunkt:
Aussen-T/F 1801 03-08-2018 06:00:00 18.5 C 84 % 15.75 C
1802 03-08-2018 06:05:00 18.4 C 84 % 15.65 C
1803 03-08-2018 06:10:00 18.4 C 84 % 15.65 C
1804 03-08-2018 06:15:00 18.4 C 85 % 15.83 C
1805 03-08-2018 06:20:00 18.3 C 84 % 15.55 C
1806 03-08-2018 06:25:00 18.3 C 85 % 15.74 C
1807 03-08-2018 06:30:00 18.3 C 85 % 15.74 C
1808 03-08-2018 06:35:00 18.3 C 85 % 15.74 C
1809 03-08-2018 06:40:00 18.3 C 85 % 15.74 C
1810 03-08-2018 06:45:00 18.3 C 85 % 15.74 C
1811 03-08-2018 06:50:00 18.3 C 85 % 15.74 C
1812 03-08-2018 06:55:00 18.3 C 85 % 15.74 C
1813 03-08-2018 07:00:00 18.3 C 86 % 15.92 C
1814 03-08-2018 07:05:00 18.3 C 86 % 15.92 C
1815 03-08-2018 07:10:00 18.3 C 86 % 15.92 C
1816 03-08-2018 07:15:00 18.4 C 86 % 16.02 C
1817 03-08-2018 07:20:00 18.4 C 86 % 16.02 C
1818 03-08-2018 07:25:00 18.5 C 86 % 16.11 C
1819 03-08-2018 07:30:00 18.5 C 87 % 16.3 C
1820 03-08-2018 07:35:00 18.6 C 87 % 16.39 C
1821 03-08-2018 07:40:00 18.6 C 87 % 16.39 C
1822 03-08-2018 07:45:00 18.7 C 87 % 16.49 C
1823 03-08-2018 07:50:00 18.8 C 87 % 16.59 C
1824 03-08-2018 07:55:00 18.8 C 87 % 16.59 C
1825 03-08-2018 08:00:00 18.9 C 87 % 16.69 C
Sensor: Nr:Datum:Temp:Feuchte:Taupunkt:
Aussen-T/F 1826 03-08-2018 08:05:00 19 C 86 % 16.6 C
1827 03-08-2018 08:10:00 19.2 C 86 % 16.8 C
1828 03-08-2018 08:15:00 19.3 C 86 % 16.9 C
1829 03-08-2018 08:20:00 19.4 C 85 % 16.81 C
1830 03-08-2018 08:25:00 19.4 C 85 % 16.81 C
1831 03-08-2018 08:30:00 19.6 C 86 % 17.19 C
1832 03-08-2018 08:35:00 19.7 C 85 % 17.11 C
1833 03-08-2018 08:40:00 19.8 C 86 % 17.39 C
1834 03-08-2018 08:45:00 19.9 C 85 % 17.3 C
1835 03-08-2018 08:50:00 20.1 C 84 % 17.31 C
1836 03-08-2018 08:55:00 20.2 C 85 % 17.6 C
1837 03-08-2018 09:00:00 20.3 C 85 % 17.7 C
1838 03-08-2018 09:05:00 20.4 C 84 % 17.61 C
1839 03-08-2018 09:10:00 20.6 C 84 % 17.8 C
1840 03-08-2018 09:15:00 20.7 C 84 % 17.9 C
1841 03-08-2018 09:20:00 20.8 C 84 % 18 C
1842 03-08-2018 09:25:00 20.9 C 84 % 18.09 C
1843 03-08-2018 09:30:00 21 C 83 % 18 C
1844 03-08-2018 09:35:00 21.1 C 83 % 18.1 C
1845 03-08-2018 09:40:00 21.3 C 81 % 17.91 C
1846 03-08-2018 09:45:00 21.5 C 81 % 18.1 C
1847 03-08-2018 09:50:00 21.7 C 79 % 17.9 C
1848 03-08-2018 09:55:00 21.9 C 80 % 18.29 C
1849 03-08-2018 10:00:00 22.2 C 79 % 18.38 C
1850 03-08-2018 10:05:00 22.4 C 78 % 18.37 C
Sensor: Nr:Datum:Temp:Feuchte:Taupunkt:
Aussen-T/F 1851 03-08-2018 10:10:00 22.6 C 78 % 18.57 C
1852 03-08-2018 10:15:00 22.8 C 79 % 18.97 C
1853 03-08-2018 10:20:00 22.9 C 76 % 18.44 C
1854 03-08-2018 10:25:00 23.2 C 77 % 18.94 C
1855 03-08-2018 10:30:00 23.4 C 76 % 18.93 C
1856 03-08-2018 10:35:00 23.7 C 75 % 19 C
1857 03-08-2018 10:40:00 23.9 C 75 % 19.2 C
1858 03-08-2018 10:45:00 24.3 C 75 % 19.58 C
1859 03-08-2018 10:50:00 24.6 C 73 % 19.44 C
1860 03-08-2018 10:55:00 24.8 C 73 % 19.63 C
1861 03-08-2018 11:00:00 25 C 71 % 19.37 C
1862 03-08-2018 11:05:00 25.2 C 69 % 19.11 C
1863 03-08-2018 11:10:00 25.7 C 67 % 19.11 C
1864 03-08-2018 11:15:00 26 C 66 % 19.15 C
1865 03-08-2018 11:20:00 26.3 C 69 % 20.16 C
1866 03-08-2018 11:25:00 26.4 C 66 % 19.53 C
1867 03-08-2018 11:30:00 26.8 C 63 % 19.16 C
1868 03-08-2018 11:35:00 27 C 64 % 19.61 C
1869 03-08-2018 11:40:00 27.2 C 63 % 19.54 C
1870 03-08-2018 11:45:00 27.3 C 63 % 19.63 C
1871 03-08-2018 11:50:00 27.4 C 62 % 19.47 C
1872 03-08-2018 11:55:00 27.6 C 62 % 19.66 C
1873 03-08-2018 12:00:00 27.8 C 61 % 19.59 C
1874 03-08-2018 12:05:00 28 C 59 % 19.24 C
1875 03-08-2018 12:10:00 28.3 C 59 % 19.52 C
Sensor: Nr:Datum:Temp:Feuchte:Taupunkt:
Aussen-T/F 1876 03-08-2018 12:15:00 28.6 C 59 % 19.8 C
1877 03-08-2018 12:20:00 28.8 C 58 % 19.71 C
1878 03-08-2018 12:25:00 29.1 C 57 % 19.71 C
1879 03-08-2018 12:30:00 29.3 C 55 % 19.32 C
1880 03-08-2018 12:35:00 29.4 C 58 % 20.27 C
1881 03-08-2018 12:40:00 29.5 C 55 % 19.5 C
1882 03-08-2018 12:45:00 29.7 C 52 % 18.79 C
1883 03-08-2018 12:50:00 30.1 C 50 % 18.53 C
1884 03-08-2018 12:55:00 30.3 C 50 % 18.71 C
1885 03-08-2018 13:00:00 30.5 C 49 % 18.57 C
1886 03-08-2018 13:05:00 30.8 C 47 % 18.18 C
1887 03-08-2018 13:10:00 30.9 C 48 % 18.61 C
1888 03-08-2018 13:15:00 31.1 C 47 % 18.45 C
1889 03-08-2018 13:20:00 31.3 C 47 % 18.63 C
1890 03-08-2018 13:25:00 31.4 C 46 % 18.38 C
1891 03-08-2018 13:30:00 31.6 C 46 % 18.56 C
1892 03-08-2018 13:35:00 31.7 C 45 % 18.3 C
1893 03-08-2018 13:40:00 31.6 C 44 % 17.85 C
1894 03-08-2018 13:45:00 31.6 C 44 % 17.85 C
1895 03-08-2018 13:50:00 31.7 C 43 % 17.58 C
1896 03-08-2018 13:55:00 31.9 C 43 % 17.76 C
1897 03-08-2018 14:00:00 32.1 C 43 % 17.94 C
1898 03-08-2018 14:05:00 32.3 C 43 % 18.12 C
1899 03-08-2018 14:10:00 32.3 C 41 % 17.36 C
1900 03-08-2018 14:15:00 32.4 C 43 % 18.21 C
Sensor: Nr:Datum:Temp:Feuchte:Taupunkt:
Aussen-T/F 1901 03-08-2018 14:20:00 32.6 C 41 % 17.63 C
1902 03-08-2018 14:25:00 32.6 C 40 % 17.24 C
1903 03-08-2018 14:30:00 32.6 C 40 % 17.24 C
1904 03-08-2018 14:35:00 32.7 C 41 % 17.72 C
1905 03-08-2018 14:40:00 32.9 C 39 % 17.11 C
1906 03-08-2018 14:45:00 33 C 40 % 17.59 C
1907 03-08-2018 14:50:00 33.2 C 38 % 16.96 C
1908 03-08-2018 14:55:00 33.2 C 37 % 16.54 C
1909 03-08-2018 15:00:00 33.3 C 38 % 17.05 C
1910 03-08-2018 15:05:00 33.4 C 38 % 17.14 C
1911 03-08-2018 15:10:00 33.6 C 38 % 17.31 C
1912 03-08-2018 15:15:00 33.8 C 37 % 17.07 C
1913 03-08-2018 15:20:00 33.9 C 38 % 17.58 C
1914 03-08-2018 15:25:00 34.1 C 36 % 16.9 C
1915 03-08-2018 15:30:00 34.4 C 37 % 17.6 C
1916 03-08-2018 15:35:00 34.8 C 37 % 17.95 C
1917 03-08-2018 15:40:00 35.2 C 34 % 16.96 C
1918 03-08-2018 15:45:00 35.4 C 35 % 17.59 C
1919 03-08-2018 15:50:00 35.4 C 34 % 17.13 C
1920 03-08-2018 15:55:00 35.4 C 34 % 17.13 C
1921 03-08-2018 16:00:00 35.4 C 34 % 17.13 C
1922 03-08-2018 16:05:00 35.7 C 34 % 17.4 C
1923 03-08-2018 16:10:00 35.9 C 33 % 17.1 C
1924 03-08-2018 16:15:00 35.8 C 32 % 16.53 C
1925 03-08-2018 16:20:00 35.6 C 33 % 16.84 C
Sensor: Nr:Datum:Temp:Feuchte:Taupunkt:
Aussen-T/F 1926 03-08-2018 16:25:00 35.7 C 33 % 16.92 C
1927 03-08-2018 16:30:00 36.1 C 33 % 17.27 C
1928 03-08-2018 16:35:00 36.2 C 33 % 17.36 C
1929 03-08-2018 16:40:00 36.4 C 32 % 17.04 C
1930 03-08-2018 16:45:00 36.6 C 32 % 17.22 C
1931 03-08-2018 16:50:00 36.8 C 32 % 17.39 C
1932 03-08-2018 16:55:00 36.9 C 32 % 17.48 C
1933 03-08-2018 17:00:00 37 C 32 % 17.56 C
1934 03-08-2018 17:05:00 36.9 C 31 % 16.97 C
1935 03-08-2018 17:10:00 36.2 C 32 % 16.87 C
1936 03-08-2018 17:15:00 35.5 C 33 % 16.75 C
1937 03-08-2018 17:20:00 35.2 C 33 % 16.49 C
1938 03-08-2018 17:25:00 35.2 C 33 % 16.49 C
1939 03-08-2018 17:30:00 35.6 C 33 % 16.84 C
1940 03-08-2018 17:35:00 36 C 31 % 16.2 C
1941 03-08-2018 17:40:00 36.2 C 31 % 16.37 C
1942 03-08-2018 17:45:00 35.9 C 32 % 16.61 C
1943 03-08-2018 17:50:00 35.9 C 32 % 16.61 C
1944 03-08-2018 17:55:00 36.2 C 31 % 16.37 C
1945 03-08-2018 18:00:00 36.6 C 30 % 16.2 C
1946 03-08-2018 18:05:00 36.3 C 30 % 15.94 C
1947 03-08-2018 18:10:00 36.2 C 30 % 15.86 C
1948 03-08-2018 18:15:00 36.3 C 31 % 16.46 C
1949 03-08-2018 18:20:00 36.4 C 30 % 16.03 C
1950 03-08-2018 18:25:00 36.4 C 29 % 15.5 C
Sensor: Nr:Datum:Temp:Feuchte:Taupunkt:
Aussen-T/F 1951 03-08-2018 18:30:00 36.4 C 30 % 16.03 C
1952 03-08-2018 18:35:00 36.7 C 29 % 15.76 C
1953 03-08-2018 18:40:00 36.9 C 29 % 15.93 C
1954 03-08-2018 18:45:00 37.1 C 28 % 15.55 C
1955 03-08-2018 18:50:00 37 C 29 % 16.01 C
1956 03-08-2018 18:55:00 37 C 30 % 16.54 C
1957 03-08-2018 19:00:00 36.9 C 30 % 16.46 C
1958 03-08-2018 19:05:00 36.8 C 29 % 15.84 C
1959 03-08-2018 19:10:00 36.6 C 29 % 15.67 C
1960 03-08-2018 19:15:00 36.3 C 30 % 15.94 C
1961 03-08-2018 19:20:00 36.1 C 29 % 15.24 C
1962 03-08-2018 19:25:00 35.8 C 31 % 16.03 C
1963 03-08-2018 19:30:00 35.6 C 32 % 16.35 C
1964 03-08-2018 19:35:00 35.4 C 31 % 15.68 C
1965 03-08-2018 19:40:00 35.2 C 31 % 15.51 C
1966 03-08-2018 19:45:00 35.1 C 34 % 16.87 C
1967 03-08-2018 19:50:00 35 C 33 % 16.32 C
1968 03-08-2018 19:55:00 34.8 C 33 % 16.14 C
1969 03-08-2018 20:00:00 34.7 C 33 % 16.06 C
1970 03-08-2018 20:05:00 34.5 C 34 % 16.35 C
1971 03-08-2018 20:10:00 34.3 C 39 % 18.35 C
1972 03-08-2018 20:15:00 34.1 C 40 % 18.57 C
1973 03-08-2018 20:20:00 33.6 C 42 % 18.91 C
1974 03-08-2018 20:25:00 33.2 C 43 % 18.93 C
1975 03-08-2018 20:30:00 32.6 C 43 % 18.39 C
Sensor: Nr:Datum:Temp:Feuchte:Taupunkt:
Aussen-T/F 1976 03-08-2018 20:35:00 31.9 C 46 % 18.83 C
1977 03-08-2018 20:40:00 31.3 C 47 % 18.63 C
1978 03-08-2018 20:45:00 30.8 C 48 % 18.52 C
1979 03-08-2018 20:50:00 30.2 C 50 % 18.62 C
1980 03-08-2018 20:55:00 29.7 C 50 % 18.16 C
1981 03-08-2018 21:00:00 29.3 C 52 % 18.42 C
1982 03-08-2018 21:05:00 28.9 C 52 % 18.05 C
1983 03-08-2018 21:10:00 28.6 C 53 % 18.08 C
1984 03-08-2018 21:15:00 28.3 C 53 % 17.8 C
1985 03-08-2018 21:20:00 28.1 C 55 % 18.21 C
1986 03-08-2018 21:25:00 27.8 C 56 % 18.22 C
1987 03-08-2018 21:30:00 27.6 C 55 % 17.74 C
1988 03-08-2018 21:35:00 27.5 C 54 % 17.36 C
1989 03-08-2018 21:40:00 27.4 C 55 % 17.56 C
1990 03-08-2018 21:45:00 27.3 C 55 % 17.47 C
1991 03-08-2018 21:50:00 27.2 C 55 % 17.37 C
1992 03-08-2018 21:55:00 27.1 C 56 % 17.57 C
1993 03-08-2018 22:00:00 26.9 C 57 % 17.66 C
1994 03-08-2018 22:05:00 26.8 C 56 % 17.29 C
1995 03-08-2018 22:10:00 26.7 C 58 % 17.75 C
1996 03-08-2018 22:15:00 26.5 C 60 % 18.1 C
1997 03-08-2018 22:20:00 26.3 C 61 % 18.18 C
1998 03-08-2018 22:25:00 26.1 C 60 % 17.73 C
1999 03-08-2018 22:30:00 25.9 C 60 % 17.54 C
2000 03-08-2018 22:35:00 25.8 C 60 % 17.45 C
Sensor: Nr:Datum:Temp:Feuchte:Taupunkt:
Aussen-T/F 2001 03-08-2018 22:40:00 25.7 C 61 % 17.61 C
2002 03-08-2018 22:45:00 25.7 C 60 % 17.35 C
2003 03-08-2018 22:50:00 25.7 C 59 % 17.09 C
2004 03-08-2018 22:55:00 25.8 C 61 % 17.71 C
2005 03-08-2018 23:00:00 25.7 C 59 % 17.09 C
2006 03-08-2018 23:05:00 25.7 C 60 % 17.35 C
2007 03-08-2018 23:10:00 25.6 C 61 % 17.52 C
2008 03-08-2018 23:15:00 25.5 C 62 % 17.68 C
2009 03-08-2018 23:20:00 25.4 C 61 % 17.33 C
2010 03-08-2018 23:25:00 25.3 C 61 % 17.24 C
2011 03-08-2018 23:30:00 25.2 C 64 % 17.9 C
2012 03-08-2018 23:35:00 25 C 64 % 17.72 C
2013 03-08-2018 23:40:00 24.8 C 63 % 17.28 C
2014 03-08-2018 23:45:00 24.7 C 65 % 17.68 C
2015 03-08-2018 23:50:00 24.5 C 66 % 17.73 C
2016 03-08-2018 23:55:00 24.3 C 65 % 17.3 C
2017 04-08-2018 00:00:00 24.2 C 65 % 17.2 C
2018 04-08-2018 00:05:00 24.1 C 66 % 17.35 C
2019 04-08-2018 00:10:00 23.8 C 65 % 16.83 C
2020 04-08-2018 00:15:00 23.7 C 65 % 16.73 C
2021 04-08-2018 00:20:00 23.6 C 67 % 17.11 C
2022 04-08-2018 00:25:00 23.6 C 68 % 17.35 C
2023 04-08-2018 00:30:00 23.6 C 68 % 17.35 C
2024 04-08-2018 00:35:00 23.4 C 68 % 17.16 C
2025 04-08-2018 00:40:00 23.2 C 68 % 16.97 C
Sensor: Nr:Datum:Temp:Feuchte:Taupunkt:
Aussen-T/F 2026 04-08-2018 00:45:00 22.9 C 69 % 16.91 C
2027 04-08-2018 00:50:00 22.7 C 69 % 16.72 C
2028 04-08-2018 00:55:00 22.6 C 70 % 16.85 C
2029 04-08-2018 01:00:00 22.6 C 70 % 16.85 C
2030 04-08-2018 01:05:00 22.4 C 70 % 16.66 C
2031 04-08-2018 01:10:00 22.3 C 71 % 16.79 C
2032 04-08-2018 01:15:00 22.1 C 72 % 16.82 C
2033 04-08-2018 01:20:00 22.1 C 73 % 17.03 C
2034 04-08-2018 01:25:00 22 C 72 % 16.72 C
2035 04-08-2018 01:30:00 21.8 C 73 % 16.75 C
2036 04-08-2018 01:35:00 21.7 C 73 % 16.65 C
2037 04-08-2018 01:40:00 21.7 C 74 % 16.86 C
2038 04-08-2018 01:45:00 21.6 C 73 % 16.55 C
2039 04-08-2018 01:50:00 21.5 C 74 % 16.67 C
2040 04-08-2018 01:55:00 21.4 C 74 % 16.57 C
2041 04-08-2018 02:00:00 21.3 C 75 % 16.69 C
2042 04-08-2018 02:05:00 21.2 C 74 % 16.38 C
2043 04-08-2018 02:10:00 21.2 C 74 % 16.38 C
2044 04-08-2018 02:15:00 21.1 C 75 % 16.5 C
2045 04-08-2018 02:20:00 21.1 C 76 % 16.7 C
2046 04-08-2018 02:25:00 21.1 C 75 % 16.5 C
2047 04-08-2018 02:30:00 21 C 76 % 16.61 C
2048 04-08-2018 02:35:00 20.9 C 75 % 16.3 C
2049 04-08-2018 02:40:00 20.9 C 75 % 16.3 C
2050 04-08-2018 02:45:00 20.9 C 76 % 16.51 C
Sensor: Nr:Datum:Temp:Feuchte:Taupunkt:
Aussen-T/F 2051 04-08-2018 02:50:00 20.9 C 75 % 16.3 C
2052 04-08-2018 02:55:00 20.8 C 76 % 16.41 C
2053 04-08-2018 03:00:00 20.8 C 76 % 16.41 C
2054 04-08-2018 03:05:00 20.7 C 76 % 16.32 C
2055 04-08-2018 03:10:00 20.7 C 76 % 16.32 C
2056 04-08-2018 03:15:00 20.7 C 76 % 16.32 C
2057 04-08-2018 03:20:00 20.6 C 76 % 16.22 C
2058 04-08-2018 03:25:00 20.6 C 77 % 16.43 C
2059 04-08-2018 03:30:00 20.5 C 77 % 16.33 C
2060 04-08-2018 03:35:00 20.4 C 78 % 16.44 C
2061 04-08-2018 03:40:00 20.4 C 78 % 16.44 C
2062 04-08-2018 03:45:00 20.4 C 78 % 16.44 C
2063 04-08-2018 03:50:00 20.4 C 78 % 16.44 C
2064 04-08-2018 03:55:00 20.3 C 78 % 16.34 C
2065 04-08-2018 04:00:00 20.2 C 78 % 16.24 C
2066 04-08-2018 04:05:00 20.1 C 79 % 16.34 C
2067 04-08-2018 04:10:00 20 C 80 % 16.44 C
2068 04-08-2018 04:15:00 19.9 C 79 % 16.15 C
2069 04-08-2018 04:20:00 19.9 C 80 % 16.35 C
2070 04-08-2018 04:25:00 19.9 C 80 % 16.35 C
2071 04-08-2018 04:30:00 19.8 C 80 % 16.25 C
2072 04-08-2018 04:35:00 19.8 C 80 % 16.25 C
2073 04-08-2018 04:40:00 19.8 C 80 % 16.25 C
2074 04-08-2018 04:45:00 19.7 C 80 % 16.15 C
2075 04-08-2018 04:50:00 19.7 C 81 % 16.35 C
Sensor: Nr:Datum:Temp:Feuchte:Taupunkt:
Aussen-T/F 2076 04-08-2018 04:55:00 19.6 C 81 % 16.25 C
2077 04-08-2018 05:00:00 19.6 C 81 % 16.25 C
2078 04-08-2018 05:05:00 19.6 C 82 % 16.44 C
2079 04-08-2018 05:10:00 19.6 C 82 % 16.44 C
2080 04-08-2018 05:15:00 19.6 C 82 % 16.44 C
2081 04-08-2018 05:20:00 19.6 C 82 % 16.44 C
2082 04-08-2018 05:25:00 19.6 C 82 % 16.44 C
2083 04-08-2018 05:30:00 19.6 C 82 % 16.44 C
2084 04-08-2018 05:35:00 19.7 C 82 % 16.54 C
2085 04-08-2018 05:40:00 19.7 C 82 % 16.54 C
2086 04-08-2018 05:45:00 19.7 C 82 % 16.54 C
2087 04-08-2018 05:50:00 19.7 C 81 % 16.35 C
2088 04-08-2018 05:55:00 19.7 C 81 % 16.35 C
2089 04-08-2018 06:00:00 19.8 C 81 % 16.45 C
2090 04-08-2018 06:05:00 19.8 C 81 % 16.45 C
2091 04-08-2018 06:10:00 19.8 C 81 % 16.45 C
2092 04-08-2018 06:15:00 19.8 C 81 % 16.45 C
2093 04-08-2018 06:20:00 19.8 C 81 % 16.45 C
2094 04-08-2018 06:25:00 19.7 C 82 % 16.54 C
2095 04-08-2018 06:30:00 19.6 C 82 % 16.44 C
2096 04-08-2018 06:35:00 19.6 C 82 % 16.44 C
2097 04-08-2018 06:40:00 19.4 C 82 % 16.25 C
2098 04-08-2018 06:45:00 19.4 C 83 % 16.44 C
2099 04-08-2018 06:50:00 19.4 C 83 % 16.44 C
2100 04-08-2018 06:55:00 19.4 C 83 % 16.44 C
Sensor: Nr:Datum:Temp:Feuchte:Taupunkt:
Aussen-T/F 2101 04-08-2018 07:00:00 19.4 C 84 % 16.63 C
2102 04-08-2018 07:05:00 19.4 C 84 % 16.63 C
2103 04-08-2018 07:10:00 19.5 C 84 % 16.72 C
2104 04-08-2018 07:15:00 19.6 C 84 % 16.82 C
2105 04-08-2018 07:20:00 19.7 C 84 % 16.92 C
2106 04-08-2018 07:25:00 19.8 C 83 % 16.83 C
2107 04-08-2018 07:30:00 19.9 C 83 % 16.93 C
2108 04-08-2018 07:35:00 20.1 C 83 % 17.12 C
2109 04-08-2018 07:40:00 20.2 C 82 % 17.03 C
2110 04-08-2018 07:45:00 20.2 C 82 % 17.03 C
2111 04-08-2018 07:50:00 20.3 C 82 % 17.13 C
2112 04-08-2018 07:55:00 20.4 C 82 % 17.22 C
2113 04-08-2018 08:00:00 20.4 C 82 % 17.22 C
2114 04-08-2018 08:05:00 20.5 C 83 % 17.51 C
2115 04-08-2018 08:10:00 20.6 C 83 % 17.61 C
2116 04-08-2018 08:15:00 20.7 C 82 % 17.52 C
2117 04-08-2018 08:20:00 20.8 C 82 % 17.61 C
2118 04-08-2018 08:25:00 20.8 C 82 % 17.61 C
2119 04-08-2018 08:30:00 20.9 C 82 % 17.71 C
2120 04-08-2018 08:35:00 21 C 82 % 17.81 C
2121 04-08-2018 08:40:00 21.1 C 81 % 17.71 C
2122 04-08-2018 08:45:00 21.2 C 81 % 17.81 C
2123 04-08-2018 08:50:00 21.3 C 82 % 18.1 C
2124 04-08-2018 08:55:00 21.5 C 81 % 18.1 C
2125 04-08-2018 09:00:00 21.7 C 79 % 17.9 C
Sensor: Nr:Datum:Temp:Feuchte:Taupunkt:
Aussen-T/F 2126 04-08-2018 09:05:00 21.9 C 81 % 18.49 C
2127 04-08-2018 09:10:00 22.1 C 79 % 18.29 C
2128 04-08-2018 09:15:00 22.3 C 78 % 18.28 C
2129 04-08-2018 09:20:00 22.6 C 77 % 18.36 C
2130 04-08-2018 09:25:00 23 C 74 % 18.12 C
2131 04-08-2018 09:30:00 23.5 C 71 % 17.94 C
2132 04-08-2018 09:35:00 24.1 C 70 % 18.29 C
2133 04-08-2018 09:40:00 24.5 C 68 % 18.2 C
2134 04-08-2018 09:45:00 24.9 C 66 % 18.11 C
2135 04-08-2018 09:50:00 25.2 C 65 % 18.15 C
2136 04-08-2018 09:55:00 25.6 C 65 % 18.53 C
2137 04-08-2018 10:00:00 25.8 C 63 % 18.22 C
2138 04-08-2018 10:05:00 26.1 C 63 % 18.5 C
2139 04-08-2018 10:10:00 26.1 C 62 % 18.25 C
2140 04-08-2018 10:15:00 26.1 C 62 % 18.25 C
2141 04-08-2018 10:20:00 26.1 C 62 % 18.25 C
2142 04-08-2018 10:25:00 26 C 62 % 18.15 C
2143 04-08-2018 10:30:00 25.9 C 62 % 18.06 C
2144 04-08-2018 10:35:00 26 C 62 % 18.15 C
2145 04-08-2018 10:40:00 26.1 C 64 % 18.76 C
2146 04-08-2018 10:55:00 26.5 C 59 % 17.83 C
2147 04-08-2018 11:00:00 26.7 C 60 % 18.29 C
2148 04-08-2018 11:05:00 26.9 C 59 % 18.21 C
2149 04-08-2018 11:10:00 27.2 C 58 % 18.22 C
2150 04-08-2018 11:15:00 27.4 C 56 % 17.84 C
Sensor: Nr:Datum:Temp:Feuchte:Taupunkt:
Aussen-T/F 2151 04-08-2018 11:20:00 27.7 C 55 % 17.84 C
2152 04-08-2018 11:55:00 28.8 C 54 % 18.56 C
2153 04-08-2018 12:00:00 28.8 C 54 % 18.56 C
2154 04-08-2018 12:05:00 28.9 C 53 % 18.36 C
2155 04-08-2018 12:10:00 28.9 C 53 % 18.36 C
2156 04-08-2018 12:15:00 28.9 C 53 % 18.36 C
2157 04-08-2018 12:20:00 29 C 53 % 18.45 C
2158 04-08-2018 12:25:00 29.1 C 53 % 18.54 C
2159 04-08-2018 12:30:00 29.1 C 52 % 18.24 C
2160 04-08-2018 12:35:00 29.2 C 53 % 18.63 C
2161 04-08-2018 12:40:00 29.3 C 52 % 18.42 C
2162 04-08-2018 12:45:00 29.2 C 53 % 18.63 C
2163 04-08-2018 12:50:00 29.3 C 52 % 18.42 C
2164 04-08-2018 12:55:00 29.4 C 52 % 18.51 C
2165 04-08-2018 13:00:00 29.5 C 53 % 18.91 C
2166 04-08-2018 13:05:00 29.7 C 50 % 18.16 C
2167 04-08-2018 13:10:00 29.9 C 47 % 17.36 C
2168 04-08-2018 13:15:00 30.1 C 47 % 17.54 C
2169 04-08-2018 13:20:00 30.3 C 47 % 17.73 C
2170 04-08-2018 13:25:00 30.4 C 47 % 17.82 C
2171 04-08-2018 13:30:00 30.6 C 46 % 17.66 C
2172 04-08-2018 13:35:00 30.8 C 45 % 17.49 C
2173 04-08-2018 13:40:00 30.8 C 45 % 17.49 C
2174 04-08-2018 13:45:00 30.9 C 45 % 17.58 C
2175 04-08-2018 13:50:00 30.9 C 45 % 17.58 C
Sensor: Nr:Datum:Temp:Feuchte:Taupunkt:
Aussen-T/F 2176 04-08-2018 13:55:00 31.1 C 45 % 17.76 C
2177 04-08-2018 14:00:00 31.3 C 45 % 17.94 C
2178 04-08-2018 14:05:00 31.4 C 44 % 17.67 C
2179 04-08-2018 14:10:00 31.4 C 43 % 17.31 C
2180 04-08-2018 14:15:00 31.4 C 44 % 17.67 C
2181 04-08-2018 14:20:00 31.6 C 44 % 17.85 C
2182 04-08-2018 14:25:00 31.7 C 45 % 18.3 C
2183 04-08-2018 14:30:00 31.8 C 45 % 18.39 C
2184 04-08-2018 14:35:00 31.9 C 43 % 17.76 C
2185 04-08-2018 14:40:00 32.1 C 43 % 17.94 C
2186 04-08-2018 14:45:00 32.2 C 42 % 17.65 C
2187 04-08-2018 14:50:00 32.3 C 42 % 17.74 C
2188 04-08-2018 14:55:00 32.4 C 41 % 17.45 C
2189 04-08-2018 15:00:00 32.6 C 41 % 17.63 C
2190 04-08-2018 15:05:00 32.9 C 39 % 17.11 C
2191 04-08-2018 15:10:00 33.1 C 39 % 17.28 C
2192 04-08-2018 15:15:00 33.1 C 40 % 17.68 C
2193 04-08-2018 15:20:00 33.3 C 38 % 17.05 C
2194 04-08-2018 15:25:00 33.4 C 38 % 17.14 C
2195 04-08-2018 15:30:00 33.6 C 37 % 16.89 C
2196 04-08-2018 15:35:00 33.7 C 37 % 16.98 C
2197 04-08-2018 15:40:00 33.8 C 35 % 16.19 C
2198 04-08-2018 15:45:00 34 C 34 % 15.92 C
2199 04-08-2018 15:50:00 34.2 C 35 % 16.54 C
2200 04-08-2018 15:55:00 34.6 C 32 % 15.49 C
Sensor: Nr:Datum:Temp:Feuchte:Taupunkt:
Aussen-T/F 2201 04-08-2018 16:00:00 34.7 C 32 % 15.58 C
2202 04-08-2018 16:05:00 34.7 C 31 % 15.08 C
2203 04-08-2018 16:10:00 34.8 C 32 % 15.66 C
2204 04-08-2018 16:15:00 34.9 C 31 % 15.25 C
2205 04-08-2018 16:20:00 34.9 C 30 % 14.74 C
2206 04-08-2018 16:25:00 34.7 C 31 % 15.08 C
2207 04-08-2018 16:30:00 34.8 C 31 % 15.17 C
2208 04-08-2018 16:35:00 34.8 C 31 % 15.17 C
2209 04-08-2018 16:40:00 34.9 C 30 % 14.74 C
2210 04-08-2018 16:45:00 34.7 C 29 % 14.05 C
2211 04-08-2018 16:50:00 34.7 C 30 % 14.57 C
2212 04-08-2018 16:55:00 34.8 C 29 % 14.13 C
2213 04-08-2018 17:00:00 34.9 C 30 % 14.74 C
2214 04-08-2018 17:05:00 35 C 29 % 14.3 C
2215 04-08-2018 17:10:00 35 C 29 % 14.3 C
2216 04-08-2018 17:15:00 34.8 C 29 % 14.13 C
2217 04-08-2018 17:20:00 34.8 C 29 % 14.13 C
2218 04-08-2018 17:25:00 34.7 C 29 % 14.05 C
2219 04-08-2018 17:30:00 34.8 C 29 % 14.13 C
2220 04-08-2018 17:35:00 34.7 C 29 % 14.05 C
2221 04-08-2018 17:40:00 34.7 C 30 % 14.57 C
2222 04-08-2018 17:45:00 34.8 C 30 % 14.66 C
2223 04-08-2018 17:50:00 34.9 C 30 % 14.74 C
2224 04-08-2018 17:55:00 34.9 C 29 % 14.22 C
2225 04-08-2018 18:00:00 35 C 29 % 14.3 C
Sensor: Nr:Datum:Temp:Feuchte:Taupunkt:
Aussen-T/F 2226 04-08-2018 18:05:00 35 C 29 % 14.3 C
2227 04-08-2018 18:10:00 34.8 C 28 % 13.59 C
2228 04-08-2018 18:15:00 34.6 C 29 % 13.96 C
2229 04-08-2018 18:20:00 34.4 C 29 % 13.79 C
2230 04-08-2018 18:25:00 34.3 C 28 % 13.17 C
2231 04-08-2018 18:30:00 34.1 C 28 % 13 C
2232 04-08-2018 18:35:00 33.8 C 28 % 12.74 C
2233 04-08-2018 18:40:00 33.8 C 29 % 13.28 C
2234 04-08-2018 18:45:00 33.8 C 29 % 13.28 C
2235 04-08-2018 18:50:00 33.7 C 30 % 13.71 C
2236 04-08-2018 18:55:00 33.6 C 30 % 13.63 C
2237 04-08-2018 19:00:00 33.6 C 30 % 13.63 C
2238 04-08-2018 19:05:00 33.5 C 30 % 13.54 C
2239 04-08-2018 19:10:00 33.3 C 29 % 12.85 C
2240 04-08-2018 19:15:00 33.3 C 30 % 13.37 C
2241 04-08-2018 19:20:00 33.2 C 31 % 13.79 C
2242 04-08-2018 19:25:00 33.1 C 30 % 13.2 C
2243 04-08-2018 19:30:00 32.9 C 30 % 13.03 C
2244 04-08-2018 19:35:00 32.8 C 31 % 13.44 C
2245 04-08-2018 19:40:00 32.6 C 31 % 13.27 C
2246 04-08-2018 19:45:00 32.4 C 32 % 13.59 C
2247 04-08-2018 19:50:00 32.3 C 32 % 13.5 C
2248 04-08-2018 19:55:00 32.1 C 32 % 13.33 C
2249 04-08-2018 20:00:00 31.8 C 32 % 13.07 C
2250 04-08-2018 20:05:00 31.7 C 33 % 13.45 C
Sensor: Nr:Datum:Temp:Feuchte:Taupunkt:
Aussen-T/F 2251 04-08-2018 20:10:00 31.4 C 34 % 13.65 C
2252 04-08-2018 20:15:00 31.3 C 34 % 13.56 C
2253 04-08-2018 20:20:00 31.1 C 35 % 13.83 C
2254 04-08-2018 20:25:00 30.9 C 35 % 13.66 C
2255 04-08-2018 20:30:00 30.7 C 36 % 13.92 C
2256 04-08-2018 20:35:00 30.4 C 38 % 14.49 C
2257 04-08-2018 20:40:00 30.2 C 39 % 14.71 C
2258 04-08-2018 20:45:00 29.8 C 38 % 13.95 C
2259 04-08-2018 20:50:00 29.7 C 39 % 14.27 C
2260 04-08-2018 20:55:00 29.5 C 39 % 14.09 C
2261 04-08-2018 21:00:00 29.4 C 41 % 14.77 C
2262 04-08-2018 21:05:00 29.3 C 43 % 15.42 C
2263 04-08-2018 21:10:00 28.9 C 43 % 15.06 C
2264 04-08-2018 21:15:00 28.5 C 44 % 15.06 C
2265 04-08-2018 21:20:00 28.1 C 47 % 15.73 C
2266 04-08-2018 21:25:00 27.6 C 46 % 14.94 C
2267 04-08-2018 21:30:00 27.4 C 48 % 15.42 C
2268 04-08-2018 21:35:00 27.2 C 50 % 15.87 C
2269 04-08-2018 21:40:00 27.1 C 50 % 15.78 C
2270 04-08-2018 21:45:00 26.8 C 51 % 15.82 C
2271 04-08-2018 21:50:00 26.8 C 51 % 15.82 C
2272 04-08-2018 21:55:00 26.7 C 51 % 15.72 C
2273 04-08-2018 22:00:00 26.4 C 53 % 16.05 C
2274 04-08-2018 22:05:00 26.1 C 53 % 15.77 C
2275 04-08-2018 22:10:00 25.8 C 55 % 16.07 C
Sensor: Nr:Datum:Temp:Feuchte:Taupunkt:
Aussen-T/F 2276 04-08-2018 22:15:00 25.9 C 53 % 15.59 C
2277 04-08-2018 22:20:00 25.9 C 55 % 16.17 C
2278 04-08-2018 22:25:00 25.8 C 55 % 16.07 C
2279 04-08-2018 22:30:00 25.7 C 55 % 15.98 C
2280 04-08-2018 22:35:00 25.4 C 56 % 15.99 C
2281 04-08-2018 22:40:00 25.2 C 57 % 16.08 C
2282 04-08-2018 22:45:00 25.1 C 58 % 16.26 C
2283 04-08-2018 22:50:00 24.9 C 59 % 16.34 C
2284 04-08-2018 22:55:00 24.8 C 58 % 15.98 C
2285 04-08-2018 23:00:00 24.6 C 59 % 16.06 C
2286 04-08-2018 23:05:00 24.5 C 60 % 16.23 C
2287 04-08-2018 23:10:00 24.4 C 61 % 16.39 C
2288 04-08-2018 23:15:00 24.3 C 61 % 16.3 C
2289 04-08-2018 23:20:00 24.2 C 61 % 16.2 C
2290 04-08-2018 23:25:00 24.1 C 62 % 16.37 C
2291 04-08-2018 23:30:00 24.1 C 62 % 16.37 C
2292 04-08-2018 23:35:00 24 C 62 % 16.27 C
2293 04-08-2018 23:40:00 23.9 C 62 % 16.18 C
2294 04-08-2018 23:45:00 24.1 C 62 % 16.37 C
2295 04-08-2018 23:50:00 24.2 C 63 % 16.71 C
2296 04-08-2018 23:55:00 24.2 C 62 % 16.46 C
2297 05-08-2018 00:00:00 24.4 C 62 % 16.65 C
2298 05-08-2018 00:05:00 24.7 C 62 % 16.93 C
2299 05-08-2018 00:10:00 24.8 C 62 % 17.02 C
2300 05-08-2018 00:15:00 25 C 61 % 16.96 C
Sensor: Nr:Datum:Temp:Feuchte:Taupunkt:
Aussen-T/F 2301 05-08-2018 00:20:00 25.1 C 61 % 17.05 C
2302 05-08-2018 00:25:00 25.2 C 61 % 17.14 C
2303 05-08-2018 00:30:00 25.2 C 62 % 17.4 C
2304 05-08-2018 00:35:00 25.1 C 62 % 17.31 C
2305 05-08-2018 00:40:00 25.1 C 62 % 17.31 C
2306 05-08-2018 00:45:00 25.1 C 63 % 17.56 C
2307 05-08-2018 00:50:00 25.1 C 63 % 17.56 C
2308 05-08-2018 00:55:00 24.9 C 63 % 17.37 C
2309 05-08-2018 01:00:00 24.8 C 64 % 17.53 C
2310 05-08-2018 01:05:00 24.7 C 65 % 17.68 C
2311 05-08-2018 01:10:00 24.7 C 65 % 17.68 C
2312 05-08-2018 01:15:00 24.7 C 65 % 17.68 C
2313 05-08-2018 01:20:00 24.7 C 66 % 17.92 C
2314 05-08-2018 01:25:00 24.6 C 66 % 17.83 C
2315 05-08-2018 01:30:00 24.6 C 66 % 17.83 C
2316 05-08-2018 01:35:00 24.4 C 67 % 17.87 C
2317 05-08-2018 01:40:00 24.4 C 67 % 17.87 C
2318 05-08-2018 01:45:00 24.4 C 67 % 17.87 C
2319 05-08-2018 01:50:00 24.3 C 68 % 18.01 C
2320 05-08-2018 01:55:00 24.3 C 68 % 18.01 C
2321 05-08-2018 02:00:00 24.2 C 68 % 17.92 C
2322 05-08-2018 02:05:00 24 C 69 % 17.96 C
2323 05-08-2018 02:10:00 23.9 C 69 % 17.87 C
2324 05-08-2018 02:15:00 23.8 C 70 % 18 C
2325 05-08-2018 02:20:00 23.6 C 70 % 17.81 C
Sensor: Nr:Datum:Temp:Feuchte:Taupunkt:
Aussen-T/F 2326 05-08-2018 02:25:00 23.5 C 70 % 17.71 C
2327 05-08-2018 02:30:00 23.4 C 70 % 17.62 C
2328 05-08-2018 02:35:00 23.4 C 71 % 17.84 C
2329 05-08-2018 02:40:00 23.3 C 71 % 17.75 C
2330 05-08-2018 02:45:00 23.2 C 71 % 17.65 C
2331 05-08-2018 02:50:00 23.1 C 71 % 17.55 C
2332 05-08-2018 02:55:00 22.9 C 72 % 17.58 C
2333 05-08-2018 03:00:00 22.8 C 72 % 17.49 C
2334 05-08-2018 03:05:00 22.7 C 73 % 17.61 C
2335 05-08-2018 03:10:00 22.6 C 74 % 17.73 C
2336 05-08-2018 03:15:00 22.4 C 74 % 17.54 C
2337 05-08-2018 03:20:00 22.3 C 74 % 17.44 C
2338 05-08-2018 03:25:00 22.2 C 75 % 17.56 C
2339 05-08-2018 03:30:00 22.1 C 75 % 17.46 C
2340 05-08-2018 03:35:00 21.9 C 76 % 17.48 C
2341 05-08-2018 03:40:00 21.8 C 77 % 17.59 C
2342 05-08-2018 03:45:00 21.8 C 77 % 17.59 C
2343 05-08-2018 03:50:00 21.7 C 77 % 17.49 C
2344 05-08-2018 03:55:00 21.7 C 77 % 17.49 C
2345 05-08-2018 04:00:00 21.6 C 78 % 17.6 C
2346 05-08-2018 04:05:00 21.5 C 78 % 17.5 C
2347 05-08-2018 04:10:00 21.4 C 78 % 17.4 C
2348 05-08-2018 04:15:00 21.3 C 79 % 17.51 C
2349 05-08-2018 04:20:00 21.2 C 79 % 17.41 C
2350 05-08-2018 04:25:00 21.1 C 79 % 17.32 C
Sensor: Nr:Datum:Temp:Feuchte:Taupunkt:
Aussen-T/F 2351 05-08-2018 04:30:00 21.1 C 80 % 17.51 C
2352 05-08-2018 04:35:00 21.1 C 80 % 17.51 C
2353 05-08-2018 04:40:00 21.1 C 80 % 17.51 C
2354 05-08-2018 04:45:00 21 C 80 % 17.42 C
2355 05-08-2018 04:50:00 20.9 C 80 % 17.32 C
2356 05-08-2018 04:55:00 20.9 C 80 % 17.32 C
2357 05-08-2018 05:00:00 20.8 C 80 % 17.22 C
2358 05-08-2018 05:05:00 20.8 C 81 % 17.42 C
2359 05-08-2018 05:10:00 20.7 C 81 % 17.32 C
2360 05-08-2018 05:15:00 20.6 C 81 % 17.22 C
2361 05-08-2018 05:20:00 20.5 C 81 % 17.13 C
2362 05-08-2018 05:25:00 20.4 C 82 % 17.22 C
2363 05-08-2018 05:30:00 20.3 C 82 % 17.13 C
2364 05-08-2018 05:35:00 20.2 C 82 % 17.03 C
2365 05-08-2018 05:40:00 20.2 C 83 % 17.22 C
2366 05-08-2018 05:45:00 20.2 C 83 % 17.22 C
2367 05-08-2018 05:50:00 20.2 C 83 % 17.22 C
2368 05-08-2018 05:55:00 20.1 C 83 % 17.12 C
2369 05-08-2018 06:00:00 20.1 C 83 % 17.12 C
2370 05-08-2018 06:05:00 20.1 C 84 % 17.31 C
2371 05-08-2018 06:10:00 20.1 C 83 % 17.12 C
2372 05-08-2018 06:15:00 20.1 C 83 % 17.12 C
2373 05-08-2018 06:20:00 20 C 84 % 17.21 C
2374 05-08-2018 06:25:00 20 C 84 % 17.21 C
2375 05-08-2018 06:30:00 19.9 C 84 % 17.12 C
Sensor: Nr:Datum:Temp:Feuchte:Taupunkt:
Aussen-T/F 2376 05-08-2018 06:35:00 19.9 C 84 % 17.12 C
2377 05-08-2018 06:40:00 20 C 84 % 17.21 C
2378 05-08-2018 06:45:00 20 C 84 % 17.21 C
2379 05-08-2018 06:50:00 20.1 C 84 % 17.31 C
2380 05-08-2018 06:55:00 20.1 C 84 % 17.31 C
2381 05-08-2018 07:00:00 20.1 C 84 % 17.31 C
2382 05-08-2018 07:05:00 20.1 C 84 % 17.31 C
2383 05-08-2018 07:10:00 20.2 C 84 % 17.41 C
2384 05-08-2018 07:15:00 20.2 C 84 % 17.41 C
2385 05-08-2018 07:20:00 20.2 C 84 % 17.41 C
2386 05-08-2018 07:25:00 20.3 C 84 % 17.51 C
2387 05-08-2018 07:30:00 20.3 C 84 % 17.51 C
2388 05-08-2018 07:35:00 20.3 C 83 % 17.32 C
2389 05-08-2018 07:40:00 20.4 C 83 % 17.42 C
2390 05-08-2018 07:45:00 20.5 C 84 % 17.7 C
2391 05-08-2018 07:50:00 20.6 C 83 % 17.61 C
2392 05-08-2018 07:55:00 20.7 C 83 % 17.71 C
2393 05-08-2018 08:00:00 20.7 C 82 % 17.52 C
2394 05-08-2018 08:05:00 20.9 C 81 % 17.52 C
2395 05-08-2018 08:10:00 21 C 81 % 17.61 C
2396 05-08-2018 08:15:00 21.2 C 80 % 17.61 C
2397 05-08-2018 08:20:00 21.2 C 80 % 17.61 C
2398 05-08-2018 08:25:00 21.3 C 79 % 17.51 C
2399 05-08-2018 08:30:00 21.4 C 79 % 17.61 C
2400 05-08-2018 08:35:00 21.5 C 78 % 17.5 C
Sensor: Nr:Datum:Temp:Feuchte:Taupunkt:
Aussen-T/F 2401 05-08-2018 08:40:00 21.6 C 78 % 17.6 C
2402 05-08-2018 08:45:00 21.7 C 78 % 17.7 C
2403 05-08-2018 08:50:00 21.8 C 77 % 17.59 C
2404 05-08-2018 08:55:00 21.8 C 76 % 17.38 C
2405 05-08-2018 09:00:00 21.9 C 76 % 17.48 C
2406 05-08-2018 09:05:00 22 C 76 % 17.57 C
2407 05-08-2018 09:10:00 22.1 C 75 % 17.46 C
2408 05-08-2018 09:15:00 22.1 C 74 % 17.25 C
2409 05-08-2018 09:20:00 22.2 C 74 % 17.34 C
2410 05-08-2018 09:25:00 22.2 C 73 % 17.13 C
2411 05-08-2018 09:30:00 22.3 C 73 % 17.23 C
2412 05-08-2018 09:35:00 22.4 C 72 % 17.1 C
2413 05-08-2018 09:40:00 22.4 C 71 % 16.88 C
2414 05-08-2018 09:45:00 22.4 C 71 % 16.88 C
2415 05-08-2018 09:50:00 22.6 C 70 % 16.85 C
2416 05-08-2018 09:55:00 22.7 C 70 % 16.95 C
2417 05-08-2018 10:00:00 22.7 C 69 % 16.72 C
2418 05-08-2018 10:05:00 22.7 C 68 % 16.49 C
2419 05-08-2018 10:10:00 22.7 C 68 % 16.49 C
2420 05-08-2018 10:15:00 22.8 C 68 % 16.59 C
2421 05-08-2018 10:20:00 22.9 C 67 % 16.45 C
2422 05-08-2018 10:25:00 23.2 C 67 % 16.73 C
2423 05-08-2018 10:30:00 23.4 C 65 % 16.45 C
2424 05-08-2018 10:35:00 23.6 C 64 % 16.39 C
2425 05-08-2018 10:40:00 23.7 C 64 % 16.49 C
Sensor: Nr:Datum:Temp:Feuchte:Taupunkt:
Aussen-T/F 2426 05-08-2018 10:45:00 23.7 C 63 % 16.24 C
2427 05-08-2018 10:50:00 23.7 C 62 % 15.99 C
2428 05-08-2018 10:55:00 23.7 C 62 % 15.99 C
2429 05-08-2018 11:00:00 23.8 C 62 % 16.08 C
2430 05-08-2018 11:05:00 23.9 C 61 % 15.92 C
2431 05-08-2018 11:10:00 24 C 60 % 15.76 C
2432 05-08-2018 11:15:00 24.1 C 61 % 16.11 C
2433 05-08-2018 11:20:00 24.2 C 59 % 15.68 C
2434 05-08-2018 11:25:00 24.3 C 57 % 15.24 C
2435 05-08-2018 11:30:00 24.4 C 57 % 15.33 C
2436 05-08-2018 11:35:00 24.4 C 58 % 15.6 C
2437 05-08-2018 11:40:00 24.5 C 58 % 15.7 C
2438 05-08-2018 11:45:00 24.6 C 58 % 15.79 C
2439 05-08-2018 11:50:00 24.7 C 57 % 15.61 C
2440 05-08-2018 11:55:00 24.8 C 55 % 15.15 C
2441 05-08-2018 12:00:00 24.8 C 55 % 15.15 C
2442 05-08-2018 12:05:00 24.8 C 55 % 15.15 C
2443 05-08-2018 12:10:00 24.9 C 55 % 15.24 C
2444 05-08-2018 12:15:00 25.2 C 55 % 15.52 C
2445 05-08-2018 12:20:00 25.3 C 54 % 15.33 C
2446 05-08-2018 12:25:00 25.3 C 54 % 15.33 C
2447 05-08-2018 12:30:00 25.3 C 53 % 15.03 C
2448 05-08-2018 12:35:00 25.5 C 54 % 15.51 C
2449 05-08-2018 12:40:00 25.7 C 51 % 14.81 C
2450 05-08-2018 12:45:00 25.7 C 49 % 14.19 C
Sensor: Nr:Datum:Temp:Feuchte:Taupunkt:
Aussen-T/F 2451 05-08-2018 12:50:00 25.6 C 51 % 14.71 C
2452 05-08-2018 12:55:00 25.7 C 51 % 14.81 C
2453 05-08-2018 13:00:00 25.7 C 51 % 14.81 C
2454 05-08-2018 13:05:00 25.8 C 49 % 14.28 C
2455 05-08-2018 13:10:00 25.8 C 50 % 14.59 C
2456 05-08-2018 13:15:00 25.9 C 51 % 14.99 C
2457 05-08-2018 13:20:00 26.1 C 49 % 14.55 C
2458 05-08-2018 13:25:00 26 C 50 % 14.77 C
2459 05-08-2018 13:30:00 26.1 C 50 % 14.87 C
2460 05-08-2018 13:35:00 26.1 C 50 % 14.87 C
2461 05-08-2018 13:40:00 26.1 C 49 % 14.55 C
2462 05-08-2018 13:45:00 26.2 C 49 % 14.64 C
2463 05-08-2018 13:50:00 26.3 C 50 % 15.05 C
2464 05-08-2018 13:55:00 26.4 C 49 % 14.83 C
2465 05-08-2018 14:00:00 26.6 C 48 % 14.69 C
2466 05-08-2018 14:05:00 26.7 C 48 % 14.78 C
2467 05-08-2018 14:10:00 26.9 C 48 % 14.96 C
2468 05-08-2018 14:15:00 26.9 C 47 % 14.64 C
2469 05-08-2018 14:20:00 26.9 C 47 % 14.64 C
2470 05-08-2018 14:25:00 26.9 C 45 % 13.96 C
2471 05-08-2018 14:30:00 26.9 C 45 % 13.96 C
2472 05-08-2018 14:35:00 27 C 45 % 14.06 C
2473 05-08-2018 14:40:00 27.1 C 44 % 13.8 C
2474 05-08-2018 14:45:00 27.3 C 46 % 14.67 C
2475 05-08-2018 14:50:00 27.5 C 45 % 14.51 C
Sensor: Nr:Datum:Temp:Feuchte:Taupunkt:
Aussen-T/F 2476 05-08-2018 14:55:00 27.7 C 44 % 14.34 C
2477 05-08-2018 15:00:00 27.7 C 43 % 13.99 C
2478 05-08-2018 15:05:00 27.7 C 43 % 13.99 C
2479 05-08-2018 15:10:00 27.9 C 44 % 14.52 C
2480 05-08-2018 15:15:00 28.1 C 42 % 13.98 C
2481 05-08-2018 15:20:00 28.1 C 42 % 13.98 C
2482 05-08-2018 15:25:00 28.5 C 42 % 14.34 C
2483 05-08-2018 15:30:00 28.8 C 41 % 14.24 C
2484 05-08-2018 15:35:00 29.1 C 42 % 14.88 C
2485 05-08-2018 15:40:00 29.4 C 40 % 14.39 C
2486 05-08-2018 15:45:00 29.6 C 39 % 14.18 C
2487 05-08-2018 15:50:00 29.7 C 39 % 14.27 C
2488 05-08-2018 15:55:00 30.1 C 38 % 14.22 C
2489 05-08-2018 16:00:00 30.3 C 37 % 13.99 C
2490 05-08-2018 16:05:00 30.3 C 39 % 14.8 C
2491 05-08-2018 16:10:00 30.3 C 38 % 14.4 C
2492 05-08-2018 16:15:00 30.2 C 38 % 14.31 C
2493 05-08-2018 16:20:00 30.2 C 39 % 14.71 C
2494 05-08-2018 16:25:00 30.4 C 39 % 14.89 C
2495 05-08-2018 16:30:00 30.6 C 37 % 14.25 C
2496 05-08-2018 16:35:00 30.6 C 39 % 15.07 C
2497 05-08-2018 16:40:00 30.8 C 36 % 14 C
2498 05-08-2018 16:45:00 30.9 C 37 % 14.51 C
2499 05-08-2018 16:50:00 30.8 C 37 % 14.43 C
2500 05-08-2018 16:55:00 30.8 C 37 % 14.43 C
Sensor: Nr:Datum:Temp:Feuchte:Taupunkt:
Aussen-T/F 2501 05-08-2018 17:00:00 30.8 C 37 % 14.43 C
2502 05-08-2018 17:05:00 31 C 37 % 14.6 C
2503 05-08-2018 17:10:00 31.2 C 36 % 14.35 C
2504 05-08-2018 17:15:00 31.1 C 36 % 14.27 C
2505 05-08-2018 17:20:00 31.1 C 37 % 14.69 C
2506 05-08-2018 17:25:00 30.9 C 36 % 14.09 C
2507 05-08-2018 17:30:00 30.6 C 37 % 14.25 C
2508 05-08-2018 17:35:00 30.6 C 38 % 14.66 C
2509 05-08-2018 17:40:00 30.8 C 37 % 14.43 C
2510 05-08-2018 17:45:00 31 C 36 % 14.18 C
2511 05-08-2018 17:50:00 31.2 C 36 % 14.35 C
2512 05-08-2018 17:55:00 31.4 C 35 % 14.1 C
2513 05-08-2018 18:00:00 31.7 C 35 % 14.36 C
2514 05-08-2018 18:05:00 31.7 C 35 % 14.36 C
2515 05-08-2018 18:10:00 31.4 C 35 % 14.1 C
2516 05-08-2018 18:15:00 31.3 C 35 % 14.01 C
2517 05-08-2018 18:20:00 31.1 C 35 % 13.83 C
2518 05-08-2018 18:25:00 30.8 C 36 % 14 C
2519 05-08-2018 18:30:00 30.8 C 36 % 14 C
2520 05-08-2018 18:35:00 30.9 C 36 % 14.09 C
2521 05-08-2018 18:40:00 30.9 C 36 % 14.09 C
2522 05-08-2018 18:45:00 31.1 C 35 % 13.83 C
2523 05-08-2018 18:50:00 31.1 C 36 % 14.27 C
2524 05-08-2018 18:55:00 31.1 C 35 % 13.83 C
2525 05-08-2018 19:00:00 30.9 C 36 % 14.09 C
Sensor: Nr:Datum:Temp:Feuchte:Taupunkt:
Aussen-T/F 2526 05-08-2018 19:05:00 30.9 C 36 % 14.09 C
2527 05-08-2018 19:10:00 30.8 C 36 % 14 C
2528 05-08-2018 19:15:00 30.5 C 36 % 13.74 C
2529 05-08-2018 19:20:00 30.3 C 36 % 13.56 C
2530 05-08-2018 19:25:00 29.9 C 37 % 13.63 C
2531 05-08-2018 19:30:00 29.7 C 38 % 13.87 C
2532 05-08-2018 19:35:00 29.6 C 38 % 13.78 C
2533 05-08-2018 19:40:00 29.2 C 39 % 13.82 C
2534 05-08-2018 19:45:00 28.8 C 41 % 14.24 C
2535 05-08-2018 19:50:00 28.7 C 40 % 13.77 C
2536 05-08-2018 19:55:00 28.5 C 42 % 14.34 C
2537 05-08-2018 20:00:00 28.4 C 41 % 13.88 C
2538 05-08-2018 20:05:00 28.3 C 41 % 13.79 C
2539 05-08-2018 20:10:00 28.2 C 42 % 14.07 C
2540 05-08-2018 20:15:00 28.1 C 41 % 13.61 C
2541 05-08-2018 20:20:00 27.9 C 42 % 13.8 C
2542 05-08-2018 20:25:00 27.8 C 41 % 13.34 C
2543 05-08-2018 20:30:00 27.7 C 42 % 13.62 C
2544 05-08-2018 20:35:00 27.6 C 42 % 13.53 C
2545 05-08-2018 20:40:00 27.3 C 42 % 13.27 C
2546 05-08-2018 20:45:00 27.2 C 43 % 13.54 C
2547 05-08-2018 20:50:00 27 C 43 % 13.36 C
2548 05-08-2018 20:55:00 26.8 C 44 % 13.53 C
2549 05-08-2018 21:00:00 26.7 C 46 % 14.12 C
2550 05-08-2018 21:05:00 26.3 C 47 % 14.09 C
Sensor: Nr:Datum:Temp:Feuchte:Taupunkt:
Aussen-T/F 2551 05-08-2018 21:10:00 25.8 C 48 % 13.96 C
2552 05-08-2018 21:15:00 25.4 C 49 % 13.91 C
2553 05-08-2018 21:20:00 24.9 C 49 % 13.46 C
2554 05-08-2018 21:25:00 24.6 C 51 % 13.79 C
2555 05-08-2018 21:30:00 24.2 C 52 % 13.73 C
2556 05-08-2018 21:35:00 23.8 C 54 % 13.94 C
2557 05-08-2018 21:40:00 23.4 C 55 % 13.85 C
2558 05-08-2018 21:45:00 23.2 C 55 % 13.66 C
2559 05-08-2018 21:50:00 23 C 57 % 14.03 C
2560 05-08-2018 21:55:00 22.8 C 57 % 13.84 C
2561 05-08-2018 22:00:00 22.7 C 57 % 13.75 C
2562 05-08-2018 22:05:00 22.6 C 57 % 13.65 C
2563 05-08-2018 22:10:00 22.7 C 56 % 13.47 C
2564 05-08-2018 22:15:00 22.8 C 57 % 13.84 C
2565 05-08-2018 22:20:00 22.8 C 56 % 13.57 C
2566 05-08-2018 22:25:00 22.7 C 57 % 13.75 C
2567 05-08-2018 22:30:00 22.4 C 58 % 13.73 C
2568 05-08-2018 22:35:00 22.2 C 58 % 13.55 C
2569 05-08-2018 22:40:00 21.9 C 59 % 13.53 C
2570 05-08-2018 22:45:00 21.7 C 60 % 13.6 C
2571 05-08-2018 22:50:00 21.4 C 61 % 13.57 C
2572 05-08-2018 22:55:00 21.3 C 62 % 13.73 C
2573 05-08-2018 23:00:00 21.1 C 62 % 13.54 C
2574 05-08-2018 23:05:00 21 C 63 % 13.69 C
2575 05-08-2018 23:10:00 20.8 C 63 % 13.5 C
Sensor: Nr:Datum:Temp:Feuchte:Taupunkt:
Aussen-T/F 2576 05-08-2018 23:15:00 20.8 C 63 % 13.5 C
2577 05-08-2018 23:20:00 20.7 C 63 % 13.41 C
2578 05-08-2018 23:25:00 20.6 C 64 % 13.55 C
2579 05-08-2018 23:30:00 20.4 C 64 % 13.37 C
2580 05-08-2018 23:35:00 20.4 C 64 % 13.37 C
2581 05-08-2018 23:40:00 20.3 C 65 % 13.51 C
2582 05-08-2018 23:45:00 20.2 C 64 % 13.18 C
2583 05-08-2018 23:50:00 20.1 C 65 % 13.32 C
2584 05-08-2018 23:55:00 20 C 66 % 13.46 C
2585 06-08-2018 00:00:00 19.9 C 65 % 13.13 C
2586 06-08-2018 00:05:00 19.8 C 66 % 13.27 C
2587 06-08-2018 00:10:00 19.7 C 66 % 13.17 C
2588 06-08-2018 00:15:00 19.6 C 66 % 13.08 C
2589 06-08-2018 00:20:00 19.4 C 67 % 13.12 C
2590 06-08-2018 00:25:00 19.3 C 67 % 13.02 C
2591 06-08-2018 00:30:00 19.2 C 67 % 12.93 C
2592 06-08-2018 00:35:00 19.1 C 67 % 12.83 C
2593 06-08-2018 00:40:00 19 C 68 % 12.96 C
2594 06-08-2018 00:45:00 18.9 C 68 % 12.87 C
2595 06-08-2018 00:50:00 18.8 C 69 % 13 C
2596 06-08-2018 00:55:00 18.6 C 69 % 12.8 C
2597 06-08-2018 01:00:00 18.5 C 70 % 12.93 C
2598 06-08-2018 01:05:00 18.4 C 70 % 12.83 C
2599 06-08-2018 01:10:00 18.3 C 71 % 12.95 C
2600 06-08-2018 01:15:00 18.1 C 71 % 12.76 C
Sensor: Nr:Datum:Temp:Feuchte:Taupunkt:
Aussen-T/F 2601 06-08-2018 01:20:00 18 C 71 % 12.67 C
2602 06-08-2018 01:25:00 17.9 C 72 % 12.78 C
2603 06-08-2018 01:30:00 17.8 C 71 % 12.47 C
2604 06-08-2018 01:35:00 17.8 C 72 % 12.69 C
2605 06-08-2018 01:40:00 17.7 C 72 % 12.59 C
2606 06-08-2018 01:45:00 17.7 C 72 % 12.59 C
2607 06-08-2018 01:50:00 17.7 C 72 % 12.59 C
2608 06-08-2018 01:55:00 17.7 C 72 % 12.59 C
2609 06-08-2018 02:00:00 17.7 C 71 % 12.38 C
2610 06-08-2018 02:05:00 17.6 C 72 % 12.5 C
2611 06-08-2018 02:10:00 17.5 C 72 % 12.4 C
2612 06-08-2018 02:15:00 17.3 C 73 % 12.42 C
2613 06-08-2018 02:20:00 17.3 C 73 % 12.42 C
2614 06-08-2018 02:25:00 17.2 C 74 % 12.53 C
2615 06-08-2018 02:30:00 17.2 C 74 % 12.53 C
2616 06-08-2018 02:35:00 17.2 C 74 % 12.53 C
2617 06-08-2018 02:40:00 17.1 C 74 % 12.43 C
2618 06-08-2018 02:45:00 17 C 75 % 12.54 C
2619 06-08-2018 02:50:00 16.9 C 75 % 12.44 C
2620 06-08-2018 02:55:00 16.8 C 75 % 12.35 C
2621 06-08-2018 03:00:00 16.8 C 75 % 12.35 C
2622 06-08-2018 03:05:00 16.8 C 75 % 12.35 C
2623 06-08-2018 03:10:00 16.8 C 76 % 12.55 C
2624 06-08-2018 03:15:00 16.7 C 76 % 12.45 C
2625 06-08-2018 03:20:00 16.7 C 76 % 12.45 C
Sensor: Nr:Datum:Temp:Feuchte:Taupunkt:
Aussen-T/F 2626 06-08-2018 03:25:00 16.6 C 76 % 12.36 C
2627 06-08-2018 03:30:00 16.5 C 76 % 12.26 C
2628 06-08-2018 03:35:00 16.5 C 76 % 12.26 C
2629 06-08-2018 03:40:00 16.4 C 77 % 12.36 C
2630 06-08-2018 03:45:00 16.4 C 77 % 12.36 C
2631 06-08-2018 03:50:00 16.4 C 77 % 12.36 C
2632 06-08-2018 03:55:00 16.3 C 77 % 12.26 C
2633 06-08-2018 04:00:00 16.3 C 77 % 12.26 C
2634 06-08-2018 04:05:00 16.3 C 78 % 12.46 C
2635 06-08-2018 04:10:00 16.3 C 78 % 12.46 C
2636 06-08-2018 04:15:00 16.2 C 78 % 12.36 C
2637 06-08-2018 04:20:00 16.2 C 78 % 12.36 C
2638 06-08-2018 04:25:00 16.2 C 78 % 12.36 C
2639 06-08-2018 04:30:00 16.1 C 78 % 12.27 C
2640 06-08-2018 04:35:00 16.1 C 78 % 12.27 C
2641 06-08-2018 04:40:00 16 C 78 % 12.17 C
2642 06-08-2018 04:45:00 15.9 C 78 % 12.07 C
2643 06-08-2018 04:50:00 15.8 C 78 % 11.97 C
2644 06-08-2018 04:55:00 15.8 C 79 % 12.17 C
2645 06-08-2018 05:00:00 15.7 C 79 % 12.07 C
2646 06-08-2018 05:05:00 15.6 C 79 % 11.97 C
2647 06-08-2018 05:10:00 15.6 C 80 % 12.16 C
2648 06-08-2018 05:15:00 15.5 C 80 % 12.07 C
2649 06-08-2018 05:20:00 15.4 C 80 % 11.97 C
2650 06-08-2018 05:25:00 15.3 C 81 % 12.06 C
Sensor: Nr:Datum:Temp:Feuchte:Taupunkt:
Aussen-T/F 2651 06-08-2018 05:30:00 15.3 C 81 % 12.06 C
2652 06-08-2018 05:35:00 15.2 C 81 % 11.96 C
2653 06-08-2018 05:40:00 15.2 C 82 % 12.15 C
2654 06-08-2018 05:45:00 15.2 C 82 % 12.15 C
2655 06-08-2018 05:50:00 15.2 C 82 % 12.15 C
2656 06-08-2018 05:55:00 15.1 C 82 % 12.05 C
2657 06-08-2018 06:00:00 15 C 82 % 11.95 C
2658 06-08-2018 06:05:00 14.9 C 82 % 11.86 C
2659 06-08-2018 06:10:00 14.9 C 82 % 11.86 C
2660 06-08-2018 06:15:00 14.8 C 83 % 11.94 C
2661 06-08-2018 06:20:00 14.8 C 83 % 11.94 C
2662 06-08-2018 06:25:00 14.8 C 83 % 11.94 C
2663 06-08-2018 06:30:00 14.8 C 83 % 11.94 C
2664 06-08-2018 06:35:00 14.8 C 84 % 12.12 C
2665 06-08-2018 06:40:00 14.8 C 83 % 11.94 C
2666 06-08-2018 06:45:00 14.7 C 83 % 11.85 C
2667 06-08-2018 06:50:00 14.7 C 84 % 12.03 C
2668 06-08-2018 06:55:00 14.7 C 84 % 12.03 C
2669 06-08-2018 07:00:00 14.7 C 84 % 12.03 C
2670 06-08-2018 07:05:00 14.7 C 84 % 12.03 C
2671 06-08-2018 07:10:00 14.7 C 84 % 12.03 C
2672 06-08-2018 07:15:00 14.7 C 84 % 12.03 C
2673 06-08-2018 07:20:00 14.7 C 84 % 12.03 C
2674 06-08-2018 07:25:00 14.7 C 84 % 12.03 C
2675 06-08-2018 07:30:00 14.7 C 84 % 12.03 C
Sensor: Nr:Datum:Temp:Feuchte:Taupunkt:
Aussen-T/F 2676 06-08-2018 07:35:00 14.8 C 84 % 12.12 C
2677 06-08-2018 07:40:00 14.8 C 84 % 12.12 C
2678 06-08-2018 07:45:00 14.8 C 84 % 12.12 C
2679 06-08-2018 07:50:00 14.9 C 84 % 12.22 C
2680 06-08-2018 07:55:00 14.9 C 84 % 12.22 C
2681 06-08-2018 08:00:00 15 C 84 % 12.32 C
2682 06-08-2018 08:05:00 15.1 C 84 % 12.42 C
2683 06-08-2018 08:10:00 15.2 C 84 % 12.52 C
2684 06-08-2018 08:15:00 15.3 C 84 % 12.61 C
2685 06-08-2018 08:20:00 15.4 C 84 % 12.71 C
2686 06-08-2018 08:25:00 15.5 C 83 % 12.63 C
2687 06-08-2018 08:30:00 15.6 C 83 % 12.72 C
2688 06-08-2018 08:35:00 15.7 C 83 % 12.82 C
2689 06-08-2018 08:40:00 15.7 C 83 % 12.82 C
2690 06-08-2018 08:45:00 15.8 C 82 % 12.74 C
2691 06-08-2018 08:50:00 16 C 82 % 12.93 C
2692 06-08-2018 08:55:00 16.2 C 83 % 13.31 C
2693 06-08-2018 09:00:00 16.3 C 82 % 13.22 C
2694 06-08-2018 09:05:00 16.5 C 82 % 13.42 C
2695 06-08-2018 09:10:00 16.7 C 81 % 13.43 C
2696 06-08-2018 09:15:00 16.9 C 81 % 13.62 C
2697 06-08-2018 09:20:00 17.1 C 81 % 13.82 C
2698 06-08-2018 09:25:00 17.3 C 80 % 13.82 C
2699 06-08-2018 09:30:00 17.6 C 80 % 14.11 C
2700 06-08-2018 09:35:00 17.8 C 79 % 14.11 C
Sensor: Nr:Datum:Temp:Feuchte:Taupunkt:
Aussen-T/F 2701 06-08-2018 09:40:00 17.9 C 78 % 14.01 C
2702 06-08-2018 09:45:00 18.2 C 78 % 14.3 C
2703 06-08-2018 09:50:00 18.4 C 77 % 14.3 C
2704 06-08-2018 09:55:00 18.8 C 76 % 14.48 C
2705 06-08-2018 10:00:00 19.1 C 74 % 14.36 C
2706 06-08-2018 10:05:00 19.6 C 72 % 14.42 C
2707 06-08-2018 10:10:00 20.1 C 71 % 14.68 C
2708 06-08-2018 10:15:00 20.6 C 70 % 14.94 C
2709 06-08-2018 10:20:00 20.9 C 69 % 15 C
2710 06-08-2018 10:25:00 21.3 C 67 % 14.93 C
2711 06-08-2018 10:30:00 21.7 C 65 % 14.84 C
2712 06-08-2018 10:35:00 22.2 C 66 % 15.55 C
2713 06-08-2018 10:40:00 22.5 C 64 % 15.35 C
2714 06-08-2018 10:45:00 22.8 C 61 % 14.89 C
2715 06-08-2018 10:50:00 23.1 C 62 % 15.42 C
2716 06-08-2018 10:55:00 23.4 C 60 % 15.19 C
2717 06-08-2018 11:00:00 23.9 C 58 % 15.14 C
2718 06-08-2018 11:05:00 24.3 C 57 % 15.24 C
2719 06-08-2018 11:10:00 24.8 C 56 % 15.43 C
2720 06-08-2018 11:15:00 25.2 C 54 % 15.23 C
2721 06-08-2018 11:20:00 25.4 C 56 % 15.99 C
2722 06-08-2018 11:25:00 25.7 C 53 % 15.4 C
2723 06-08-2018 11:30:00 25.9 C 52 % 15.29 C
2724 06-08-2018 11:35:00 26.3 C 51 % 15.36 C
2725 06-08-2018 11:40:00 26.6 C 50 % 15.32 C
Sensor: Nr:Datum:Temp:Feuchte:Taupunkt:
Aussen-T/F 2726 06-08-2018 11:45:00 26.8 C 50 % 15.51 C
2727 06-08-2018 11:50:00 27.1 C 49 % 15.47 C
2728 06-08-2018 11:55:00 27.3 C 48 % 15.33 C
2729 06-08-2018 12:00:00 27.4 C 47 % 15.09 C
2730 06-08-2018 12:05:00 27.6 C 46 % 14.94 C
2731 06-08-2018 12:10:00 27.7 C 46 % 15.03 C
2732 06-08-2018 12:15:00 27.8 C 47 % 15.45 C
2733 06-08-2018 12:20:00 27.9 C 46 % 15.21 C
2734 06-08-2018 12:25:00 28.1 C 46 % 15.39 C
2735 06-08-2018 12:30:00 28.2 C 44 % 14.79 C
2736 06-08-2018 12:35:00 28.2 C 44 % 14.79 C
2737 06-08-2018 12:40:00 28.3 C 45 % 15.23 C
2738 06-08-2018 12:45:00 28.3 C 43 % 14.53 C
2739 06-08-2018 12:50:00 28.4 C 43 % 14.62 C
2740 06-08-2018 12:55:00 28.8 C 42 % 14.61 C
2741 06-08-2018 13:00:00 28.9 C 42 % 14.7 C
2742 06-08-2018 13:05:00 29 C 40 % 14.03 C
2743 06-08-2018 13:10:00 29 C 39 % 13.65 C
2744 06-08-2018 13:15:00 29.1 C 40 % 14.12 C
2745 06-08-2018 13:20:00 29.2 C 40 % 14.21 C
2746 06-08-2018 13:25:00 29.3 C 39 % 13.91 C
2747 06-08-2018 13:30:00 29.5 C 38 % 13.69 C
2748 06-08-2018 13:35:00 29.6 C 38 % 13.78 C
2749 06-08-2018 13:40:00 29.8 C 38 % 13.95 C
2750 06-08-2018 13:45:00 30 C 38 % 14.13 C
Sensor: Nr:Datum:Temp:Feuchte:Taupunkt:
Aussen-T/F 2751 06-08-2018 13:50:00 30.1 C 38 % 14.22 C
2752 06-08-2018 13:55:00 30.3 C 37 % 13.99 C
2753 06-08-2018 14:00:00 30.6 C 37 % 14.25 C
2754 06-08-2018 14:05:00 30.7 C 36 % 13.92 C
2755 06-08-2018 14:10:00 30.6 C 36 % 13.83 C
2756 06-08-2018 14:15:00 30.6 C 37 % 14.25 C
2757 06-08-2018 14:20:00 30.7 C 36 % 13.92 C
2758 06-08-2018 14:25:00 30.8 C 37 % 14.43 C
2759 06-08-2018 14:30:00 30.9 C 36 % 14.09 C
2760 06-08-2018 14:35:00 31 C 37 % 14.6 C
2761 06-08-2018 14:40:00 31 C 36 % 14.18 C
2762 06-08-2018 14:45:00 31.1 C 37 % 14.69 C
2763 06-08-2018 14:50:00 31.2 C 38 % 15.19 C
2764 06-08-2018 14:55:00 31.3 C 36 % 14.44 C
2765 06-08-2018 15:00:00 31.4 C 37 % 14.96 C
2766 06-08-2018 15:05:00 31.6 C 37 % 15.13 C
2767 06-08-2018 15:10:00 31.8 C 37 % 15.31 C
2768 06-08-2018 15:15:00 32.1 C 36 % 15.15 C
2769 06-08-2018 15:20:00 32.5 C 36 % 15.5 C
2770 06-08-2018 15:25:00 32.8 C 35 % 15.32 C
2771 06-08-2018 15:30:00 33 C 35 % 15.5 C
2772 06-08-2018 15:35:00 33.2 C 35 % 15.67 C
2773 06-08-2018 15:40:00 33.4 C 34 % 15.39 C
2774 06-08-2018 15:45:00 33.6 C 34 % 15.57 C
2775 06-08-2018 15:50:00 33.9 C 33 % 15.36 C
Sensor: Nr:Datum:Temp:Feuchte:Taupunkt:
Aussen-T/F 2776 06-08-2018 15:55:00 34.3 C 33 % 15.71 C
2777 06-08-2018 16:00:00 34.6 C 32 % 15.49 C
2778 06-08-2018 16:05:00 34.3 C 34 % 16.18 C
2779 06-08-2018 16:10:00 33.9 C 33 % 15.36 C
2780 06-08-2018 16:15:00 33.6 C 34 % 15.57 C
2781 06-08-2018 16:20:00 33.3 C 34 % 15.31 C
2782 06-08-2018 16:25:00 33.4 C 34 % 15.39 C
2783 06-08-2018 16:30:00 34.1 C 34 % 16 C
2784 06-08-2018 16:35:00 34.4 C 33 % 15.8 C
2785 06-08-2018 16:40:00 34.6 C 32 % 15.49 C
2786 06-08-2018 16:45:00 34.7 C 32 % 15.58 C
2787 06-08-2018 16:50:00 34.7 C 32 % 15.58 C
2788 06-08-2018 16:55:00 34.4 C 33 % 15.8 C
2789 06-08-2018 17:00:00 34 C 33 % 15.45 C
2790 06-08-2018 17:05:00 33.8 C 36 % 16.64 C
2791 06-08-2018 17:10:00 33.8 C 34 % 15.74 C
2792 06-08-2018 17:15:00 34.2 C 34 % 16.09 C
2793 06-08-2018 17:20:00 34.8 C 32 % 15.66 C
2794 06-08-2018 17:25:00 34.5 C 32 % 15.4 C
2795 06-08-2018 17:30:00 34.2 C 33 % 15.62 C
2796 06-08-2018 17:35:00 34.3 C 32 % 15.23 C
2797 06-08-2018 17:40:00 34.2 C 33 % 15.62 C
2798 06-08-2018 17:45:00 34.4 C 33 % 15.8 C
2799 06-08-2018 17:50:00 34.8 C 33 % 16.14 C
2800 06-08-2018 17:55:00 35.1 C 31 % 15.43 C
Sensor: Nr:Datum:Temp:Feuchte:Taupunkt:
Aussen-T/F 2801 06-08-2018 18:00:00 35.3 C 29 % 14.56 C
2802 06-08-2018 18:05:00 35.4 C 29 % 14.65 C
2803 06-08-2018 18:10:00 35.6 C 29 % 14.82 C
2804 06-08-2018 18:15:00 35.8 C 28 % 14.44 C
2805 06-08-2018 18:20:00 35.8 C 28 % 14.44 C
2806 06-08-2018 18:25:00 35.8 C 28 % 14.44 C
2807 06-08-2018 18:30:00 35.7 C 28 % 14.36 C
2808 06-08-2018 18:35:00 35.3 C 28 % 14.02 C
2809 06-08-2018 18:40:00 35.2 C 32 % 16.01 C
2810 06-08-2018 18:45:00 35.4 C 29 % 14.65 C
2811 06-08-2018 18:50:00 35.7 C 28 % 14.36 C
2812 06-08-2018 18:55:00 35.9 C 28 % 14.53 C
2813 06-08-2018 19:00:00 35.9 C 30 % 15.6 C
2814 06-08-2018 19:05:00 35.9 C 28 % 14.53 C
2815 06-08-2018 19:10:00 36.1 C 27 % 14.14 C
2816 06-08-2018 19:15:00 35.9 C 27 % 13.97 C
2817 06-08-2018 19:20:00 35.7 C 27 % 13.8 C
2818 06-08-2018 19:25:00 35.4 C 31 % 15.68 C
2819 06-08-2018 19:30:00 35.2 C 33 % 16.49 C
2820 06-08-2018 19:35:00 34.9 C 35 % 17.16 C
2821 06-08-2018 19:40:00 34.6 C 34 % 16.44 C
2822 06-08-2018 19:45:00 34.3 C 36 % 17.08 C
2823 06-08-2018 19:50:00 33.9 C 35 % 16.28 C
2824 06-08-2018 19:55:00 33.6 C 36 % 16.46 C
2825 06-08-2018 20:00:00 33.3 C 38 % 17.05 C
Sensor: Nr:Datum:Temp:Feuchte:Taupunkt:
Aussen-T/F 2826 06-08-2018 20:05:00 33 C 38 % 16.78 C
2827 06-08-2018 20:10:00 32.6 C 40 % 17.24 C
2828 06-08-2018 20:15:00 32 C 39 % 16.31 C
2829 06-08-2018 20:20:00 31.6 C 40 % 16.35 C
2830 06-08-2018 20:25:00 31.2 C 41 % 16.38 C
2831 06-08-2018 20:30:00 30.8 C 41 % 16.02 C
2832 06-08-2018 20:35:00 30.4 C 41 % 15.67 C
2833 06-08-2018 20:40:00 30.1 C 43 % 16.14 C
2834 06-08-2018 20:45:00 29.8 C 43 % 15.87 C
2835 06-08-2018 20:50:00 29.4 C 44 % 15.87 C
2836 06-08-2018 20:55:00 29.1 C 44 % 15.6 C
2837 06-08-2018 21:00:00 28.8 C 44 % 15.33 C
2838 06-08-2018 21:05:00 28.5 C 45 % 15.41 C
2839 06-08-2018 21:10:00 28.3 C 45 % 15.23 C
2840 06-08-2018 21:15:00 28.2 C 45 % 15.14 C
2841 06-08-2018 21:20:00 28 C 45 % 14.96 C
2842 06-08-2018 21:25:00 27.9 C 46 % 15.21 C
2843 06-08-2018 21:30:00 27.8 C 47 % 15.45 C
2844 06-08-2018 21:35:00 27.6 C 50 % 16.24 C
2845 06-08-2018 21:40:00 27.2 C 49 % 15.56 C
2846 06-08-2018 21:45:00 26.9 C 51 % 15.91 C
2847 06-08-2018 21:50:00 26.6 C 50 % 15.32 C
2848 06-08-2018 21:55:00 26.3 C 52 % 15.66 C
2849 06-08-2018 22:00:00 26.2 C 53 % 15.87 C
2850 06-08-2018 22:05:00 25.8 C 53 % 15.5 C
Sensor: Nr:Datum:Temp:Feuchte:Taupunkt:
Aussen-T/F 2851 06-08-2018 22:10:00 25.6 C 54 % 15.6 C
2852 06-08-2018 22:15:00 25.4 C 56 % 15.99 C
2853 06-08-2018 22:20:00 25.2 C 56 % 15.8 C
2854 06-08-2018 22:25:00 25 C 54 % 15.05 C
2855 06-08-2018 22:30:00 24.9 C 57 % 15.8 C
2856 06-08-2018 22:35:00 24.8 C 57 % 15.7 C
2857 06-08-2018 22:40:00 24.7 C 58 % 15.88 C
2858 06-08-2018 22:45:00 24.6 C 59 % 16.06 C
2859 06-08-2018 22:50:00 24.4 C 58 % 15.6 C
2860 06-08-2018 22:55:00 24.3 C 58 % 15.51 C
2861 06-08-2018 23:00:00 24.3 C 59 % 15.78 C
2862 06-08-2018 23:05:00 24.3 C 59 % 15.78 C
2863 06-08-2018 23:10:00 24.2 C 59 % 15.68 C
2864 06-08-2018 23:15:00 24 C 60 % 15.76 C
2865 06-08-2018 23:20:00 23.8 C 61 % 15.83 C
2866 06-08-2018 23:25:00 23.5 C 61 % 15.55 C
2867 06-08-2018 23:30:00 23.3 C 61 % 15.36 C
2868 06-08-2018 23:35:00 23.2 C 61 % 15.26 C
2869 06-08-2018 23:40:00 23.1 C 63 % 15.67 C
2870 06-08-2018 23:45:00 22.9 C 62 % 15.23 C
2871 06-08-2018 23:50:00 22.8 C 63 % 15.39 C
2872 06-08-2018 23:55:00 22.6 C 64 % 15.45 C
2873 07-08-2018 00:00:00 22.4 C 64 % 15.26 C
2874 07-08-2018 00:05:00 22.2 C 65 % 15.31 C
2875 07-08-2018 00:10:00 22 C 65 % 15.12 C
Sensor: Nr:Datum:Temp:Feuchte:Taupunkt:
Aussen-T/F 2876 07-08-2018 00:15:00 21.8 C 64 % 14.69 C
2877 07-08-2018 00:20:00 21.7 C 65 % 14.84 C
2878 07-08-2018 00:25:00 21.6 C 64 % 14.5 C
2879 07-08-2018 00:30:00 21.6 C 64 % 14.5 C
2880 07-08-2018 00:35:00 21.5 C 65 % 14.65 C
2881 07-08-2018 00:40:00 21.5 C 64 % 14.41 C
2882 07-08-2018 00:45:00 21.5 C 65 % 14.65 C
2883 07-08-2018 00:50:00 21.5 C 65 % 14.65 C
2884 07-08-2018 00:55:00 21.5 C 64 % 14.41 C
2885 07-08-2018 01:00:00 21.5 C 65 % 14.65 C
2886 07-08-2018 01:05:00 21.4 C 65 % 14.55 C
2887 07-08-2018 01:10:00 21.4 C 65 % 14.55 C
2888 07-08-2018 01:15:00 21.2 C 65 % 14.36 C
2889 07-08-2018 01:20:00 21 C 66 % 14.41 C
2890 07-08-2018 01:25:00 20.9 C 66 % 14.31 C
2891 07-08-2018 01:30:00 20.7 C 67 % 14.36 C
2892 07-08-2018 01:35:00 20.6 C 68 % 14.49 C
2893 07-08-2018 01:40:00 20.3 C 67 % 13.97 C
2894 07-08-2018 01:45:00 20.2 C 68 % 14.11 C
2895 07-08-2018 01:50:00 20 C 69 % 14.14 C
2896 07-08-2018 01:55:00 19.8 C 70 % 14.17 C
2897 07-08-2018 02:00:00 19.7 C 70 % 14.08 C
2898 07-08-2018 02:05:00 19.4 C 71 % 14.01 C
2899 07-08-2018 02:10:00 19.3 C 71 % 13.91 C
2900 07-08-2018 02:15:00 19.1 C 72 % 13.94 C
Sensor: Nr:Datum:Temp:Feuchte:Taupunkt:
Aussen-T/F 2901 07-08-2018 02:20:00 19.1 C 72 % 13.94 C
2902 07-08-2018 02:25:00 19 C 72 % 13.84 C
2903 07-08-2018 02:30:00 19.1 C 72 % 13.94 C
2904 07-08-2018 02:35:00 19.3 C 73 % 14.34 C
2905 07-08-2018 02:40:00 19.5 C 74 % 14.74 C
2906 07-08-2018 02:45:00 19.5 C 73 % 14.53 C
2907 07-08-2018 02:50:00 19.4 C 72 % 14.22 C
2908 07-08-2018 02:55:00 19.3 C 72 % 14.13 C
2909 07-08-2018 03:00:00 19.1 C 73 % 14.15 C
2910 07-08-2018 03:05:00 18.9 C 73 % 13.96 C
2911 07-08-2018 03:10:00 18.8 C 73 % 13.86 C
2912 07-08-2018 03:15:00 18.7 C 73 % 13.76 C
2913 07-08-2018 03:20:00 18.6 C 74 % 13.88 C
2914 07-08-2018 03:25:00 18.6 C 74 % 13.88 C
2915 07-08-2018 03:30:00 18.6 C 74 % 13.88 C
2916 07-08-2018 03:35:00 18.5 C 74 % 13.78 C
2917 07-08-2018 03:40:00 18.3 C 74 % 13.59 C
2918 07-08-2018 03:45:00 18.2 C 75 % 13.7 C
2919 07-08-2018 03:50:00 18.1 C 75 % 13.6 C
2920 07-08-2018 03:55:00 18.1 C 75 % 13.6 C
2921 07-08-2018 04:00:00 17.9 C 76 % 13.61 C
2922 07-08-2018 04:05:00 17.8 C 76 % 13.52 C
2923 07-08-2018 04:10:00 17.8 C 76 % 13.52 C
2924 07-08-2018 04:15:00 17.7 C 77 % 13.62 C
2925 07-08-2018 04:20:00 17.6 C 77 % 13.52 C
Sensor: Nr:Datum:Temp:Feuchte:Taupunkt:
Aussen-T/F 2926 07-08-2018 04:25:00 17.5 C 78 % 13.62 C
2927 07-08-2018 04:30:00 17.4 C 78 % 13.53 C
2928 07-08-2018 04:35:00 17.4 C 78 % 13.53 C
2929 07-08-2018 04:40:00 17.3 C 78 % 13.43 C
2930 07-08-2018 04:45:00 17.2 C 78 % 13.33 C
2931 07-08-2018 04:50:00 17.2 C 79 % 13.53 C
2932 07-08-2018 04:55:00 17.2 C 79 % 13.53 C
2933 07-08-2018 05:00:00 17.2 C 80 % 13.72 C
2934 07-08-2018 05:05:00 17.2 C 80 % 13.72 C
2935 07-08-2018 05:10:00 17.2 C 80 % 13.72 C
2936 07-08-2018 05:15:00 17.2 C 80 % 13.72 C
2937 07-08-2018 05:20:00 17.2 C 79 % 13.53 C
2938 07-08-2018 05:25:00 17.1 C 79 % 13.43 C
2939 07-08-2018 05:30:00 16.9 C 79 % 13.24 C
2940 07-08-2018 05:35:00 16.9 C 80 % 13.43 C
2941 07-08-2018 05:40:00 16.8 C 80 % 13.33 C
2942 07-08-2018 05:45:00 16.7 C 80 % 13.23 C
2943 07-08-2018 05:50:00 16.7 C 81 % 13.43 C
2944 07-08-2018 05:55:00 16.6 C 81 % 13.33 C
2945 07-08-2018 06:00:00 16.5 C 81 % 13.23 C
2946 07-08-2018 06:05:00 16.6 C 82 % 13.52 C
2947 07-08-2018 06:10:00 16.6 C 82 % 13.52 C
2948 07-08-2018 06:15:00 16.6 C 82 % 13.52 C
2949 07-08-2018 06:20:00 16.6 C 82 % 13.52 C
2950 07-08-2018 06:25:00 16.5 C 82 % 13.42 C
Sensor: Nr:Datum:Temp:Feuchte:Taupunkt:
Aussen-T/F 2951 07-08-2018 06:30:00 16.6 C 82 % 13.52 C
2952 07-08-2018 06:35:00 16.6 C 83 % 13.7 C
2953 07-08-2018 06:40:00 16.7 C 83 % 13.8 C
2954 07-08-2018 06:45:00 16.7 C 82 % 13.61 C
2955 07-08-2018 06:50:00 16.8 C 82 % 13.71 C
2956 07-08-2018 06:55:00 16.8 C 82 % 13.71 C
2957 07-08-2018 07:00:00 16.9 C 82 % 13.81 C
2958 07-08-2018 07:05:00 16.9 C 82 % 13.81 C
2959 07-08-2018 07:10:00 16.9 C 83 % 14 C
2960 07-08-2018 07:15:00 17 C 83 % 14.09 C
2961 07-08-2018 07:20:00 17 C 83 % 14.09 C
2962 07-08-2018 07:25:00 17 C 83 % 14.09 C
2963 07-08-2018 07:30:00 17.1 C 83 % 14.19 C
2964 07-08-2018 07:35:00 17.1 C 83 % 14.19 C
2965 07-08-2018 07:40:00 17.2 C 83 % 14.29 C
2966 07-08-2018 07:45:00 17.3 C 83 % 14.39 C
2967 07-08-2018 07:50:00 17.3 C 83 % 14.39 C
2968 07-08-2018 07:55:00 17.4 C 84 % 14.67 C
2969 07-08-2018 08:00:00 17.5 C 83 % 14.58 C
2970 07-08-2018 08:05:00 17.6 C 83 % 14.68 C
2971 07-08-2018 08:10:00 17.7 C 83 % 14.78 C
2972 07-08-2018 08:15:00 17.8 C 83 % 14.88 C
2973 07-08-2018 08:20:00 17.9 C 83 % 14.97 C
2974 07-08-2018 08:25:00 18.1 C 83 % 15.17 C
2975 07-08-2018 08:30:00 18.2 C 82 % 15.08 C
Sensor: Nr:Datum:Temp:Feuchte:Taupunkt:
Aussen-T/F 2976 07-08-2018 08:35:00 18.3 C 82 % 15.17 C
2977 07-08-2018 08:40:00 18.3 C 82 % 15.17 C
2978 07-08-2018 08:45:00 18.6 C 82 % 15.47 C
2979 07-08-2018 08:50:00 18.7 C 83 % 15.75 C
2980 07-08-2018 08:55:00 18.8 C 82 % 15.66 C
2981 07-08-2018 09:00:00 19 C 81 % 15.67 C
2982 07-08-2018 09:05:00 19.2 C 79 % 15.47 C
2983 07-08-2018 09:10:00 19.5 C 80 % 15.96 C
2984 07-08-2018 09:15:00 19.8 C 81 % 16.45 C
2985 07-08-2018 09:20:00 20.1 C 80 % 16.54 C
2986 07-08-2018 09:25:00 20.2 C 80 % 16.64 C
2987 07-08-2018 09:30:00 20.4 C 76 % 16.03 C
2988 07-08-2018 09:35:00 20.7 C 77 % 16.52 C
2989 07-08-2018 09:40:00 21.1 C 74 % 16.29 C
2990 07-08-2018 09:45:00 21.6 C 72 % 16.34 C
2991 07-08-2018 09:50:00 22 C 71 % 16.5 C
2992 07-08-2018 09:55:00 22.3 C 70 % 16.56 C
2993 07-08-2018 10:00:00 22.6 C 68 % 16.39 C
2994 07-08-2018 10:05:00 22.8 C 69 % 16.82 C
2995 07-08-2018 10:10:00 23.1 C 68 % 16.87 C
2996 07-08-2018 10:15:00 23.2 C 69 % 17.2 C
2997 07-08-2018 10:20:00 23.2 C 69 % 17.2 C
2998 07-08-2018 10:25:00 23.2 C 69 % 17.2 C
2999 07-08-2018 10:30:00 23.3 C 69 % 17.29 C
3000 07-08-2018 10:35:00 23.5 C 69 % 17.48 C
Sensor: Nr:Datum:Temp:Feuchte:Taupunkt:
Aussen-T/F 3001 07-08-2018 10:40:00 23.7 C 68 % 17.44 C
3002 07-08-2018 10:45:00 23.9 C 69 % 17.87 C
3003 07-08-2018 10:50:00 24.2 C 67 % 17.68 C
3004 07-08-2018 10:55:00 24.4 C 67 % 17.87 C
3005 07-08-2018 11:00:00 24.7 C 67 % 18.16 C
3006 07-08-2018 11:05:00 24.9 C 68 % 18.59 C
3007 07-08-2018 11:10:00 25.1 C 66 % 18.3 C
3008 07-08-2018 11:15:00 25.3 C 66 % 18.49 C
3009 07-08-2018 11:20:00 25.6 C 65 % 18.53 C
3010 07-08-2018 11:25:00 25.9 C 63 % 18.31 C
3011 07-08-2018 11:30:00 26.3 C 62 % 18.44 C
3012 07-08-2018 11:35:00 26.8 C 60 % 18.38 C
3013 07-08-2018 11:40:00 27.3 C 58 % 18.31 C
3014 07-08-2018 11:45:00 27.8 C 56 % 18.22 C
3015 07-08-2018 11:50:00 28.2 C 56 % 18.59 C
3016 07-08-2018 11:55:00 28.6 C 55 % 18.67 C
3017 07-08-2018 12:00:00 28.9 C 52 % 18.05 C
3018 07-08-2018 12:05:00 29.2 C 50 % 17.71 C
3019 07-08-2018 12:10:00 29.7 C 50 % 18.16 C
3020 07-08-2018 12:15:00 30.2 C 47 % 17.64 C
3021 07-08-2018 12:20:00 30.7 C 46 % 17.75 C
3022 07-08-2018 12:25:00 31.1 C 45 % 17.76 C
3023 07-08-2018 12:30:00 31.4 C 43 % 17.31 C
3024 07-08-2018 12:35:00 31.7 C 41 % 16.83 C
3025 07-08-2018 12:40:00 31.8 C 40 % 16.53 C
Sensor: Nr:Datum:Temp:Feuchte:Taupunkt:
Aussen-T/F 3026 07-08-2018 12:45:00 31.9 C 40 % 16.62 C
3027 07-08-2018 12:50:00 32.1 C 39 % 16.4 C
3028 07-08-2018 12:55:00 32.2 C 39 % 16.48 C
3029 07-08-2018 13:00:00 32.2 C 40 % 16.88 C
3030 07-08-2018 13:05:00 32.3 C 37 % 15.75 C
3031 07-08-2018 13:10:00 32.6 C 37 % 16.01 C
3032 07-08-2018 13:15:00 32.7 C 37 % 16.1 C
3033 07-08-2018 13:20:00 32.9 C 36 % 15.85 C
3034 07-08-2018 13:25:00 33 C 37 % 16.36 C
3035 07-08-2018 13:30:00 33.1 C 41 % 18.08 C
3036 07-08-2018 13:35:00 32.9 C 39 % 17.11 C
3037 07-08-2018 13:40:00 32.8 C 39 % 17.02 C
3038 07-08-2018 13:45:00 32.8 C 37 % 16.19 C
3039 07-08-2018 13:50:00 33.2 C 35 % 15.67 C
3040 07-08-2018 13:55:00 33.7 C 34 % 15.65 C
3041 07-08-2018 14:00:00 34.1 C 33 % 15.54 C
3042 07-08-2018 14:05:00 34.3 C 33 % 15.71 C
3043 07-08-2018 14:10:00 34.3 C 33 % 15.71 C
3044 07-08-2018 14:15:00 34.3 C 32 % 15.23 C
3045 07-08-2018 14:20:00 34.6 C 32 % 15.49 C
3046 07-08-2018 14:25:00 34.8 C 31 % 15.17 C
3047 07-08-2018 14:30:00 34.9 C 31 % 15.25 C
3048 07-08-2018 14:35:00 34.9 C 31 % 15.25 C
3049 07-08-2018 14:40:00 34.8 C 30 % 14.66 C
3050 07-08-2018 14:45:00 34.8 C 31 % 15.17 C
Sensor: Nr:Datum:Temp:Feuchte:Taupunkt:
Aussen-T/F 3051 07-08-2018 14:50:00 34.9 C 31 % 15.25 C
3052 07-08-2018 14:55:00 35 C 30 % 14.83 C
3053 07-08-2018 15:00:00 35.2 C 30 % 15 C
3054 07-08-2018 15:05:00 35.2 C 30 % 15 C
3055 07-08-2018 15:10:00 35.2 C 30 % 15 C
3056 07-08-2018 15:15:00 35.3 C 30 % 15.09 C
3057 07-08-2018 15:20:00 35.5 C 29 % 14.73 C
3058 07-08-2018 15:25:00 35.8 C 29 % 14.99 C
3059 07-08-2018 15:30:00 35.8 C 30 % 15.52 C
3060 07-08-2018 15:35:00 35.9 C 28 % 14.53 C
3061 07-08-2018 15:40:00 36.1 C 29 % 15.24 C
3062 07-08-2018 15:45:00 36.3 C 29 % 15.41 C
3063 07-08-2018 15:50:00 36.6 C 29 % 15.67 C
3064 07-08-2018 15:55:00 36.9 C 28 % 15.38 C
3065 07-08-2018 16:00:00 37.2 C 27 % 15.07 C
3066 07-08-2018 16:05:00 37.1 C 27 % 14.98 C
3067 07-08-2018 16:10:00 37.2 C 27 % 15.07 C
3068 07-08-2018 16:15:00 37.3 C 26 % 14.57 C
3069 07-08-2018 16:20:00 37.4 C 26 % 14.65 C
3070 07-08-2018 16:25:00 37.1 C 27 % 14.98 C
3071 07-08-2018 16:30:00 37 C 27 % 14.9 C
3072 07-08-2018 16:35:00 37.2 C 28 % 15.63 C
3073 07-08-2018 16:40:00 37.7 C 27 % 15.49 C
3074 07-08-2018 16:45:00 38 C 27 % 15.74 C
3075 07-08-2018 16:50:00 38.1 C 28 % 16.4 C
Sensor: Nr:Datum:Temp:Feuchte:Taupunkt:
Aussen-T/F 3076 07-08-2018 16:55:00 37.8 C 27 % 15.57 C
3077 07-08-2018 17:00:00 37.6 C 26 % 14.82 C
3078 07-08-2018 17:05:00 37.6 C 26 % 14.82 C
3079 07-08-2018 17:10:00 37.9 C 26 % 15.07 C
3080 07-08-2018 17:15:00 38.1 C 25 % 14.63 C
3081 07-08-2018 17:20:00 37.9 C 26 % 15.07 C
3082 07-08-2018 17:25:00 37.7 C 27 % 15.49 C
3083 07-08-2018 17:30:00 37.4 C 28 % 15.8 C
3084 07-08-2018 17:35:00 37.5 C 27 % 15.32 C
3085 07-08-2018 17:40:00 37.8 C 26 % 14.99 C
3086 07-08-2018 17:45:00 37.9 C 26 % 15.07 C
3087 07-08-2018 17:50:00 37.8 C 26 % 14.99 C
3088 07-08-2018 17:55:00 38.2 C 25 % 14.71 C
3089 07-08-2018 18:00:00 38.3 C 25 % 14.8 C
3090 07-08-2018 18:05:00 38.3 C 23 % 13.51 C
3091 07-08-2018 18:10:00 38.4 C 24 % 14.25 C
3092 07-08-2018 18:15:00 38.4 C 23 % 13.59 C
3093 07-08-2018 18:20:00 38.4 C 23 % 13.59 C
3094 07-08-2018 18:25:00 38.4 C 24 % 14.25 C
3095 07-08-2018 18:30:00 38.4 C 23 % 13.59 C
3096 07-08-2018 18:35:00 38.3 C 23 % 13.51 C
3097 07-08-2018 18:40:00 38.3 C 23 % 13.51 C
3098 07-08-2018 18:45:00 38.2 C 23 % 13.43 C
3099 07-08-2018 18:50:00 38 C 24 % 13.92 C
3100 07-08-2018 18:55:00 37.8 C 23 % 13.1 C
Sensor: Nr:Datum:Temp:Feuchte:Taupunkt:
Aussen-T/F 3101 07-08-2018 19:00:00 37.7 C 25 % 14.29 C
3102 07-08-2018 19:05:00 37.6 C 23 % 12.93 C
3103 07-08-2018 19:10:00 37.6 C 24 % 13.58 C
3104 07-08-2018 19:15:00 37.6 C 24 % 13.58 C
3105 07-08-2018 19:20:00 37.5 C 24 % 13.5 C
3106 07-08-2018 19:25:00 37.2 C 24 % 13.25 C
3107 07-08-2018 19:30:00 36.9 C 28 % 15.38 C
3108 07-08-2018 19:35:00 36.7 C 27 % 14.64 C
3109 07-08-2018 19:40:00 36.4 C 29 % 15.5 C
3110 07-08-2018 19:45:00 36.1 C 26 % 13.56 C
3111 07-08-2018 19:50:00 35.7 C 31 % 15.94 C
3112 07-08-2018 19:55:00 35.4 C 32 % 16.18 C
3113 07-08-2018 20:00:00 35 C 33 % 16.32 C
3114 07-08-2018 20:05:00 34.5 C 35 % 16.81 C
3115 07-08-2018 20:10:00 34 C 37 % 17.25 C
3116 07-08-2018 20:15:00 33.6 C 39 % 17.73 C
3117 07-08-2018 20:20:00 33.3 C 40 % 17.86 C
3118 07-08-2018 20:25:00 33.2 C 40 % 17.77 C
3119 07-08-2018 20:30:00 33 C 41 % 17.99 C
3120 07-08-2018 20:35:00 32.9 C 41 % 17.9 C
3121 07-08-2018 20:40:00 32.8 C 42 % 18.19 C
3122 07-08-2018 20:45:00 32.7 C 43 % 18.48 C
3123 07-08-2018 20:50:00 32.4 C 43 % 18.21 C
3124 07-08-2018 20:55:00 32.2 C 44 % 18.39 C
3125 07-08-2018 21:00:00 32.1 C 45 % 18.66 C
Sensor: Nr:Datum:Temp:Feuchte:Taupunkt:
Aussen-T/F 3126 07-08-2018 21:05:00 31.8 C 45 % 18.39 C
3127 07-08-2018 21:10:00 31.6 C 46 % 18.56 C
3128 07-08-2018 21:15:00 31.3 C 48 % 18.97 C
3129 07-08-2018 21:20:00 31 C 48 % 18.7 C
3130 07-08-2018 21:25:00 30.6 C 48 % 18.33 C
3131 07-08-2018 21:30:00 30.3 C 48 % 18.06 C
3132 07-08-2018 21:35:00 30.1 C 49 % 18.21 C
3133 07-08-2018 21:40:00 29.8 C 50 % 18.25 C
3134 07-08-2018 21:45:00 29.6 C 49 % 17.75 C
3135 07-08-2018 21:50:00 29.3 C 50 % 17.8 C
3136 07-08-2018 21:55:00 29.2 C 52 % 18.33 C
3137 07-08-2018 22:00:00 28.9 C 52 % 18.05 C
3138 07-08-2018 22:05:00 28.8 C 53 % 18.26 C
3139 07-08-2018 22:10:00 28.6 C 53 % 18.08 C
3140 07-08-2018 22:15:00 28.5 C 54 % 18.29 C
3141 07-08-2018 22:20:00 28.4 C 55 % 18.49 C
3142 07-08-2018 22:25:00 28.3 C 54 % 18.1 C
3143 07-08-2018 22:30:00 28.3 C 54 % 18.1 C
3144 07-08-2018 22:35:00 28.3 C 54 % 18.1 C
3145 07-08-2018 22:40:00 28.3 C 54 % 18.1 C
3146 07-08-2018 22:45:00 28.2 C 55 % 18.3 C
3147 07-08-2018 22:50:00 28.2 C 54 % 18.01 C
3148 07-08-2018 22:55:00 28.2 C 54 % 18.01 C
3149 07-08-2018 23:00:00 28.1 C 55 % 18.21 C
3150 07-08-2018 23:05:00 28.1 C 55 % 18.21 C
Sensor: Nr:Datum:Temp:Feuchte:Taupunkt:
Aussen-T/F 3151 07-08-2018 23:10:00 28.1 C 55 % 18.21 C
3152 07-08-2018 23:15:00 28.1 C 55 % 18.21 C
3153 07-08-2018 23:20:00 28.1 C 55 % 18.21 C
3154 07-08-2018 23:25:00 28 C 56 % 18.4 C
3155 07-08-2018 23:30:00 27.9 C 55 % 18.02 C
3156 07-08-2018 23:35:00 27.8 C 56 % 18.22 C
3157 07-08-2018 23:40:00 27.7 C 56 % 18.12 C
3158 07-08-2018 23:45:00 27.7 C 57 % 18.41 C
3159 07-08-2018 23:50:00 27.6 C 57 % 18.31 C
3160 07-08-2018 23:55:00 27.5 C 57 % 18.22 C
3161 08-08-2018 00:00:00 27.4 C 58 % 18.4 C
3162 08-08-2018 00:05:00 27.3 C 58 % 18.31 C
3163 08-08-2018 00:10:00 27.2 C 58 % 18.22 C
3164 08-08-2018 00:15:00 27.1 C 59 % 18.4 C
3165 08-08-2018 00:20:00 26.9 C 59 % 18.21 C
3166 08-08-2018 00:25:00 26.8 C 60 % 18.38 C
3167 08-08-2018 00:30:00 26.7 C 60 % 18.29 C
3168 08-08-2018 00:35:00 26.6 C 61 % 18.46 C
3169 08-08-2018 00:40:00 26.3 C 62 % 18.44 C
3170 08-08-2018 00:45:00 26.1 C 61 % 17.99 C
3171 08-08-2018 00:50:00 25.9 C 61 % 17.8 C
3172 08-08-2018 00:55:00 25.8 C 61 % 17.71 C
3173 08-08-2018 01:00:00 25.8 C 61 % 17.71 C
3174 08-08-2018 01:05:00 25.8 C 62 % 17.97 C
3175 08-08-2018 01:10:00 25.6 C 63 % 18.03 C
Sensor: Nr:Datum:Temp:Feuchte:Taupunkt:
Aussen-T/F 3176 08-08-2018 01:15:00 25.4 C 63 % 17.84 C
3177 08-08-2018 01:20:00 25.3 C 63 % 17.75 C
3178 08-08-2018 01:25:00 25.2 C 63 % 17.65 C
3179 08-08-2018 01:30:00 25.1 C 63 % 17.56 C
3180 08-08-2018 01:35:00 24.9 C 64 % 17.62 C
3181 08-08-2018 01:40:00 24.8 C 64 % 17.53 C
3182 08-08-2018 01:45:00 24.7 C 65 % 17.68 C
3183 08-08-2018 01:50:00 24.4 C 65 % 17.39 C
3184 08-08-2018 01:55:00 24.2 C 65 % 17.2 C
3185 08-08-2018 02:00:00 24.1 C 66 % 17.35 C
3186 08-08-2018 02:05:00 23.9 C 65 % 16.92 C
3187 08-08-2018 02:10:00 23.7 C 66 % 16.97 C
3188 08-08-2018 02:15:00 23.6 C 67 % 17.11 C
3189 08-08-2018 02:20:00 23.4 C 68 % 17.16 C
3190 08-08-2018 02:25:00 23.5 C 68 % 17.25 C
3191 08-08-2018 02:30:00 23.5 C 68 % 17.25 C
3192 08-08-2018 02:35:00 23.5 C 68 % 17.25 C
3193 08-08-2018 02:40:00 23.6 C 69 % 17.58 C
3194 08-08-2018 02:45:00 23.7 C 67 % 17.21 C
3195 08-08-2018 02:50:00 23.9 C 67 % 17.4 C
3196 08-08-2018 02:55:00 24.2 C 66 % 17.45 C
3197 08-08-2018 03:00:00 24.4 C 65 % 17.39 C
3198 08-08-2018 03:05:00 24.6 C 65 % 17.58 C
3199 08-08-2018 03:10:00 24.7 C 64 % 17.43 C
3200 08-08-2018 03:15:00 24.8 C 65 % 17.77 C
Sensor: Nr:Datum:Temp:Feuchte:Taupunkt:
Aussen-T/F 3201 08-08-2018 03:20:00 24.8 C 66 % 18.01 C
3202 08-08-2018 03:25:00 24.8 C 66 % 18.01 C
3203 08-08-2018 03:30:00 24.7 C 67 % 18.16 C
3204 08-08-2018 03:35:00 24.6 C 68 % 18.3 C
3205 08-08-2018 03:40:00 24.4 C 68 % 18.11 C
3206 08-08-2018 03:45:00 24.2 C 68 % 17.92 C
3207 08-08-2018 03:50:00 24.1 C 64 % 16.86 C
3208 08-08-2018 03:55:00 24.2 C 62 % 16.46 C
3209 08-08-2018 04:00:00 24.3 C 60 % 16.04 C
3210 08-08-2018 04:05:00 24.4 C 60 % 16.13 C
3211 08-08-2018 04:10:00 24.6 C 61 % 16.58 C
3212 08-08-2018 04:15:00 24.5 C 60 % 16.23 C
3213 08-08-2018 04:20:00 24.4 C 60 % 16.13 C
3214 08-08-2018 04:25:00 24.4 C 60 % 16.13 C
3215 08-08-2018 04:30:00 24.4 C 60 % 16.13 C
3216 08-08-2018 04:35:00 24.3 C 61 % 16.3 C
3217 08-08-2018 04:40:00 24.2 C 61 % 16.2 C
3218 08-08-2018 04:45:00 24 C 61 % 16.02 C
3219 08-08-2018 04:50:00 23.9 C 62 % 16.18 C
3220 08-08-2018 04:55:00 23.7 C 62 % 15.99 C
3221 08-08-2018 05:00:00 23.7 C 62 % 15.99 C
3222 08-08-2018 05:05:00 23.6 C 61 % 15.64 C
3223 08-08-2018 05:10:00 23.7 C 62 % 15.99 C
3224 08-08-2018 05:15:00 23.7 C 62 % 15.99 C
3225 08-08-2018 05:20:00 23.7 C 63 % 16.24 C
Sensor: Nr:Datum:Temp:Feuchte:Taupunkt:
Aussen-T/F 3226 08-08-2018 05:25:00 23.7 C 64 % 16.49 C
3227 08-08-2018 05:30:00 23.7 C 64 % 16.49 C
3228 08-08-2018 05:35:00 23.6 C 64 % 16.39 C
3229 08-08-2018 05:40:00 23.6 C 62 % 15.89 C
3230 08-08-2018 05:45:00 24.2 C 61 % 16.2 C
3231 08-08-2018 05:50:00 24.7 C 61 % 16.67 C
3232 08-08-2018 05:55:00 24.7 C 63 % 17.18 C
3233 08-08-2018 06:00:00 24.4 C 65 % 17.39 C
3234 08-08-2018 06:05:00 24.1 C 67 % 17.59 C
3235 08-08-2018 06:10:00 23.7 C 68 % 17.44 C
3236 08-08-2018 06:15:00 23.3 C 70 % 17.52 C
3237 08-08-2018 06:20:00 23.1 C 71 % 17.55 C
3238 08-08-2018 06:25:00 22.8 C 71 % 17.27 C
3239 08-08-2018 06:30:00 22.7 C 71 % 17.17 C
3240 08-08-2018 06:35:00 22.6 C 71 % 17.07 C
3241 08-08-2018 06:40:00 22.5 C 71 % 16.98 C
3242 08-08-2018 06:45:00 22.4 C 71 % 16.88 C
3243 08-08-2018 06:50:00 22.4 C 71 % 16.88 C
3244 08-08-2018 06:55:00 22.3 C 71 % 16.79 C
3245 08-08-2018 07:00:00 22.3 C 71 % 16.79 C
3246 08-08-2018 07:05:00 22.2 C 71 % 16.69 C
3247 08-08-2018 07:10:00 22.2 C 71 % 16.69 C
3248 08-08-2018 07:15:00 22.2 C 71 % 16.69 C
3249 08-08-2018 07:20:00 22.2 C 71 % 16.69 C
3250 08-08-2018 07:25:00 22.1 C 71 % 16.6 C
Sensor: Nr:Datum:Temp:Feuchte:Taupunkt:
Aussen-T/F 3251 08-08-2018 07:30:00 22.1 C 71 % 16.6 C
3252 08-08-2018 07:35:00 22.1 C 72 % 16.82 C
3253 08-08-2018 07:40:00 22.1 C 71 % 16.6 C
3254 08-08-2018 07:45:00 22.1 C 72 % 16.82 C
3255 08-08-2018 07:50:00 22.2 C 72 % 16.91 C
3256 08-08-2018 07:55:00 22.2 C 72 % 16.91 C
3257 08-08-2018 08:00:00 22.3 C 72 % 17.01 C
3258 08-08-2018 08:05:00 22.3 C 72 % 17.01 C
3259 08-08-2018 08:10:00 22.4 C 72 % 17.1 C
3260 08-08-2018 08:15:00 22.4 C 72 % 17.1 C
3261 08-08-2018 08:20:00 22.4 C 72 % 17.1 C
3262 08-08-2018 08:25:00 22.5 C 72 % 17.2 C
3263 08-08-2018 08:30:00 22.5 C 73 % 17.42 C
3264 08-08-2018 08:35:00 22.4 C 74 % 17.54 C
3265 08-08-2018 08:40:00 22.4 C 74 % 17.54 C
3266 08-08-2018 08:45:00 22.5 C 74 % 17.63 C
3267 08-08-2018 08:50:00 22.6 C 74 % 17.73 C
3268 08-08-2018 08:55:00 22.7 C 73 % 17.61 C
3269 08-08-2018 09:00:00 22.8 C 73 % 17.71 C
3270 08-08-2018 09:05:00 22.8 C 73 % 17.71 C
3271 08-08-2018 09:10:00 22.9 C 72 % 17.58 C
3272 08-08-2018 09:15:00 23.1 C 73 % 17.99 C
3273 08-08-2018 09:20:00 23.2 C 72 % 17.87 C
3274 08-08-2018 09:25:00 23.2 C 72 % 17.87 C
3275 08-08-2018 09:30:00 23.2 C 71 % 17.65 C
Sensor: Nr:Datum:Temp:Feuchte:Taupunkt:
Aussen-T/F 3276 08-08-2018 09:35:00 23.2 C 71 % 17.65 C
3277 08-08-2018 09:40:00 23.3 C 71 % 17.75 C
3278 08-08-2018 09:45:00 23.3 C 72 % 17.97 C
3279 08-08-2018 09:50:00 23.5 C 71 % 17.94 C
3280 08-08-2018 09:55:00 23.7 C 70 % 17.9 C
3281 08-08-2018 10:00:00 23.8 C 69 % 17.77 C
3282 08-08-2018 10:05:00 23.9 C 69 % 17.87 C
3283 08-08-2018 10:10:00 24.1 C 69 % 18.06 C
3284 08-08-2018 10:15:00 24.3 C 68 % 18.01 C
3285 08-08-2018 10:20:00 24.4 C 68 % 18.11 C
3286 08-08-2018 10:25:00 24.7 C 67 % 18.16 C
3287 08-08-2018 10:30:00 24.8 C 66 % 18.01 C
3288 08-08-2018 10:35:00 24.8 C 66 % 18.01 C
3289 08-08-2018 10:40:00 24.9 C 65 % 17.87 C
3290 08-08-2018 10:45:00 25.2 C 64 % 17.9 C
3291 08-08-2018 10:50:00 25.3 C 64 % 18 C
3292 08-08-2018 10:55:00 25.4 C 63 % 17.84 C
3293 08-08-2018 11:00:00 25.5 C 62 % 17.68 C
3294 08-08-2018 11:05:00 25.6 C 62 % 17.78 C
3295 08-08-2018 11:10:00 25.7 C 62 % 17.87 C
3296 08-08-2018 11:15:00 25.9 C 62 % 18.06 C
3297 08-08-2018 11:20:00 25.9 C 62 % 18.06 C
3298 08-08-2018 11:25:00 25.8 C 63 % 18.22 C
3299 08-08-2018 11:30:00 25.7 C 63 % 18.13 C
3300 08-08-2018 11:35:00 25.5 C 64 % 18.19 C
Sensor: Nr:Datum:Temp:Feuchte:Taupunkt:
Aussen-T/F 3301 08-08-2018 11:40:00 25.4 C 64 % 18.09 C
3302 08-08-2018 11:45:00 25.4 C 64 % 18.09 C
3303 08-08-2018 11:50:00 25.3 C 65 % 18.25 C
3304 08-08-2018 11:55:00 25.3 C 65 % 18.25 C
3305 08-08-2018 12:00:00 25.3 C 65 % 18.25 C
3306 08-08-2018 12:05:00 25.3 C 65 % 18.25 C
3307 08-08-2018 12:10:00 25.2 C 66 % 18.39 C
3308 08-08-2018 12:15:00 25.2 C 66 % 18.39 C
3309 08-08-2018 12:20:00 25.4 C 66 % 18.58 C
3310 08-08-2018 12:25:00 25.6 C 64 % 18.28 C
3311 08-08-2018 12:30:00 25.8 C 64 % 18.47 C
3312 08-08-2018 12:35:00 25.8 C 62 % 17.97 C
3313 08-08-2018 12:40:00 25.8 C 63 % 18.22 C
3314 08-08-2018 12:45:00 26 C 62 % 18.15 C
3315 08-08-2018 12:50:00 26.2 C 60 % 17.82 C
3316 08-08-2018 12:55:00 26.4 C 59 % 17.74 C
3317 08-08-2018 13:00:00 26.5 C 59 % 17.83 C
3318 08-08-2018 13:05:00 26.5 C 57 % 17.29 C
3319 08-08-2018 13:10:00 26.3 C 56 % 16.82 C
3320 08-08-2018 13:15:00 26.3 C 56 % 16.82 C
3321 08-08-2018 13:20:00 26.4 C 57 % 17.19 C
3322 08-08-2018 13:25:00 26.4 C 57 % 17.19 C
3323 08-08-2018 13:30:00 26.4 C 57 % 17.19 C
3324 08-08-2018 13:35:00 26.3 C 57 % 17.1 C
3325 08-08-2018 13:40:00 26.3 C 57 % 17.1 C
Sensor: Nr:Datum:Temp:Feuchte:Taupunkt:
Aussen-T/F 3326 08-08-2018 13:45:00 26.4 C 56 % 16.92 C
3327 08-08-2018 13:50:00 26.6 C 56 % 17.1 C
3328 08-08-2018 13:55:00 26.8 C 55 % 17 C
3329 08-08-2018 14:00:00 26.9 C 56 % 17.38 C
3330 08-08-2018 14:05:00 27.2 C 54 % 17.08 C
3331 08-08-2018 14:10:00 27.3 C 55 % 17.47 C
3332 08-08-2018 14:15:00 27.4 C 54 % 17.27 C
3333 08-08-2018 14:20:00 27.4 C 53 % 16.97 C
3334 08-08-2018 14:25:00 27.4 C 54 % 17.27 C
3335 08-08-2018 14:30:00 27.5 C 54 % 17.36 C
3336 08-08-2018 14:35:00 27.4 C 54 % 17.27 C
3337 08-08-2018 14:40:00 27.2 C 56 % 17.66 C
3338 08-08-2018 14:45:00 27.2 C 56 % 17.66 C
3339 08-08-2018 14:50:00 27.4 C 54 % 17.27 C
3340 08-08-2018 14:55:00 27.5 C 54 % 17.36 C
3341 08-08-2018 15:00:00 27.4 C 53 % 16.97 C
3342 08-08-2018 15:05:00 27.7 C 52 % 16.95 C
3343 08-08-2018 15:10:00 27.7 C 52 % 16.95 C
3344 08-08-2018 15:15:00 27.7 C 53 % 17.25 C
3345 08-08-2018 15:20:00 27.7 C 53 % 17.25 C
3346 08-08-2018 15:25:00 27.7 C 53 % 17.25 C
3347 08-08-2018 15:30:00 27.9 C 53 % 17.43 C
3348 08-08-2018 15:35:00 28.2 C 51 % 17.1 C
3349 08-08-2018 15:40:00 28.6 C 51 % 17.47 C
3350 08-08-2018 15:45:00 28.9 C 51 % 17.74 C
Sensor: Nr:Datum:Temp:Feuchte:Taupunkt:
Aussen-T/F 3351 08-08-2018 15:50:00 29.3 C 50 % 17.8 C
3352 08-08-2018 15:55:00 29.4 C 49 % 17.57 C
3353 08-08-2018 16:00:00 29.3 C 49 % 17.48 C
3354 08-08-2018 16:05:00 29.3 C 49 % 17.48 C
3355 08-08-2018 16:10:00 28.9 C 50 % 17.43 C
3356 08-08-2018 16:15:00 28.8 C 50 % 17.34 C
3357 08-08-2018 16:20:00 28.9 C 51 % 17.74 C
3358 08-08-2018 16:25:00 29.3 C 50 % 17.8 C
3359 08-08-2018 16:30:00 29.5 C 49 % 17.66 C
3360 08-08-2018 16:35:00 29.6 C 48 % 17.42 C
3361 08-08-2018 16:40:00 29.7 C 48 % 17.51 C
3362 08-08-2018 16:45:00 29.6 C 49 % 17.75 C
3363 08-08-2018 16:50:00 29.4 C 49 % 17.57 C
3364 08-08-2018 16:55:00 29.4 C 49 % 17.57 C
3365 08-08-2018 17:00:00 29.4 C 48 % 17.24 C
3366 08-08-2018 17:05:00 29.2 C 49 % 17.39 C
3367 08-08-2018 17:10:00 29.1 C 48 % 16.97 C
3368 08-08-2018 17:15:00 28.9 C 49 % 17.11 C
3369 08-08-2018 17:20:00 28.7 C 50 % 17.25 C
3370 08-08-2018 17:25:00 28.7 C 50 % 17.25 C
3371 08-08-2018 17:30:00 28.7 C 49 % 16.93 C
3372 08-08-2018 17:35:00 28.7 C 49 % 16.93 C
3373 08-08-2018 17:40:00 28.7 C 49 % 16.93 C
3374 08-08-2018 17:45:00 28.7 C 47 % 16.27 C
3375 08-08-2018 17:50:00 28.5 C 47 % 16.09 C
Sensor: Nr:Datum:Temp:Feuchte:Taupunkt:
Aussen-T/F 3376 08-08-2018 17:55:00 28.6 C 48 % 16.51 C
3377 08-08-2018 18:00:00 28.7 C 47 % 16.27 C
3378 08-08-2018 18:05:00 28.9 C 46 % 16.12 C
3379 08-08-2018 18:10:00 29.1 C 46 % 16.3 C
3380 08-08-2018 18:15:00 29.1 C 45 % 15.95 C
3381 08-08-2018 18:20:00 29.1 C 45 % 15.95 C
3382 08-08-2018 18:25:00 29.2 C 45 % 16.04 C
3383 08-08-2018 18:30:00 29.3 C 45 % 16.13 C
3384 08-08-2018 18:35:00 29.4 C 44 % 15.87 C
3385 08-08-2018 18:40:00 29.5 C 45 % 16.32 C
3386 08-08-2018 18:45:00 29.7 C 45 % 16.5 C
3387 08-08-2018 18:50:00 29.8 C 44 % 16.23 C
3388 08-08-2018 18:55:00 29.4 C 44 % 15.87 C
3389 08-08-2018 19:00:00 28.9 C 45 % 15.77 C
3390 08-08-2018 19:05:00 28.8 C 47 % 16.36 C
3391 08-08-2018 19:10:00 28.8 C 47 % 16.36 C
3392 08-08-2018 19:15:00 28.8 C 48 % 16.69 C
3393 08-08-2018 19:20:00 28.7 C 48 % 16.6 C
3394 08-08-2018 19:25:00 28.6 C 48 % 16.51 C
3395 08-08-2018 19:30:00 28.4 C 48 % 16.33 C
3396 08-08-2018 19:35:00 28.3 C 48 % 16.24 C
3397 08-08-2018 19:40:00 28.2 C 48 % 16.15 C
3398 08-08-2018 19:45:00 28.2 C 49 % 16.47 C
3399 08-08-2018 19:50:00 28.1 C 50 % 16.7 C
3400 08-08-2018 19:55:00 27.9 C 50 % 16.51 C
Sensor: Nr:Datum:Temp:Feuchte:Taupunkt:
Aussen-T/F 3401 08-08-2018 20:00:00 27.7 C 50 % 16.33 C
3402 08-08-2018 20:05:00 27.6 C 50 % 16.24 C
3403 08-08-2018 20:10:00 27.3 C 51 % 16.28 C
3404 08-08-2018 20:15:00 27.2 C 54 % 17.08 C
3405 08-08-2018 20:20:00 27 C 55 % 17.19 C
3406 08-08-2018 20:25:00 26.8 C 55 % 17 C
3407 08-08-2018 20:30:00 26.6 C 55 % 16.82 C
3408 08-08-2018 20:35:00 26.2 C 56 % 16.73 C
3409 08-08-2018 20:40:00 25.9 C 57 % 16.73 C
3410 08-08-2018 20:45:00 25.7 C 58 % 16.82 C
3411 08-08-2018 20:50:00 25.5 C 58 % 16.63 C
3412 08-08-2018 20:55:00 25.4 C 59 % 16.81 C
3413 08-08-2018 21:00:00 25.4 C 59 % 16.81 C
3414 08-08-2018 21:05:00 25.2 C 59 % 16.62 C
3415 08-08-2018 21:10:00 25.1 C 59 % 16.52 C
3416 08-08-2018 21:15:00 24.9 C 60 % 16.6 C
3417 08-08-2018 21:20:00 24.8 C 60 % 16.51 C
3418 08-08-2018 21:25:00 24.7 C 61 % 16.67 C
3419 08-08-2018 21:30:00 24.6 C 61 % 16.58 C
3420 08-08-2018 21:35:00 24.4 C 62 % 16.65 C
3421 08-08-2018 21:40:00 24.3 C 62 % 16.55 C
3422 08-08-2018 21:45:00 24.2 C 63 % 16.71 C
3423 08-08-2018 21:50:00 23.9 C 64 % 16.68 C
3424 08-08-2018 21:55:00 23.7 C 64 % 16.49 C
3425 08-08-2018 22:00:00 23.4 C 66 % 16.69 C
Sensor: Nr:Datum:Temp:Feuchte:Taupunkt:
Aussen-T/F 3426 08-08-2018 22:05:00 23.1 C 66 % 16.4 C
3427 08-08-2018 22:10:00 22.8 C 67 % 16.35 C
3428 08-08-2018 22:15:00 22.6 C 68 % 16.39 C
3429 08-08-2018 22:20:00 22.4 C 69 % 16.43 C
3430 08-08-2018 22:25:00 22.2 C 69 % 16.24 C
3431 08-08-2018 22:30:00 22.1 C 70 % 16.37 C
3432 08-08-2018 22:35:00 22.1 C 70 % 16.37 C
3433 08-08-2018 22:40:00 22 C 70 % 16.28 C
3434 08-08-2018 22:45:00 21.9 C 71 % 16.4 C
3435 08-08-2018 22:50:00 21.8 C 71 % 16.31 C
3436 08-08-2018 22:55:00 21.7 C 71 % 16.21 C
3437 08-08-2018 23:00:00 21.6 C 72 % 16.34 C
3438 08-08-2018 23:05:00 21.4 C 73 % 16.36 C
3439 08-08-2018 23:10:00 21.2 C 73 % 16.17 C
3440 08-08-2018 23:15:00 21.1 C 74 % 16.29 C
3441 08-08-2018 23:20:00 20.9 C 74 % 16.09 C
3442 08-08-2018 23:25:00 20.8 C 75 % 16.21 C
3443 08-08-2018 23:30:00 20.8 C 75 % 16.21 C
3444 08-08-2018 23:35:00 20.7 C 75 % 16.11 C
3445 08-08-2018 23:40:00 20.7 C 75 % 16.11 C
3446 08-08-2018 23:45:00 20.7 C 75 % 16.11 C
3447 08-08-2018 23:50:00 20.6 C 76 % 16.22 C
3448 08-08-2018 23:55:00 20.5 C 76 % 16.12 C
3449 09-08-2018 00:00:00 20.4 C 76 % 16.03 C
3450 09-08-2018 00:05:00 20.3 C 76 % 15.93 C
Sensor: Nr:Datum:Temp:Feuchte:Taupunkt:
Aussen-T/F 3451 09-08-2018 00:10:00 20.3 C 76 % 15.93 C
3452 09-08-2018 00:15:00 20.2 C 77 % 16.04 C
3453 09-08-2018 00:20:00 20.1 C 77 % 15.94 C
3454 09-08-2018 00:25:00 19.9 C 77 % 15.75 C
3455 09-08-2018 00:30:00 19.8 C 78 % 15.85 C
3456 09-08-2018 00:35:00 19.7 C 78 % 15.76 C
3457 09-08-2018 00:40:00 19.7 C 78 % 15.76 C
3458 09-08-2018 00:45:00 19.6 C 78 % 15.66 C
3459 09-08-2018 00:50:00 19.5 C 79 % 15.76 C
3460 09-08-2018 00:55:00 19.4 C 79 % 15.66 C
3461 09-08-2018 01:00:00 19.3 C 78 % 15.37 C
3462 09-08-2018 01:05:00 19.4 C 78 % 15.47 C
3463 09-08-2018 01:10:00 19.4 C 78 % 15.47 C
3464 09-08-2018 01:15:00 19.4 C 77 % 15.27 C
3465 09-08-2018 01:20:00 19.3 C 77 % 15.17 C
3466 09-08-2018 01:25:00 19.3 C 78 % 15.37 C
3467 09-08-2018 01:30:00 19.2 C 78 % 15.27 C
3468 09-08-2018 01:35:00 19.1 C 78 % 15.18 C
3469 09-08-2018 01:40:00 18.9 C 78 % 14.98 C
3470 09-08-2018 01:45:00 18.9 C 79 % 15.18 C
3471 09-08-2018 01:50:00 18.8 C 79 % 15.08 C
3472 09-08-2018 01:55:00 18.9 C 79 % 15.18 C
3473 09-08-2018 02:00:00 18.9 C 79 % 15.18 C
3474 09-08-2018 02:05:00 18.8 C 79 % 15.08 C
3475 09-08-2018 02:10:00 18.8 C 79 % 15.08 C
Sensor: Nr:Datum:Temp:Feuchte:Taupunkt:
Aussen-T/F 3476 09-08-2018 02:15:00 18.7 C 79 % 14.99 C
3477 09-08-2018 02:20:00 18.6 C 79 % 14.89 C
3478 09-08-2018 02:25:00 18.6 C 79 % 14.89 C
3479 09-08-2018 02:30:00 18.5 C 79 % 14.79 C
3480 09-08-2018 02:35:00 18.4 C 79 % 14.69 C
3481 09-08-2018 02:40:00 18.4 C 79 % 14.69 C
3482 09-08-2018 02:45:00 18.3 C 79 % 14.6 C
3483 09-08-2018 02:50:00 18.3 C 80 % 14.79 C
3484 09-08-2018 02:55:00 18.3 C 79 % 14.6 C
3485 09-08-2018 03:00:00 18.3 C 80 % 14.79 C
3486 09-08-2018 03:05:00 18.3 C 80 % 14.79 C
3487 09-08-2018 03:10:00 18.4 C 80 % 14.89 C
3488 09-08-2018 03:15:00 18.4 C 80 % 14.89 C
3489 09-08-2018 03:20:00 18.4 C 80 % 14.89 C
3490 09-08-2018 03:25:00 18.5 C 80 % 14.99 C
3491 09-08-2018 03:30:00 18.6 C 80 % 15.08 C
3492 09-08-2018 03:35:00 18.6 C 80 % 15.08 C
3493 09-08-2018 03:40:00 18.7 C 79 % 14.99 C
3494 09-08-2018 03:45:00 18.7 C 79 % 14.99 C
3495 09-08-2018 03:50:00 18.6 C 79 % 14.89 C
3496 09-08-2018 03:55:00 18.6 C 79 % 14.89 C
3497 09-08-2018 04:00:00 18.6 C 79 % 14.89 C
3498 09-08-2018 04:05:00 18.6 C 80 % 15.08 C
3499 09-08-2018 04:10:00 18.6 C 79 % 14.89 C
3500 09-08-2018 04:15:00 18.6 C 80 % 15.08 C
Sensor: Nr:Datum:Temp:Feuchte:Taupunkt:
Aussen-T/F 3501 09-08-2018 04:20:00 18.6 C 80 % 15.08 C
3502 09-08-2018 04:25:00 18.6 C 80 % 15.08 C
3503 09-08-2018 04:30:00 18.6 C 80 % 15.08 C
3504 09-08-2018 04:35:00 18.6 C 79 % 14.89 C
3505 09-08-2018 04:40:00 18.6 C 79 % 14.89 C
3506 09-08-2018 04:45:00 18.5 C 79 % 14.79 C
3507 09-08-2018 04:50:00 18.4 C 79 % 14.69 C
3508 09-08-2018 04:55:00 18.4 C 79 % 14.69 C
3509 09-08-2018 05:00:00 18.3 C 79 % 14.6 C
3510 09-08-2018 05:05:00 18.3 C 79 % 14.6 C
3511 09-08-2018 05:10:00 18.3 C 79 % 14.6 C
3512 09-08-2018 05:15:00 18.3 C 79 % 14.6 C
3513 09-08-2018 05:20:00 18.2 C 79 % 14.5 C
3514 09-08-2018 05:25:00 18.2 C 80 % 14.69 C
3515 09-08-2018 05:30:00 18.1 C 80 % 14.6 C
3516 09-08-2018 05:35:00 18.1 C 80 % 14.6 C
3517 09-08-2018 05:40:00 18.1 C 80 % 14.6 C
3518 09-08-2018 05:45:00 18.1 C 80 % 14.6 C
3519 09-08-2018 05:50:00 18.1 C 80 % 14.6 C
3520 09-08-2018 05:55:00 18.1 C 81 % 14.79 C
3521 09-08-2018 06:00:00 18.1 C 81 % 14.79 C
3522 09-08-2018 06:05:00 18.1 C 81 % 14.79 C
3523 09-08-2018 06:10:00 18.1 C 81 % 14.79 C
3524 09-08-2018 06:15:00 18.1 C 81 % 14.79 C
3525 09-08-2018 06:20:00 18.2 C 81 % 14.89 C
Sensor: Nr:Datum:Temp:Feuchte:Taupunkt:
Aussen-T/F 3526 09-08-2018 06:25:00 18.2 C 82 % 15.08 C
3527 09-08-2018 06:30:00 18.3 C 84 % 15.55 C
3528 09-08-2018 06:35:00 18.4 C 86 % 16.02 C
3529 09-08-2018 06:40:00 18.3 C 86 % 15.92 C
3530 09-08-2018 06:45:00 18.2 C 87 % 16 C
3531 09-08-2018 06:50:00 18.1 C 87 % 15.9 C
3532 09-08-2018 06:55:00 17.9 C 87 % 15.71 C
3533 09-08-2018 07:00:00 17.8 C 88 % 15.79 C
3534 09-08-2018 07:05:00 17.7 C 88 % 15.69 C
3535 09-08-2018 07:10:00 17.6 C 89 % 15.77 C
3536 09-08-2018 07:15:00 17.6 C 89 % 15.77 C
3537 09-08-2018 07:20:00 17.6 C 89 % 15.77 C
3538 09-08-2018 07:25:00 17.6 C 90 % 15.94 C
3539 09-08-2018 07:30:00 17.5 C 90 % 15.84 C
3540 09-08-2018 07:35:00 17.4 C 90 % 15.74 C
3541 09-08-2018 07:40:00 17.4 C 90 % 15.74 C
3542 09-08-2018 07:45:00 17.4 C 90 % 15.74 C
3543 09-08-2018 07:50:00 17.5 C 91 % 16.01 C
3544 09-08-2018 07:55:00 17.6 C 91 % 16.11 C
3545 09-08-2018 08:00:00 17.6 C 91 % 16.11 C
3546 09-08-2018 08:05:00 17.6 C 91 % 16.11 C
3547 09-08-2018 08:10:00 17.6 C 92 % 16.28 C
3548 09-08-2018 08:15:00 17.6 C 92 % 16.28 C
3549 09-08-2018 08:20:00 17.5 C 92 % 16.19 C
3550 09-08-2018 08:25:00 17.6 C 92 % 16.28 C
Sensor: Nr:Datum:Temp:Feuchte:Taupunkt:
Aussen-T/F 3551 09-08-2018 08:30:00 17.6 C 92 % 16.28 C
3552 09-08-2018 08:35:00 17.7 C 92 % 16.38 C
3553 09-08-2018 08:40:00 17.7 C 92 % 16.38 C
3554 09-08-2018 08:45:00 17.8 C 92 % 16.48 C
3555 09-08-2018 08:50:00 17.9 C 93 % 16.75 C
3556 09-08-2018 08:55:00 18.1 C 93 % 16.95 C
3557 09-08-2018 09:00:00 18.2 C 93 % 17.05 C
3558 09-08-2018 09:05:00 18.2 C 93 % 17.05 C
3559 09-08-2018 09:10:00 18.3 C 93 % 17.15 C
3560 09-08-2018 09:15:00 18.3 C 93 % 17.15 C
3561 09-08-2018 09:20:00 18.4 C 93 % 17.25 C
3562 09-08-2018 09:25:00 18.6 C 93 % 17.45 C
3563 09-08-2018 09:30:00 18.7 C 93 % 17.54 C
3564 09-08-2018 09:35:00 18.9 C 94 % 17.91 C
3565 09-08-2018 09:40:00 19.1 C 93 % 17.94 C
3566 09-08-2018 09:45:00 19.2 C 93 % 18.04 C
3567 09-08-2018 09:50:00 19.3 C 94 % 18.31 C
3568 09-08-2018 09:55:00 19.5 C 94 % 18.51 C
3569 09-08-2018 10:00:00 19.7 C 94 % 18.71 C
3570 09-08-2018 10:05:00 19.7 C 94 % 18.71 C
3571 09-08-2018 10:10:00 19.7 C 93 % 18.54 C
3572 09-08-2018 10:15:00 19.4 C 93 % 18.24 C
3573 09-08-2018 10:20:00 19.4 C 93 % 18.24 C
3574 09-08-2018 10:25:00 19.6 C 93 % 18.44 C
3575 09-08-2018 10:30:00 19.6 C 93 % 18.44 C
Sensor: Nr:Datum:Temp:Feuchte:Taupunkt:
Aussen-T/F 3576 09-08-2018 10:35:00 19.6 C 93 % 18.44 C
3577 09-08-2018 10:40:00 19.7 C 93 % 18.54 C
3578 09-08-2018 10:45:00 19.8 C 93 % 18.63 C
3579 09-08-2018 10:50:00 19.8 C 93 % 18.63 C
3580 09-08-2018 10:55:00 19.9 C 93 % 18.73 C
3581 09-08-2018 11:00:00 20 C 93 % 18.83 C
3582 09-08-2018 11:05:00 20.2 C 94 % 19.2 C
3583 09-08-2018 11:10:00 20.3 C 94 % 19.3 C
3584 09-08-2018 11:15:00 20.3 C 94 % 19.3 C
3585 09-08-2018 11:20:00 20.4 C 94 % 19.4 C
3586 09-08-2018 11:25:00 20.5 C 94 % 19.5 C
3587 09-08-2018 11:30:00 20.8 C 94 % 19.8 C
3588 09-08-2018 11:35:00 21 C 94 % 20 C
3589 09-08-2018 11:40:00 21.1 C 94 % 20.1 C
3590 09-08-2018 11:45:00 21.3 C 94 % 20.29 C
3591 09-08-2018 11:50:00 21.4 C 94 % 20.39 C
3592 09-08-2018 11:55:00 21.6 C 94 % 20.59 C
3593 09-08-2018 12:00:00 21.8 C 94 % 20.79 C
3594 09-08-2018 12:05:00 21.9 C 94 % 20.89 C
3595 09-08-2018 12:10:00 22 C 94 % 20.99 C
3596 09-08-2018 12:15:00 22 C 92 % 20.64 C
3597 09-08-2018 12:20:00 22.2 C 87 % 19.93 C
3598 09-08-2018 12:25:00 22.8 C 86 % 20.33 C
3599 09-08-2018 12:30:00 23.6 C 76 % 19.12 C
3600 09-08-2018 12:35:00 24.7 C 71 % 19.09 C
Sensor: Nr:Datum:Temp:Feuchte:Taupunkt:
Aussen-T/F 3601 09-08-2018 12:40:00 25.5 C 69 % 19.39 C
3602 09-08-2018 12:45:00 26.1 C 65 % 19 C
3603 09-08-2018 12:50:00 26.8 C 63 % 19.16 C
3604 09-08-2018 12:55:00 27.3 C 62 % 19.38 C
3605 09-08-2018 13:00:00 27.7 C 59 % 18.96 C
3606 09-08-2018 13:05:00 28.2 C 58 % 19.15 C
3607 09-08-2018 13:10:00 28.6 C 57 % 19.24 C
3608 09-08-2018 13:15:00 28.9 C 56 % 19.24 C
3609 09-08-2018 13:20:00 29.1 C 55 % 19.13 C
3610 09-08-2018 13:25:00 29.3 C 55 % 19.32 C
3611 09-08-2018 13:30:00 29.7 C 54 % 19.39 C
3612 09-08-2018 13:35:00 30 C 51 % 18.75 C
3613 09-08-2018 13:40:00 30.2 C 53 % 19.56 C
3614 09-08-2018 13:45:00 30.4 C 52 % 19.43 C
3615 09-08-2018 13:50:00 30.4 C 52 % 19.43 C
3616 09-08-2018 13:55:00 30.4 C 53 % 19.74 C
3617 09-08-2018 14:00:00 30.4 C 51 % 19.12 C
3618 09-08-2018 14:05:00 30.3 C 52 % 19.34 C
3619 09-08-2018 14:10:00 30.1 C 51 % 18.85 C
3620 09-08-2018 14:15:00 29.9 C 59 % 21.01 C
3621 09-08-2018 14:20:00 29.6 C 61 % 21.28 C
3622 09-08-2018 14:25:00 29.1 C 62 % 21.07 C
3623 09-08-2018 14:30:00 28.4 C 64 % 20.93 C
3624 09-08-2018 14:35:00 27.9 C 65 % 20.71 C
3625 09-08-2018 14:40:00 27.3 C 61 % 19.12 C
Sensor: Nr:Datum:Temp:Feuchte:Taupunkt:
Aussen-T/F 3626 09-08-2018 14:45:00 25.6 C 69 % 19.49 C
3627 09-08-2018 14:50:00 23.4 C 75 % 18.71 C
3628 09-08-2018 14:55:00 21.9 C 81 % 18.49 C
3629 09-08-2018 15:00:00 20.8 C 84 % 18 C
3630 09-08-2018 15:05:00 20.3 C 86 % 17.88 C
3631 09-08-2018 15:10:00 20.1 C 88 % 18.05 C
3632 09-08-2018 15:15:00 19.9 C 88 % 17.85 C
3633 09-08-2018 15:20:00 19.8 C 89 % 17.93 C
3634 09-08-2018 15:25:00 19.8 C 90 % 18.11 C
3635 09-08-2018 15:30:00 19.8 C 90 % 18.11 C
3636 09-08-2018 15:35:00 19.8 C 90 % 18.11 C
3637 09-08-2018 15:40:00 19.8 C 91 % 18.29 C
3638 09-08-2018 15:45:00 19.8 C 91 % 18.29 C
3639 09-08-2018 15:50:00 19.8 C 92 % 18.46 C
3640 09-08-2018 15:55:00 20 C 92 % 18.66 C
3641 09-08-2018 16:00:00 20.2 C 93 % 19.03 C
3642 09-08-2018 16:05:00 20.6 C 93 % 19.43 C
3643 09-08-2018 16:10:00 20.8 C 93 % 19.63 C
3644 09-08-2018 16:15:00 21 C 93 % 19.82 C
3645 09-08-2018 16:20:00 21.1 C 93 % 19.92 C
3646 09-08-2018 16:25:00 21.3 C 93 % 20.12 C
3647 09-08-2018 16:30:00 21.5 C 93 % 20.32 C
3648 09-08-2018 16:35:00 21.6 C 93 % 20.42 C
3649 09-08-2018 16:40:00 21.8 C 93 % 20.62 C
3650 09-08-2018 16:45:00 21.9 C 93 % 20.72 C
Sensor: Nr:Datum:Temp:Feuchte:Taupunkt:
Aussen-T/F 3651 09-08-2018 16:50:00 21.9 C 93 % 20.72 C
3652 09-08-2018 16:55:00 21.9 C 93 % 20.72 C
3653 09-08-2018 17:00:00 21.8 C 92 % 20.44 C
3654 09-08-2018 17:05:00 21.7 C 92 % 20.34 C
3655 09-08-2018 17:10:00 21.6 C 92 % 20.24 C
3656 09-08-2018 17:15:00 21.6 C 92 % 20.24 C
3657 09-08-2018 17:20:00 21.5 C 92 % 20.14 C
3658 09-08-2018 17:25:00 21.4 C 92 % 20.05 C
3659 09-08-2018 17:30:00 21.4 C 92 % 20.05 C
3660 09-08-2018 17:35:00 21.4 C 92 % 20.05 C
3661 09-08-2018 17:40:00 21.4 C 92 % 20.05 C
3662 09-08-2018 17:45:00 21.3 C 92 % 19.95 C
3663 09-08-2018 17:50:00 21.3 C 92 % 19.95 C
3664 09-08-2018 17:55:00 21.2 C 92 % 19.85 C
3665 09-08-2018 18:00:00 21.1 C 92 % 19.75 C
3666 09-08-2018 18:05:00 21 C 92 % 19.65 C
3667 09-08-2018 18:10:00 20.8 C 92 % 19.45 C
3668 09-08-2018 18:15:00 20.7 C 92 % 19.35 C
3669 09-08-2018 18:20:00 20.7 C 92 % 19.35 C
3670 09-08-2018 18:25:00 20.7 C 92 % 19.35 C
3671 09-08-2018 18:30:00 20.8 C 93 % 19.63 C
3672 09-08-2018 18:35:00 20.8 C 93 % 19.63 C
3673 09-08-2018 18:40:00 20.8 C 93 % 19.63 C
3674 09-08-2018 18:45:00 20.9 C 93 % 19.72 C
3675 09-08-2018 18:50:00 20.9 C 93 % 19.72 C
Sensor: Nr:Datum:Temp:Feuchte:Taupunkt:
Aussen-T/F 3676 09-08-2018 18:55:00 21.2 C 93 % 20.02 C
3677 09-08-2018 19:00:00 21.4 C 93 % 20.22 C
3678 09-08-2018 19:05:00 21.7 C 93 % 20.52 C
3679 09-08-2018 19:10:00 21.9 C 89 % 20 C
3680 09-08-2018 19:15:00 22.5 C 89 % 20.59 C
3681 09-08-2018 19:20:00 22.9 C 84 % 20.05 C
3682 09-08-2018 19:25:00 23.2 C 86 % 20.73 C
3683 09-08-2018 19:30:00 23 C 82 % 19.76 C
3684 09-08-2018 19:35:00 22.8 C 83 % 19.76 C
3685 09-08-2018 19:40:00 22.6 C 84 % 19.76 C
3686 09-08-2018 19:45:00 22.3 C 84 % 19.46 C
3687 09-08-2018 19:50:00 22 C 85 % 19.36 C
3688 09-08-2018 19:55:00 21.8 C 86 % 19.35 C
3689 09-08-2018 20:00:00 21.7 C 86 % 19.25 C
3690 09-08-2018 20:05:00 21.5 C 82 % 18.3 C
3691 09-08-2018 20:10:00 21.4 C 83 % 18.39 C
3692 09-08-2018 20:15:00 21.3 C 80 % 17.71 C
3693 09-08-2018 20:20:00 21.4 C 82 % 18.2 C
3694 09-08-2018 20:25:00 21.2 C 81 % 17.81 C
3695 09-08-2018 20:30:00 21.2 C 81 % 17.81 C
3696 09-08-2018 20:35:00 21.1 C 81 % 17.71 C
3697 09-08-2018 20:40:00 21.1 C 81 % 17.71 C
3698 09-08-2018 20:45:00 21.1 C 81 % 17.71 C
3699 09-08-2018 20:50:00 21.1 C 79 % 17.32 C
3700 09-08-2018 20:55:00 21.1 C 80 % 17.51 C
Sensor: Nr:Datum:Temp:Feuchte:Taupunkt:
Aussen-T/F 3701 09-08-2018 21:00:00 21 C 78 % 17.02 C
3702 09-08-2018 21:05:00 21 C 78 % 17.02 C
3703 09-08-2018 21:10:00 21 C 77 % 16.81 C
3704 09-08-2018 21:15:00 21 C 76 % 16.61 C
3705 09-08-2018 21:20:00 21 C 75 % 16.4 C
3706 09-08-2018 21:25:00 20.9 C 77 % 16.72 C
3707 09-08-2018 21:30:00 20.8 C 77 % 16.62 C
3708 09-08-2018 21:35:00 20.7 C 76 % 16.32 C
3709 09-08-2018 21:40:00 20.6 C 76 % 16.22 C
3710 09-08-2018 21:45:00 20.6 C 78 % 16.63 C
3711 09-08-2018 21:50:00 20.4 C 79 % 16.64 C
3712 09-08-2018 21:55:00 20.2 C 79 % 16.44 C
3713 09-08-2018 22:00:00 20.1 C 80 % 16.54 C
3714 09-08-2018 22:05:00 19.9 C 81 % 16.54 C
3715 09-08-2018 22:10:00 19.9 C 80 % 16.35 C
3716 09-08-2018 22:15:00 19.9 C 79 % 16.15 C
3717 09-08-2018 22:20:00 20.1 C 79 % 16.34 C
3718 09-08-2018 22:25:00 20 C 79 % 16.25 C
3719 09-08-2018 22:30:00 19.9 C 80 % 16.35 C
3720 09-08-2018 22:35:00 19.8 C 81 % 16.45 C
3721 09-08-2018 22:40:00 19.7 C 81 % 16.35 C
3722 09-08-2018 22:45:00 19.6 C 80 % 16.06 C
3723 09-08-2018 22:50:00 19.5 C 80 % 15.96 C
3724 09-08-2018 22:55:00 19.5 C 80 % 15.96 C
3725 09-08-2018 23:00:00 19.6 C 79 % 15.86 C
Sensor: Nr:Datum:Temp:Feuchte:Taupunkt:
Aussen-T/F 3726 09-08-2018 23:05:00 19.6 C 80 % 16.06 C
3727 09-08-2018 23:10:00 19.6 C 79 % 15.86 C
3728 09-08-2018 23:15:00 19.5 C 78 % 15.56 C
3729 09-08-2018 23:20:00 19.5 C 77 % 15.36 C
3730 09-08-2018 23:25:00 19.6 C 79 % 15.86 C
3731 09-08-2018 23:30:00 19.5 C 78 % 15.56 C
3732 09-08-2018 23:35:00 19.5 C 79 % 15.76 C
3733 09-08-2018 23:40:00 19.5 C 78 % 15.56 C
3734 09-08-2018 23:45:00 19.6 C 78 % 15.66 C
3735 09-08-2018 23:50:00 19.6 C 81 % 16.25 C
3736 09-08-2018 23:55:00 19.2 C 82 % 16.05 C
3737 10-08-2018 00:00:00 18.8 C 84 % 16.04 C
3738 10-08-2018 00:05:00 18.5 C 85 % 15.93 C
3739 10-08-2018 00:10:00 18.3 C 86 % 15.92 C
3740 10-08-2018 00:15:00 18.1 C 86 % 15.72 C
3741 10-08-2018 00:20:00 17.8 C 86 % 15.43 C
3742 10-08-2018 00:25:00 17.6 C 87 % 15.41 C
3743 10-08-2018 00:30:00 17.5 C 87 % 15.31 C
3744 10-08-2018 00:35:00 17.5 C 87 % 15.31 C
3745 10-08-2018 00:40:00 17.4 C 84 % 14.67 C
3746 10-08-2018 00:45:00 17.3 C 82 % 14.2 C
3747 10-08-2018 00:50:00 17.3 C 82 % 14.2 C
3748 10-08-2018 00:55:00 17.3 C 82 % 14.2 C
3749 10-08-2018 01:00:00 17.2 C 82 % 14.1 C
3750 10-08-2018 01:05:00 17.2 C 81 % 13.91 C
Sensor: Nr:Datum:Temp:Feuchte:Taupunkt:
Aussen-T/F 3751 10-08-2018 01:10:00 17.2 C 81 % 13.91 C
3752 10-08-2018 01:15:00 17.1 C 81 % 13.82 C
3753 10-08-2018 01:20:00 17.2 C 81 % 13.91 C
3754 10-08-2018 01:25:00 17.1 C 80 % 13.62 C
3755 10-08-2018 01:30:00 17.1 C 81 % 13.82 C
3756 10-08-2018 01:35:00 17.1 C 82 % 14 C
3757 10-08-2018 01:40:00 17.1 C 81 % 13.82 C
3758 10-08-2018 01:45:00 17 C 80 % 13.53 C
3759 10-08-2018 01:50:00 16.9 C 80 % 13.43 C
3760 10-08-2018 01:55:00 16.9 C 80 % 13.43 C
3761 10-08-2018 02:00:00 16.9 C 80 % 13.43 C
3762 10-08-2018 02:05:00 16.8 C 81 % 13.52 C
3763 10-08-2018 02:10:00 16.7 C 80 % 13.23 C
3764 10-08-2018 02:15:00 16.6 C 80 % 13.14 C
3765 10-08-2018 02:20:00 16.4 C 80 % 12.94 C
3766 10-08-2018 02:25:00 16.3 C 81 % 13.04 C
3767 10-08-2018 02:30:00 16.2 C 82 % 13.13 C
3768 10-08-2018 02:35:00 16 C 82 % 12.93 C
3769 10-08-2018 02:40:00 15.8 C 81 % 12.55 C
3770 10-08-2018 02:45:00 15.7 C 82 % 12.64 C
3771 10-08-2018 02:50:00 15.6 C 82 % 12.54 C
3772 10-08-2018 02:55:00 15.5 C 82 % 12.44 C
3773 10-08-2018 03:00:00 15.4 C 83 % 12.53 C
3774 10-08-2018 03:05:00 15.3 C 83 % 12.43 C
3775 10-08-2018 03:10:00 15.2 C 83 % 12.33 C
Sensor: Nr:Datum:Temp:Feuchte:Taupunkt:
Aussen-T/F 3776 10-08-2018 03:15:00 15.2 C 83 % 12.33 C
3777 10-08-2018 03:20:00 15.1 C 83 % 12.24 C
3778 10-08-2018 03:25:00 15.1 C 83 % 12.24 C
3779 10-08-2018 03:30:00 15.1 C 82 % 12.05 C
3780 10-08-2018 03:35:00 15 C 82 % 11.95 C
3781 10-08-2018 03:40:00 15 C 82 % 11.95 C
3782 10-08-2018 03:45:00 14.9 C 82 % 11.86 C
3783 10-08-2018 03:50:00 14.9 C 83 % 12.04 C
3784 10-08-2018 03:55:00 14.9 C 83 % 12.04 C
3785 10-08-2018 04:00:00 14.8 C 83 % 11.94 C
3786 10-08-2018 04:05:00 14.7 C 83 % 11.85 C
3787 10-08-2018 04:10:00 14.6 C 83 % 11.75 C
3788 10-08-2018 04:15:00 14.6 C 83 % 11.75 C
3789 10-08-2018 04:20:00 14.6 C 83 % 11.75 C
3790 10-08-2018 04:25:00 14.6 C 83 % 11.75 C
3791 10-08-2018 04:30:00 14.6 C 83 % 11.75 C
3792 10-08-2018 04:35:00 14.5 C 83 % 11.65 C
3793 10-08-2018 04:40:00 14.4 C 83 % 11.55 C
3794 10-08-2018 04:45:00 14.4 C 84 % 11.73 C
3795 10-08-2018 04:50:00 14.3 C 84 % 11.64 C
3796 10-08-2018 04:55:00 14.2 C 85 % 11.72 C
3797 10-08-2018 05:00:00 14.1 C 85 % 11.62 C
3798 10-08-2018 05:05:00 13.9 C 85 % 11.42 C
3799 10-08-2018 05:10:00 13.9 C 85 % 11.42 C
3800 10-08-2018 05:15:00 13.8 C 86 % 11.5 C
Sensor: Nr:Datum:Temp:Feuchte:Taupunkt:
Aussen-T/F 3801 10-08-2018 05:20:00 13.8 C 86 % 11.5 C
3802 10-08-2018 05:25:00 13.7 C 86 % 11.4 C
3803 10-08-2018 05:30:00 13.7 C 86 % 11.4 C
3804 10-08-2018 05:35:00 13.7 C 86 % 11.4 C
3805 10-08-2018 05:40:00 13.6 C 86 % 11.3 C
3806 10-08-2018 05:45:00 13.5 C 87 % 11.38 C
3807 10-08-2018 05:50:00 13.4 C 87 % 11.28 C
3808 10-08-2018 05:55:00 13.4 C 87 % 11.28 C
3809 10-08-2018 06:00:00 13.3 C 87 % 11.18 C
3810 10-08-2018 06:05:00 13.3 C 87 % 11.18 C
3811 10-08-2018 06:10:00 13.2 C 88 % 11.26 C
3812 10-08-2018 06:15:00 13.2 C 88 % 11.26 C
3813 10-08-2018 06:20:00 13.1 C 88 % 11.16 C
3814 10-08-2018 06:25:00 13.1 C 88 % 11.16 C
3815 10-08-2018 06:30:00 13.1 C 89 % 11.33 C
3816 10-08-2018 06:35:00 13.2 C 88 % 11.26 C
3817 10-08-2018 06:40:00 13.3 C 88 % 11.36 C
3818 10-08-2018 06:45:00 13.4 C 88 % 11.45 C
3819 10-08-2018 06:50:00 13.6 C 87 % 11.48 C
3820 10-08-2018 06:55:00 13.7 C 87 % 11.58 C
3821 10-08-2018 07:00:00 13.7 C 87 % 11.58 C
3822 10-08-2018 07:05:00 13.7 C 87 % 11.58 C
3823 10-08-2018 07:10:00 13.7 C 87 % 11.58 C
3824 10-08-2018 07:15:00 13.7 C 87 % 11.58 C
3825 10-08-2018 07:20:00 13.7 C 87 % 11.58 C
Sensor: Nr:Datum:Temp:Feuchte:Taupunkt:
Aussen-T/F 3826 10-08-2018 07:25:00 13.7 C 87 % 11.58 C
3827 10-08-2018 07:30:00 13.7 C 87 % 11.58 C
3828 10-08-2018 07:35:00 13.7 C 87 % 11.58 C
3829 10-08-2018 07:40:00 13.7 C 87 % 11.58 C
3830 10-08-2018 07:45:00 13.7 C 87 % 11.58 C
3831 10-08-2018 07:50:00 13.8 C 87 % 11.68 C
3832 10-08-2018 07:55:00 13.9 C 87 % 11.77 C
3833 10-08-2018 08:00:00 13.9 C 87 % 11.77 C
3834 10-08-2018 08:05:00 14.1 C 87 % 11.97 C
3835 10-08-2018 08:10:00 14.2 C 87 % 12.07 C
3836 10-08-2018 08:15:00 14.3 C 86 % 11.99 C
3837 10-08-2018 08:20:00 14.4 C 86 % 12.09 C
3838 10-08-2018 08:25:00 14.5 C 85 % 12.01 C
3839 10-08-2018 08:30:00 14.6 C 85 % 12.11 C
3840 10-08-2018 08:35:00 14.7 C 85 % 12.21 C
3841 10-08-2018 08:40:00 14.8 C 84 % 12.12 C
3842 10-08-2018 08:45:00 14.9 C 85 % 12.4 C
3843 10-08-2018 08:50:00 14.9 C 83 % 12.04 C
3844 10-08-2018 08:55:00 15.1 C 82 % 12.05 C
3845 10-08-2018 09:00:00 15.2 C 83 % 12.33 C
3846 10-08-2018 09:05:00 15.3 C 81 % 12.06 C
3847 10-08-2018 09:10:00 15.6 C 81 % 12.35 C
3848 10-08-2018 09:15:00 15.7 C 80 % 12.26 C
3849 10-08-2018 09:20:00 15.8 C 79 % 12.17 C
3850 10-08-2018 09:25:00 15.9 C 79 % 12.27 C
Sensor: Nr:Datum:Temp:Feuchte:Taupunkt:
Aussen-T/F 3851 10-08-2018 09:30:00 16.1 C 78 % 12.27 C
3852 10-08-2018 09:35:00 16.1 C 78 % 12.27 C
3853 10-08-2018 09:40:00 16.2 C 78 % 12.36 C
3854 10-08-2018 09:45:00 16.3 C 77 % 12.26 C
3855 10-08-2018 09:50:00 16.4 C 76 % 12.16 C
3856 10-08-2018 09:55:00 16.6 C 75 % 12.15 C
3857 10-08-2018 10:00:00 16.6 C 74 % 11.95 C
3858 10-08-2018 10:05:00 16.8 C 73 % 11.94 C
3859 10-08-2018 10:10:00 16.9 C 74 % 12.24 C
3860 10-08-2018 10:15:00 17.1 C 73 % 12.23 C
3861 10-08-2018 10:20:00 17.2 C 72 % 12.11 C
3862 10-08-2018 10:25:00 17.4 C 71 % 12.09 C
3863 10-08-2018 10:30:00 17.5 C 71 % 12.19 C
3864 10-08-2018 10:35:00 17.6 C 71 % 12.28 C
3865 10-08-2018 10:40:00 17.7 C 70 % 12.16 C
3866 10-08-2018 10:45:00 17.9 C 67 % 11.69 C
3867 10-08-2018 10:50:00 18.1 C 68 % 12.11 C
3868 10-08-2018 10:55:00 18.1 C 67 % 11.88 C
3869 10-08-2018 11:00:00 18.1 C 66 % 11.65 C
3870 10-08-2018 11:05:00 18.2 C 66 % 11.75 C
3871 10-08-2018 11:10:00 18.4 C 65 % 11.71 C
3872 10-08-2018 11:15:00 18.6 C 67 % 12.36 C
3873 10-08-2018 11:20:00 18.7 C 63 % 11.52 C
3874 10-08-2018 11:25:00 18.8 C 63 % 11.61 C
3875 10-08-2018 11:30:00 19 C 61 %